[[{"header":{"parameterUnit":"m.s-1","parameterCategory":1,"la1":31.0,"la2":29.5877,"lo1":-88.7671,"lo2":-86.6584,"dx":0.0162,"dy":0.0185,"nx":115,"ny":88,"refTime":"2023-01-31T06:00:00:Z","depth":0,"parameterNumber":2,"parameterNumberName":"U-component_of_WINDS"},"data":[0.0,0.0,0.0,0.0,0.0,0.0,0.0,0.0,0.0,0.0,0.0,0.0,0.0,0.0,0.0,0.0,0.0,0.0,0.0,0.0,0.0,0.0,0.0,0.0,0.0,0.0,0.0,0.0,0.0,0.0,0.0,0.0,0.0,0.0,0.0,0.0,0.0,0.0,0.0,0.0,0.0,0.0,0.0,0.0,0.0,0.0,0.0,0.0,0.0,0.0,0.0,0.0,0.0,0.0,0.0,0.0,0.0,0.0,0.0,0.0,0.0,0.0,0.0,0.0,0.0,0.0,0.0,0.0,0.0,0.0,0.0,0.0,0.0,0.0,0.0,0.0,0.0,0.0,0.0,0.0,0.0,0.0,0.0,0.0,0.0,0.0,0.0,0.0,0.0,0.0,0.0,0.0,0.0,0.0,0.0,0.0,0.0,0.0,0.0,0.0,0.0,0.0,0.0,0.0,0.0,0.0,0.0,0.0,0.0,0.0,0.0,0.0,0.0,0.0,0.0,0.0,0.0,0.0,0.0,0.0,0.0,0.0,0.0,0.0,0.0,0.0,0.0,0.0,0.0,0.0,0.0,0.0,0.0,0.0,0.0,0.0,0.0,0.0,0.0,0.0,0.0,0.0,0.0,0.0,0.0,0.0,0.0,0.0,0.0,0.0,0.0,0.0,0.0,0.0,0.0,0.0,0.0,0.0,0.0,0.0,0.0,0.0,0.0,0.0,0.0,0.0,0.0,0.0,0.0,0.0,0.0,0.0,0.0,0.0,0.0,0.0,0.0,0.0,0.0,0.0,0.0,0.0,0.0,0.0,0.0,0.0,0.0,0.0,0.0,0.0,0.0,0.0,0.0,0.0,0.0,0.0,0.0,0.0,0.0,0.0,0.0,0.0,0.0,0.0,0.0,0.0,0.0,0.0,0.0,0.0,0.0,0.0,0.0,0.0,0.0,0.0,0.0,0.0,0.0,0.0,0.0,0.0,0.0,0.0,0.0,0.0,0.0,0.0,0.0,0.0,0.0,0.0,0.0,0.0,0.0,0.0,0.0,0.0,0.0,0.0,0.0,0.0,0.0,0.0,0.0,0.0,0.0,0.0,0.0,0.0,0.0,0.0,0.0,0.0,0.0,0.0,0.0,0.0,0.0,0.0,0.0,0.0,0.0,0.0,0.0,0.0,0.0,0.0,0.0,0.0,0.0,0.0,0.0,0.0,0.0,0.0,0.0,0.0,0.0,0.0,0.0,0.0,0.0,0.0,0.0,0.0,0.0,0.0,0.0,0.0,0.0,0.0,0.0,0.0,0.0,0.0,0.0,0.0,0.0,0.0,0.0,0.0,0.0,0.0,0.0,0.0,0.0,0.0,0.0,0.0,0.0,0.0,0.0,0.0,0.0,0.0,0.0,0.0,0.0,0.0,0.0,0.0,0.0,0.0,0.0,0.0,0.0,0.0,0.0,0.0,0.0,0.0,0.0,0.0,0.0,0.0,0.0,0.0,0.0,0.0,0.0,0.0,0.0,0.0,0.0,0.0,0.0,0.0,0.0,0.0,0.0,0.0,0.0,0.0,0.0,0.0,0.0,0.0,0.0,0.0,0.0,0.0,0.0,0.0,0.0,0.0,0.0,0.0,0.0,0.0,0.0,0.0,0.0,0.0,0.0,0.0,0.0,0.0,0.0,0.0,0.0,0.0,0.0,0.0,0.0,0.0,0.0,0.0,0.0,0.0,0.0,0.0,0.0,0.0,0.0,0.0,0.0,0.0,0.0,0.0,0.0,0.0,0.0,0.0,0.0,0.0,0.0,0.0,0.0,0.0,0.0,0.0,0.0,0.0,0.0,0.0,0.0,0.0,0.0,0.0,0.0,0.0,0.0,0.0,0.0,0.0,0.0,0.0,0.0,0.0,0.0,0.0,0.0,0.0,0.0,0.0,0.0,0.0,0.0,0.0,0.0,0.0,0.0,0.0,0.0,0.0,0.0,0.0,0.0,0.0,0.0,0.0,0.0,0.0,0.0,0.0,0.0,0.0,0.0,0.0,0.0,0.0,0.0,0.0,0.0,0.0,0.0,0.0,0.0,0.0,0.0,0.0,0.0,0.0,0.0,0.0,0.0,0.0,0.0,0.0,0.0,0.0,0.0,0.0,0.0,0.0,0.0,0.0,0.0,0.0,0.0,0.0,0.0,0.0,0.0,0.0,0.0,0.0,0.0,0.0,0.0,0.0,0.0,0.0,0.0,0.0,0.0,0.0,0.0,0.0,0.0,0.0,0.0,0.0,0.0,0.0,0.0,0.0,0.0,0.0,0.0,0.0,0.0,0.0,0.0,0.0,0.0,0.0,0.0,0.0,0.0,0.0,0.0,0.0,0.0,0.0,0.0,0.0,0.0,0.0,0.0,0.0,0.0,0.0,0.0,0.0,0.0,0.0,0.0,0.0,0.0,0.0,0.0,0.0,0.0,0.0,0.0,0.0,0.0,0.0,0.0,0.0,0.0,0.0,0.0,0.0,0.0,0.0,0.0,0.0,0.0,0.0,0.0,0.0,0.0,0.0,0.0,0.0,0.0,0.0,0.0,0.0,0.0,0.0,0.0,0.0,0.0,0.0,0.0,0.0,0.0,0.0,0.0,0.0,0.0,0.0,0.0,0.0,0.0,0.0,0.0,0.0,0.0,0.0,0.0,0.0,0.0,0.0,0.0,0.0,0.0,0.0,0.0,0.0,0.0,0.0,0.0,0.0,0.0,0.0,0.0,0.0,0.0,0.0,0.0,0.0,0.0,0.0,0.0,0.0,0.0,0.0,0.0,0.0,0.0,0.0,0.0,0.0,0.0,0.0,0.0,0.0,0.0,0.0,0.0,0.0,0.0,0.0,0.0,0.0,0.0,0.0,0.0,0.0,0.0,0.0,0.0,0.0,0.0,0.0,0.0,0.0,0.0,0.0,0.0,0.0,0.0,0.0,0.0,0.0,0.0,0.0,0.0,0.0,0.0,0.0,0.0,0.0,0.0,0.0,0.0,0.0,0.0,0.0,0.0,0.0,0.0,0.0,0.0,0.0,0.0,0.0,0.0,0.0,0.0,0.0,0.0,0.0,0.0,0.0,0.0,0.0,0.0,0.0,0.0,0.0,0.0,0.0,0.0,0.0,0.0,0.0,0.0,0.0,0.0,0.0,0.0,0.0,0.0,0.0,0.0,0.0,0.0,0.0,0.0,0.0,0.0,0.0,0.0,0.0,0.0,0.0,0.0,0.0,0.0,0.0,0.0,0.0,0.0,0.0,0.0,0.0,0.0,0.0,0.0,0.0,0.0,0.0,0.0,0.0,0.0,0.0,0.0,0.0,0.0,0.0,0.0,0.0,0.0,0.0,0.0,0.0,0.0,0.0,0.0,0.0,0.0,0.0,0.0,0.0,0.0,0.0,0.0,0.0,0.0,0.0,0.0,0.0,0.0,0.0,0.0,0.0,0.0,0.0,0.0,0.0,0.0,0.0,0.0,0.0,0.0,0.0,0.0,0.0,0.0,0.0,0.0,0.0,0.0,0.0,0.0,0.0,0.0,0.0,0.0,0.0,0.0,0.0,0.0,0.0,0.0,0.0,0.0,0.0,0.0,0.0,0.0,0.0,0.0,0.0,0.0,0.0,0.0,0.0,0.0,0.0,0.0,0.0,0.0,0.0,0.0,0.0,0.0,0.0,0.0,0.0,0.0,0.0,0.0,0.0,0.0,0.0,0.0,0.0,0.0,0.0,0.0,0.0,0.0,0.0,0.0,0.0,0.0,0.0,0.0,0.0,0.0,0.0,0.0,0.0,0.0,0.0,0.0,0.0,0.0,0.0,0.0,0.0,0.0,0.0,0.0,0.0,0.0,0.0,0.0,0.0,0.0,0.0,0.0,0.0,0.0,0.0,0.0,0.0,0.0,0.0,0.0,0.0,0.0,0.0,0.0,0.0,0.0,0.0,0.0,0.0,0.0,0.0,0.0,0.0,0.0,0.0,0.0,0.0,0.0,0.0,0.0,0.0,0.0,0.0,0.0,0.0,0.0,0.0,0.0,0.0,0.0,0.0,0.0,0.0,0.0,0.0,0.0,0.0,0.0,0.0,0.0,0.0,0.0,0.0,0.0,0.0,0.0,0.0,0.0,0.0,0.0,0.0,0.0,0.0,0.0,0.0,0.0,0.0,0.0,0.0,0.0,0.0,0.0,0.0,0.0,0.0,0.0,0.0,0.0,0.0,0.0,0.0,0.0,0.0,0.0,0.0,0.0,0.0,0.0,0.0,5.3209,0.0,0.0,0.0,0.0,0.0,0.0,0.0,0.0,0.0,0.0,0.0,0.0,0.0,0.0,0.0,0.0,0.0,0.0,0.0,0.0,0.0,0.0,0.0,0.0,0.0,0.0,0.0,0.0,0.0,0.0,0.0,0.0,0.0,0.0,0.0,0.0,0.0,0.0,0.0,0.0,0.0,0.0,0.0,0.0,0.0,0.0,0.0,0.0,0.0,0.0,0.0,0.0,0.0,0.0,0.0,0.0,0.0,0.0,0.0,0.0,0.0,0.0,0.0,0.0,0.0,0.0,0.0,0.0,0.0,0.0,0.0,0.0,0.0,0.0,0.0,0.0,0.0,0.0,0.0,0.0,0.0,0.0,0.0,0.0,0.0,0.0,0.0,0.0,0.0,0.0,0.0,0.0,0.0,0.0,0.0,0.0,0.0,0.0,0.0,0.0,0.0,0.0,0.0,0.0,0.0,0.0,0.0,0.0,0.0,0.0,5.3209,5.3209,5.3209,5.3209,5.3209,0.0,0.0,0.0,0.0,0.0,0.0,0.0,0.0,0.0,0.0,0.0,0.0,0.0,0.0,0.0,0.0,0.0,0.0,0.0,0.0,0.0,0.0,0.0,0.0,0.0,0.0,0.0,0.0,0.0,0.0,0.0,0.0,0.0,0.0,0.0,0.0,0.0,0.0,0.0,0.0,0.0,0.0,0.0,0.0,0.0,0.0,0.0,0.0,0.0,0.0,0.0,0.0,0.0,0.0,0.0,0.0,0.0,0.0,0.0,0.0,0.0,0.0,0.0,0.0,0.0,0.0,0.0,0.0,0.0,0.0,0.0,0.0,0.0,0.0,0.0,0.0,0.0,0.0,0.0,0.0,0.0,0.0,0.0,0.0,0.0,0.0,0.0,0.0,0.0,0.0,0.0,0.0,0.0,0.0,0.0,0.0,0.0,0.0,0.0,0.0,0.0,0.0,0.0,0.0,0.0,0.0,0.0,0.0,0.0,0.0,0.0,0.0,5.377,5.366,5.3471,0.0,0.0,0.0,0.0,0.0,0.0,0.0,0.0,0.0,0.0,0.0,0.0,0.0,0.0,0.0,0.0,0.0,0.0,0.0,0.0,0.0,0.0,0.0,0.0,0.0,0.0,0.0,0.0,0.0,0.0,0.0,0.0,0.0,0.0,0.0,0.0,0.0,0.0,0.0,0.0,0.0,0.0,0.0,0.0,0.0,0.0,0.0,0.0,0.0,0.0,0.0,0.0,0.0,0.0,0.0,0.0,0.0,0.0,0.0,0.0,0.0,0.0,0.0,0.0,0.0,0.0,0.0,0.0,0.0,0.0,0.0,0.0,0.0,0.0,0.0,0.0,0.0,0.0,0.0,0.0,0.0,0.0,0.0,0.0,0.0,0.0,0.0,0.0,0.0,0.0,0.0,0.0,0.0,0.0,0.0,0.0,0.0,0.0,0.0,0.0,0.0,0.0,0.0,0.0,0.0,0.0,0.0,0.0,0.0,0.0,5.462,5.5365,5.5365,0.0,5.4331,0.0,0.0,0.0,0.0,0.0,0.0,0.0,0.0,0.0,0.0,0.0,0.0,0.0,0.0,0.0,0.0,0.0,0.0,0.0,0.0,0.0,0.0,0.0,0.0,0.0,0.0,0.0,0.0,0.0,0.0,0.0,0.0,0.0,0.0,0.0,0.0,0.0,0.0,0.0,0.0,0.0,0.0,0.0,0.0,0.0,0.0,0.0,0.0,0.0,0.0,0.0,0.0,0.0,0.0,0.0,0.0,0.0,0.0,0.0,0.0,0.0,0.0,0.0,0.0,0.0,0.0,0.0,0.0,0.0,0.0,0.0,0.0,0.0,0.0,0.0,0.0,0.0,0.0,0.0,0.0,0.0,0.0,0.0,0.0,0.0,0.0,0.0,0.0,0.0,0.0,0.0,0.0,0.0,0.0,0.0,0.0,0.0,0.0,0.0,0.0,0.0,0.0,0.0,0.0,0.0,0.0,0.0,0.0,0.0,0.0,5.5249,5.5585,5.5622,5.5438,0.0,0.0,0.0,0.0,0.0,0.0,0.0,0.0,0.0,0.0,0.0,0.0,0.0,0.0,0.0,0.0,0.0,0.0,0.0,0.0,0.0,0.0,0.0,0.0,0.0,0.0,0.0,0.0,0.0,0.0,0.0,0.0,0.0,0.0,0.0,0.0,0.0,0.0,0.0,0.0,0.0,0.0,0.0,0.0,0.0,0.0,0.0,0.0,0.0,0.0,0.0,0.0,0.0,0.0,0.0,0.0,0.0,0.0,0.0,0.0,0.0,0.0,0.0,0.0,0.0,0.0,0.0,0.0,0.0,0.0,0.0,0.0,0.0,0.0,0.0,0.0,0.0,0.0,0.0,0.0,0.0,0.0,0.0,0.0,0.0,0.0,0.0,0.0,0.0,0.0,0.0,0.0,0.0,0.0,0.0,0.0,0.0,0.0,0.0,0.0,0.0,0.0,0.0,0.0,0.0,0.0,0.0,0.0,0.0,0.0,5.5946,5.602,5.624,5.6062,5.5946,5.591,0.0,0.0,0.0,0.0,0.0,0.0,0.0,0.0,0.0,0.0,0.0,0.0,0.0,0.0,0.0,0.0,0.0,0.0,0.0,0.0,0.0,0.0,0.0,0.0,0.0,0.0,0.0,0.0,0.0,0.0,0.0,0.0,0.0,0.0,0.0,0.0,0.0,0.0,0.0,0.0,0.0,0.0,0.0,0.0,0.0,0.0,0.0,0.0,0.0,0.0,0.0,0.0,0.0,0.0,0.0,0.0,0.0,0.0,0.0,0.0,0.0,0.0,0.0,0.0,0.0,0.0,0.0,0.0,0.0,0.0,0.0,0.0,0.0,0.0,0.0,0.0,0.0,0.0,0.0,0.0,0.0,0.0,0.0,0.0,0.0,0.0,0.0,0.0,0.0,0.0,0.0,0.0,0.0,0.0,0.0,0.0,0.0,0.0,0.0,0.0,0.0,0.0,0.0,0.0,0.0,0.0,0.0,0.0,5.6701,5.6743,5.711,5.7819,5.7147,5.6737,0.0,0.0,0.0,0.0,0.0,0.0,0.0,0.0,0.0,0.0,0.0,0.0,0.0,0.0,0.0,0.0,0.0,0.0,0.0,0.0,0.0,0.0,0.0,0.0,0.0,0.0,0.0,0.0,0.0,0.0,0.0,0.0,0.0,0.0,0.0,0.0,0.0,0.0,0.0,0.0,0.0,0.0,0.0,0.0,0.0,0.0,0.0,0.0,0.0,0.0,0.0,0.0,0.0,0.0,0.0,0.0,0.0,0.0,0.0,0.0,0.0,0.0,0.0,0.0,0.0,0.0,0.0,0.0,0.0,0.0,0.0,0.0,0.0,0.0,0.0,0.0,0.0,0.0,0.0,0.0,0.0,0.0,0.0,0.0,0.0,0.0,0.0,0.0,0.0,0.0,0.0,0.0,0.0,0.0,0.0,0.0,0.0,0.0,0.0,0.0,0.0,0.0,0.0,0.0,0.0,0.0,0.0,0.0,0.0,5.7556,5.7556,5.7703,5.7966,5.7703,5.7556,0.0,0.0,0.0,0.0,0.0,0.0,0.0,0.0,0.0,0.0,0.0,0.0,0.0,0.0,0.0,0.0,0.0,0.0,0.0,0.0,0.0,0.0,0.0,0.0,0.0,0.0,0.0,0.0,0.0,0.0,0.0,0.0,0.0,0.0,0.0,0.0,0.0,0.0,0.0,0.0,0.0,0.0,0.0,0.0,0.0,0.0,0.0,0.0,0.0,0.0,0.0,0.0,0.0,0.0,0.0,0.0,0.0,0.0,0.0,0.0,0.0,0.0,0.0,0.0,0.0,0.0,0.0,0.0,0.0,0.0,0.0,0.0,0.0,0.0,0.0,0.0,0.0,0.0,0.0,0.0,0.0,0.0,0.0,0.0,0.0,0.0,0.0,0.0,0.0,0.0,0.0,0.0,0.0,0.0,0.0,0.0,0.0,0.0,0.0,0.0,0.0,0.0,0.0,0.0,0.0,0.0,0.0,0.0,0.0,5.8002,0.0,5.8002,5.8002,5.8002,5.8002,0.0,0.0,0.0,0.0,0.0,0.0,0.0,0.0,0.0,0.0,0.0,0.0,0.0,0.0,0.0,0.0,0.0,0.0,0.0,0.0,0.0,0.0,0.0,0.0,0.0,0.0,0.0,0.0,0.0,0.0,0.0,0.0,0.0,0.0,0.0,0.0,0.0,0.0,0.0,0.0,0.0,0.0,0.0,0.0,0.0,0.0,0.0,0.0,0.0,0.0,0.0,0.0,0.0,0.0,0.0,0.0,0.0,0.0,0.0,0.0,0.0,0.0,0.0,0.0,0.0,0.0,0.0,0.0,0.0,0.0,0.0,0.0,0.0,0.0,0.0,0.0,0.0,0.0,0.0,0.0,0.0,0.0,0.0,0.0,0.0,0.0,0.0,0.0,0.0,0.0,0.0,0.0,0.0,0.0,0.0,0.0,0.0,0.0,0.0,0.0,0.0,0.0,0.0,0.0,0.0,0.0,0.0,0.0,5.8002,5.8002,5.8002,5.8002,5.8002,5.8002,5.8002,0.0,0.0,0.0,0.0,0.0,0.0,0.0,0.0,0.0,0.0,0.0,0.0,0.0,0.0,0.0,0.0,0.0,0.0,0.0,0.0,0.0,0.0,0.0,0.0,0.0,0.0,0.0,0.0,0.0,0.0,0.0,0.0,0.0,0.0,0.0,0.0,0.0,0.0,0.0,0.0,0.0,0.0,0.0,0.0,0.0,0.0,0.0,0.0,0.0,0.0,0.0,0.0,0.0,0.0,0.0,0.0,0.0,0.0,0.0,0.0,0.0,0.0,0.0,0.0,0.0,0.0,0.0,0.0,0.0,0.0,0.0,0.0,0.0,0.0,0.0,0.0,0.0,0.0,0.0,0.0,0.0,0.0,0.0,0.0,0.0,0.0,0.0,0.0,0.0,0.0,0.0,0.0,0.0,0.0,0.0,0.0,0.0,0.0,0.0,0.0,0.0,0.0,0.0,0.0,0.0,0.0,0.0,0.0,0.0,5.8002,5.8002,5.8002,5.8002,5.8002,5.8002,0.0,0.0,0.0,0.0,0.0,0.0,0.0,0.0,0.0,0.0,0.0,0.0,0.0,0.0,0.0,0.0,0.0,0.0,0.0,0.0,0.0,0.0,0.0,0.0,0.0,0.0,0.0,0.0,0.0,0.0,0.0,0.0,0.0,0.0,0.0,0.0,0.0,0.0,0.0,0.0,0.0,0.0,0.0,0.0,0.0,0.0,0.0,0.0,0.0,0.0,0.0,0.0,0.0,0.0,0.0,0.0,0.0,0.0,0.0,0.0,0.0,0.0,0.0,0.0,0.0,0.0,0.0,0.0,0.0,0.0,0.0,0.0,0.0,0.0,0.0,0.0,0.0,0.0,0.0,0.0,0.0,0.0,0.0,0.0,0.0,0.0,0.0,0.0,0.0,0.0,0.0,0.0,0.0,0.0,0.0,0.0,0.0,0.0,0.0,0.0,0.0,0.0,0.0,0.0,0.0,0.0,0.0,0.0,0.0,5.8002,5.8002,5.8002,5.8002,5.8002,5.8002,5.8002,0.0,0.0,0.0,0.0,0.0,0.0,0.0,0.0,0.0,0.0,0.0,0.0,0.0,0.0,0.0,0.0,0.0,0.0,0.0,0.0,0.0,0.0,0.0,0.0,0.0,0.0,0.0,0.0,0.0,0.0,0.0,0.0,0.0,0.0,0.0,0.0,0.0,0.0,0.0,0.0,0.0,0.0,0.0,0.0,0.0,0.0,0.0,0.0,0.0,0.0,0.0,0.0,0.0,0.0,0.0,0.0,0.0,0.0,0.0,0.0,0.0,0.0,0.0,0.0,0.0,0.0,0.0,0.0,0.0,0.0,0.0,0.0,0.0,0.0,0.0,0.0,0.0,0.0,0.0,0.0,0.0,0.0,0.0,0.0,0.0,0.0,0.0,0.0,0.0,0.0,0.0,0.0,0.0,0.0,0.0,0.0,0.0,0.0,0.0,0.0,0.0,0.0,0.0,0.0,0.0,0.0,0.0,0.0,5.8002,5.8002,5.8002,5.8002,5.8002,5.8002,0.0,0.0,0.0,0.0,0.0,0.0,0.0,0.0,0.0,0.0,0.0,0.0,0.0,0.0,0.0,0.0,0.0,0.0,0.0,0.0,0.0,0.0,0.0,0.0,0.0,0.0,0.0,0.0,0.0,0.0,0.0,0.0,0.0,0.0,0.0,0.0,0.0,0.0,0.0,0.0,0.0,0.0,0.0,0.0,0.0,0.0,0.0,0.0,0.0,0.0,0.0,0.0,0.0,0.0,0.0,0.0,0.0,0.0,0.0,0.0,0.0,0.0,0.0,0.0,0.0,0.0,0.0,0.0,0.0,0.0,0.0,0.0,0.0,0.0,0.0,0.0,0.0,0.0,0.0,0.0,0.0,0.0,0.0,0.0,0.0,0.0,0.0,0.0,0.0,0.0,0.0,0.0,0.0,0.0,0.0,0.0,0.0,0.0,0.0,0.0,0.0,0.0,0.0,0.0,0.0,0.0,0.0,0.0,0.0,5.8002,5.8002,5.8002,5.8002,5.8002,5.8002,0.0,0.0,0.0,0.0,0.0,0.0,0.0,0.0,0.0,0.0,0.0,0.0,0.0,0.0,0.0,0.0,0.0,0.0,0.0,0.0,0.0,0.0,0.0,0.0,0.0,0.0,0.0,0.0,0.0,0.0,0.0,0.0,0.0,0.0,0.0,0.0,0.0,0.0,0.0,0.0,0.0,0.0,0.0,0.0,0.0,0.0,0.0,0.0,0.0,0.0,0.0,0.0,0.0,0.0,0.0,0.0,0.0,0.0,0.0,0.0,0.0,0.0,0.0,0.0,0.0,0.0,0.0,0.0,0.0,0.0,0.0,0.0,0.0,0.0,0.0,0.0,0.0,0.0,0.0,0.0,0.0,0.0,0.0,0.0,0.0,0.0,0.0,0.0,0.0,0.0,0.0,0.0,0.0,0.0,0.0,0.0,0.0,0.0,0.0,0.0,0.0,0.0,0.0,0.0,0.0,0.0,0.0,0.0,5.8002,5.8002,5.8002,5.8002,5.8002,5.8002,5.8002,0.0,0.0,0.0,0.0,0.0,0.0,0.0,0.0,0.0,0.0,0.0,0.0,0.0,0.0,0.0,0.0,0.0,0.0,0.0,0.0,0.0,0.0,0.0,0.0,0.0,0.0,0.0,0.0,0.0,0.0,0.0,0.0,0.0,0.0,0.0,0.0,0.0,0.0,0.0,0.0,0.0,0.0,0.0,0.0,0.0,0.0,0.0,0.0,0.0,0.0,0.0,0.0,0.0,0.0,0.0,0.0,0.0,0.0,0.0,0.0,0.0,0.0,0.0,0.0,0.0,0.0,0.0,0.0,0.0,0.0,0.0,0.0,0.0,0.0,0.0,0.0,0.0,0.0,0.0,0.0,0.0,0.0,0.0,0.0,0.0,0.0,0.0,0.0,0.0,0.0,0.0,0.0,0.0,0.0,0.0,0.0,0.0,0.0,0.0,0.0,0.0,0.0,0.0,0.0,0.0,0.0,0.0,0.0,5.8002,5.8002,5.8002,5.8002,5.8002,5.8002,5.8002,0.0,0.0,0.0,0.0,0.0,0.0,0.0,0.0,0.0,0.0,0.0,0.0,0.0,0.0,0.0,0.0,0.0,0.0,0.0,0.0,0.0,0.0,0.0,0.0,0.0,0.0,0.0,0.0,0.0,0.0,0.0,0.0,0.0,0.0,0.0,0.0,0.0,0.0,0.0,0.0,0.0,0.0,0.0,0.0,0.0,0.0,0.0,0.0,0.0,0.0,0.0,0.0,0.0,0.0,0.0,0.0,0.0,0.0,0.0,0.0,0.0,0.0,0.0,0.0,0.0,0.0,0.0,0.0,0.0,0.0,0.0,0.0,0.0,0.0,0.0,0.0,0.0,0.0,0.0,0.0,0.0,0.0,0.0,0.0,0.0,0.0,0.0,0.0,0.0,0.0,0.0,0.0,0.0,0.0,0.0,0.0,0.0,0.0,0.0,0.0,0.0,0.0,0.0,0.0,0.0,0.0,0.0,0.0,5.8002,5.8002,5.8002,5.8002,5.8002,5.8002,5.8002,0.0,0.0,0.0,0.0,0.0,0.0,0.0,0.0,0.0,0.0,0.0,0.0,0.0,0.0,0.0,0.0,0.0,0.0,0.0,0.0,0.0,0.0,0.0,0.0,0.0,0.0,0.0,0.0,0.0,0.0,0.0,0.0,0.0,0.0,0.0,0.0,0.0,0.0,0.0,0.0,0.0,0.0,0.0,0.0,0.0,0.0,0.0,0.0,5.8002,0.0,0.0,0.0,0.0,0.0,0.0,0.0,0.0,0.0,0.0,0.0,0.0,0.0,0.0,0.0,0.0,0.0,0.0,0.0,0.0,0.0,0.0,0.0,0.0,0.0,0.0,0.0,0.0,0.0,0.0,0.0,0.0,0.0,0.0,0.0,0.0,0.0,0.0,0.0,0.0,0.0,0.0,0.0,0.0,0.0,0.0,0.0,0.0,0.0,0.0,0.0,0.0,0.0,0.0,0.0,0.0,0.0,0.0,0.0,5.8002,5.8002,5.8002,5.8002,5.8002,5.8002,5.8002,0.0,0.0,0.0,0.0,0.0,0.0,0.0,0.0,0.0,0.0,0.0,0.0,0.0,0.0,0.0,0.0,0.0,0.0,0.0,0.0,0.0,0.0,0.0,0.0,0.0,0.0,0.0,0.0,0.0,0.0,0.0,0.0,0.0,0.0,0.0,0.0,0.0,0.0,0.0,0.0,0.0,0.0,0.0,0.0,0.0,0.0,0.0,0.0,0.0,0.0,0.0,0.0,0.0,0.0,0.0,0.0,0.0,0.0,0.0,0.0,0.0,0.0,0.0,0.0,0.0,0.0,0.0,0.0,0.0,0.0,0.0,0.0,0.0,0.0,0.0,0.0,0.0,0.0,0.0,0.0,0.0,0.0,0.0,0.0,0.0,0.0,0.0,0.0,0.0,0.0,0.0,0.0,0.0,0.0,0.0,0.0,0.0,0.0,0.0,0.0,0.0,0.0,0.0,0.0,0.0,0.0,0.0,5.8002,5.8002,5.8002,5.8002,5.8002,5.8002,5.8002,5.8002,5.8002,0.0,0.0,0.0,0.0,0.0,0.0,0.0,0.0,0.0,0.0,0.0,0.0,0.0,0.0,0.0,0.0,0.0,0.0,0.0,0.0,0.0,0.0,0.0,0.0,0.0,0.0,0.0,0.0,0.0,0.0,0.0,0.0,0.0,0.0,0.0,0.0,0.0,0.0,5.8002,5.8002,0.0,0.0,0.0,0.0,0.0,0.0,0.0,0.0,5.8002,0.0,0.0,0.0,0.0,0.0,0.0,0.0,0.0,0.0,0.0,0.0,0.0,0.0,0.0,0.0,0.0,0.0,0.0,0.0,0.0,0.0,0.0,0.0,0.0,0.0,0.0,0.0,0.0,0.0,0.0,0.0,0.0,0.0,0.0,0.0,0.0,0.0,0.0,0.0,0.0,0.0,0.0,0.0,0.0,0.0,0.0,0.0,0.0,0.0,0.0,0.0,0.0,0.0,0.0,0.0,0.0,5.8002,5.8002,5.8002,5.8002,5.8002,5.8002,5.8002,5.8002,5.8002,5.8002,0.0,0.0,0.0,0.0,0.0,0.0,0.0,0.0,0.0,0.0,0.0,0.0,0.0,0.0,0.0,0.0,0.0,0.0,0.0,0.0,0.0,0.0,0.0,0.0,0.0,0.0,0.0,0.0,0.0,0.0,0.0,0.0,0.0,0.0,0.0,0.0,0.0,0.0,0.0,5.8002,5.8002,0.0,0.0,0.0,0.0,0.0,0.0,0.0,0.0,5.8002,0.0,0.0,0.0,0.0,0.0,0.0,0.0,0.0,0.0,0.0,0.0,0.0,0.0,0.0,0.0,0.0,0.0,0.0,0.0,0.0,0.0,0.0,0.0,0.0,0.0,0.0,0.0,0.0,0.0,0.0,0.0,0.0,0.0,0.0,0.0,0.0,0.0,0.0,0.0,0.0,0.0,0.0,0.0,0.0,0.0,0.0,0.0,0.0,0.0,0.0,0.0,0.0,0.0,0.0,0.0,5.8002,5.8002,5.8002,5.8002,5.8002,5.8002,5.7997,5.7643,5.7619,0.0,0.0,0.0,0.0,0.0,0.0,0.0,0.0,0.0,0.0,0.0,0.0,0.0,0.0,0.0,0.0,0.0,0.0,0.0,0.0,0.0,0.0,0.0,0.0,0.0,0.0,0.0,0.0,0.0,0.0,0.0,0.0,0.0,0.0,0.0,0.0,0.0,0.0,0.0,0.0,5.8002,5.8002,5.8002,0.0,0.0,0.0,0.0,0.0,0.0,5.8002,5.8002,0.0,0.0,0.0,0.0,0.0,0.0,0.0,0.0,0.0,0.0,0.0,0.0,0.0,0.0,0.0,0.0,0.0,0.0,0.0,0.0,0.0,0.0,0.0,0.0,0.0,0.0,0.0,0.0,0.0,0.0,0.0,0.0,0.0,0.0,0.0,0.0,0.0,0.0,0.0,0.0,0.0,0.0,0.0,0.0,0.0,0.0,0.0,0.0,0.0,0.0,0.0,0.0,0.0,0.0,0.0,5.8002,5.8002,5.8,5.7987,5.7975,5.8091,5.8231,5.7378,5.7331,0.0,0.0,0.0,0.0,0.0,0.0,0.0,0.0,0.0,0.0,0.0,0.0,0.0,0.0,0.0,0.0,0.0,0.0,0.0,0.0,0.0,0.0,0.0,0.0,0.0,0.0,0.0,0.0,0.0,0.0,0.0,0.0,0.0,0.0,0.0,0.0,0.0,0.0,0.0,0.0,0.0,5.8002,5.8002,5.8002,0.0,0.0,0.0,0.0,5.8002,5.8002,0.0,0.0,0.0,0.0,0.0,0.0,0.0,0.0,0.0,0.0,0.0,0.0,0.0,0.0,0.0,0.0,0.0,0.0,0.0,0.0,0.0,0.0,0.0,0.0,0.0,0.0,0.0,0.0,0.0,0.0,0.0,0.0,0.0,0.0,0.0,0.0,0.0,0.0,0.0,0.0,0.0,0.0,0.0,0.0,0.0,0.0,0.0,0.0,0.0,0.0,0.0,0.0,0.0,0.0,0.0,0.0,5.8002,5.8002,5.8001,5.7984,5.7981,5.8356,5.9013,5.7602,5.7512,0.0,0.0,0.0,0.0,0.0,0.0,0.0,0.0,0.0,0.0,0.0,0.0,0.0,0.0,0.0,0.0,0.0,0.0,0.0,0.0,0.0,0.0,0.0,0.0,0.0,0.0,0.0,0.0,0.0,0.0,0.0,0.0,0.0,0.0,0.0,0.0,0.0,0.0,0.0,0.0,0.0,5.8002,5.8002,5.8002,5.8002,0.0,0.0,5.8002,5.8002,5.8002,0.0,0.0,0.0,0.0,0.0,0.0,0.0,0.0,0.0,0.0,0.0,0.0,0.0,0.0,0.0,0.0,0.0,0.0,0.0,0.0,0.0,0.0,0.0,0.0,0.0,0.0,0.0,0.0,0.0,0.0,0.0,0.0,0.0,0.0,0.0,0.0,0.0,0.0,0.0,0.0,0.0,0.0,0.0,0.0,0.0,0.0,0.0,0.0,0.0,0.0,0.0,0.0,0.0,0.0,0.0,5.8672,5.8653,5.8218,5.798,5.7982,5.7975,5.816,5.8488,5.7387,5.733,0.0,0.0,0.0,0.0,0.0,0.0,0.0,0.0,0.0,0.0,0.0,0.0,0.0,0.0,0.0,0.0,0.0,0.0,0.0,0.0,0.0,0.0,0.0,0.0,0.0,0.0,0.0,0.0,0.0,0.0,0.0,0.0,0.0,0.0,0.0,0.0,0.0,0.0,0.0,0.0,0.0,0.0,5.7437,5.7726,0.0,0.0,0.0,5.8537,5.8054,0.0,0.0,0.0,0.0,0.0,0.0,0.0,0.0,0.0,0.0,0.0,0.0,0.0,0.0,0.0,0.0,0.0,0.0,0.0,0.0,0.0,0.0,0.0,0.0,0.0,0.0,0.0,0.0,0.0,0.0,0.0,0.0,0.0,0.0,0.0,0.0,0.0,0.0,0.0,0.0,0.0,0.0,0.0,0.0,0.0,0.0,0.0,0.0,0.0,0.0,0.0,0.0,0.0,0.0,0.0,0.0,0.0,5.9182,5.8424,5.8,5.7979,5.7979,5.8085,5.8261,5.7313,0.0,0.0,0.0,0.0,0.0,0.0,0.0,0.0,0.0,0.0,0.0,0.0,0.0,0.0,0.0,0.0,0.0,0.0,0.0,0.0,0.0,0.0,0.0,0.0,0.0,0.0,0.0,5.8002,0.0,0.0,0.0,0.0,0.0,0.0,0.0,0.0,0.0,0.0,0.0,0.0,0.0,0.0,5.7728,5.7018,5.7536,5.781,0.0,0.0,5.8714,5.8078,5.8517,5.8742,0.0,0.0,0.0,0.0,0.0,0.0,0.0,0.0,0.0,0.0,0.0,0.0,0.0,0.0,0.0,0.0,0.0,0.0,0.0,0.0,0.0,0.0,0.0,0.0,0.0,0.0,0.0,0.0,0.0,0.0,0.0,0.0,0.0,0.0,0.0,0.0,0.0,0.0,0.0,0.0,0.0,0.0,0.0,0.0,0.0,0.0,0.0,0.0,0.0,0.0,0.0,0.0,0.0,0.0,0.0,5.9168,5.8416,5.7957,5.7915,5.7908,5.8253,5.8988,5.7576,5.7543,0.0,0.0,0.0,0.0,0.0,0.0,0.0,0.0,0.0,0.0,0.0,0.0,0.0,0.0,0.0,0.0,0.0,0.0,0.0,0.0,0.0,0.0,0.0,0.0,0.0,0.0,0.0,0.0,0.0,0.0,0.0,0.0,0.0,0.0,0.0,0.0,0.0,0.0,0.0,0.0,0.0,5.772,5.7007,5.7509,5.7983,0.0,0.0,5.8047,5.8007,5.8072,5.8315,5.8999,0.0,0.0,0.0,0.0,0.0,0.0,0.0,0.0,0.0,0.0,0.0,0.0,0.0,0.0,0.0,0.0,0.0,0.0,0.0,0.0,0.0,0.0,0.0,0.0,0.0,0.0,0.0,0.0,0.0,0.0,0.0,0.0,0.0,0.0,0.0,0.0,0.0,0.0,0.0,0.0,0.0,0.0,0.0,0.0,0.0,0.0,0.0,0.0,0.0,0.0,0.0,0.0,0.0,5.9936,5.9921,5.8647,5.7921,5.7891,5.7907,5.8027,5.8327,5.7775,5.7748,0.0,0.0,0.0,0.0,0.0,0.0,0.0,0.0,0.0,0.0,0.0,0.0,0.0,0.0,0.0,0.0,0.0,0.0,0.0,0.0,0.0,0.0,0.0,0.0,0.0,0.0,0.0,0.0,5.8002,5.8002,5.8002,0.0,0.0,0.0,0.0,0.0,0.0,0.0,0.0,0.0,0.0,5.7723,5.6958,5.7495,0.0,0.0,5.8089,5.8569,5.8037,5.837,5.8585,5.8434,5.8652,0.0,0.0,0.0,0.0,0.0,0.0,0.0,0.0,0.0,0.0,0.0,0.0,0.0,0.0,0.0,0.0,0.0,0.0,0.0,0.0,0.0,0.0,0.0,0.0,0.0,0.0,0.0,0.0,0.0,0.0,0.0,0.0,0.0,0.0,0.0,0.0,0.0,0.0,0.0,0.0,0.0,0.0,0.0,0.0,0.0,0.0,0.0,0.0,0.0,0.0,0.0,0.0,6.0007,6.0007,5.8599,5.79,5.79,5.79,5.79,5.79,5.79,5.79,0.0,0.0,0.0,0.0,0.0,0.0,0.0,0.0,0.0,0.0,0.0,0.0,0.0,0.0,0.0,0.0,0.0,0.0,0.0,0.0,0.0,0.0,0.0,0.0,0.0,0.0,0.0,0.0,5.8217,5.8431,5.8694,0.0,0.0,0.0,0.0,0.0,0.0,0.0,0.0,0.0,0.0,5.77,5.6928,5.7478,5.7776,5.7215,5.809,5.8649,5.8285,5.8711,5.9037,5.8956,0.0,0.0,0.0,0.0,0.0,0.0,0.0,0.0,0.0,0.0,0.0,0.0,0.0,0.0,0.0,0.0,0.0,0.0,0.0,0.0,0.0,0.0,0.0,0.0,0.0,0.0,0.0,0.0,0.0,0.0,0.0,0.0,0.0,0.0,0.0,0.0,0.0,0.0,0.0,0.0,0.0,0.0,0.0,0.0,0.0,0.0,0.0,0.0,0.0,0.0,0.0,0.0,0.0,5.9171,5.9119,5.8394,5.7924,5.7924,5.79,5.7924,5.7967,5.7924,5.7924,5.7934,0.0,0.0,0.0,0.0,0.0,0.0,0.0,0.0,0.0,0.0,0.0,0.0,0.0,0.0,0.0,0.0,0.0,0.0,0.0,0.0,0.0,0.0,0.0,0.0,0.0,0.0,5.8039,5.8719,5.9453,0.0,0.0,0.0,0.0,0.0,0.0,0.0,0.0,0.0,0.0,5.7433,5.7619,5.6934,5.7437,5.7923,5.7857,5.7954,5.8225,5.8896,5.9007,5.9524,0.0,0.0,0.0,0.0,0.0,0.0,0.0,0.0,0.0,0.0,0.0,0.0,0.0,0.0,0.0,0.0,0.0,0.0,0.0,0.0,0.0,0.0,0.0,0.0,0.0,0.0,0.0,5.6318,5.6198,0.0,0.0,0.0,0.0,0.0,0.0,0.0,0.0,0.0,0.0,0.0,5.7581,5.6838,0.0,0.0,0.0,0.0,0.0,0.0,0.0,0.0,0.0,0.0,0.0,0.0,6.0627,6.0584,5.9791,5.937,5.9379,5.937,5.937,5.937,5.937,5.9133,5.866,0.0,0.0,0.0,0.0,0.0,0.0,0.0,0.0,0.0,0.0,0.0,0.0,0.0,0.0,0.0,0.0,0.0,0.0,0.0,0.0,0.0,0.0,0.0,0.0,0.0,5.9606,0.0,0.0,0.0,0.0,0.0,0.0,0.0,0.0,0.0,0.0,0.0,5.814,5.7605,5.7732,5.7807,5.7555,5.8152,5.8616,0.0,0.0,0.0,0.0,0.0,0.0,0.0,0.0,0.0,0.0,0.0,0.0,0.0,0.0,5.955,6.0068,6.0166,6.0335,6.0839,0.0,0.0,0.0,0.0,0.0,0.0,0.0,0.0,0.0,0.0,0.0,0.0,0.0,0.0,0.0,0.0,5.6828,0.0,0.0,0.0,0.0,0.0,0.0,0.0,0.0,5.6354,5.6621,5.754,5.679,5.6726,0.0,5.7448,5.7831,0.0,0.0,0.0,0.0,0.0,0.0,0.0,0.0,6.0935,6.0908,6.0399,6.008,6.008,6.008,6.008,6.008,6.008,5.9868,5.9428,5.9394,5.9158,0.0,0.0,0.0,0.0,0.0,0.0,0.0,0.0,0.0,0.0,0.0,0.0,0.0,0.0,0.0,0.0,0.0,0.0,0.0,0.0,0.0,0.0,0.0,6.01,0.0,0.0,0.0,0.0,0.0,0.0,0.0,0.0,0.0,5.9306,5.8682,5.8295,5.8273,5.8302,5.8355,5.8626,0.0,0.0,0.0,0.0,0.0,0.0,0.0,6.0588,6.0858,6.0902,6.0892,6.0892,6.0892,6.0902,6.0892,0.0,0.0,6.0622,6.052,6.0597,6.0868,6.052,6.0308,6.0791,6.052,6.0317,0.0,0.0,0.0,0.0,0.0,0.0,0.0,0.0,5.6212,5.64,0.0,5.7243,0.0,0.0,0.0,0.0,0.0,0.0,0.0,0.0,5.6814,5.6867,5.6961,5.7638,5.7958,5.8026,5.8693,5.9032,5.9007,5.834,0.0,0.0,0.0,0.0,0.0,0.0,6.0182,6.0278,6.0327,6.025,6.0317,6.0283,6.025,6.024,6.025,6.0216,6.0148,6.0148,6.0105,6.008,6.009,0.0,0.0,0.0,0.0,0.0,0.0,0.0,0.0,0.0,0.0,0.0,0.0,0.0,0.0,0.0,0.0,0.0,0.0,0.0,0.0,5.9213,0.0,0.0,0.0,0.0,0.0,0.0,0.0,0.0,0.0,0.0,5.9353,5.919,5.9107,5.905,0.0,0.0,0.0,0.0,6.0148,6.0148,6.0182,6.052,6.1264,6.139,6.167,6.2347,0.0,0.0,6.2468,6.2458,6.2448,6.2458,6.3024,6.3081,6.1694,6.1501,6.167,6.2323,6.2424,6.2458,6.2458,6.2415,6.2424,5.5056,0.0,0.0,0.0,0.0,5.5409,5.5375,5.5426,5.5841,5.591,5.5766,5.6725,0.0,0.0,0.0,0.0,0.0,0.0,5.6793,5.6839,5.7364,5.7848,5.8371,5.9133,5.9471,5.9471,5.9674,5.9766,5.9766,5.9582,5.9573,5.98,0.0,0.0,0.0,0.0,6.254,6.254,6.3057,6.3328,6.3328,6.3294,6.3047,6.253,6.254,6.2033,6.0994,6.096,6.0689,6.0148,6.008,0.0,0.0,0.0,0.0,0.0,0.0,0.0,0.0,0.0,0.0,0.0,0.0,0.0,0.0,0.0,0.0,0.0,0.0,0.0,6.0063,5.9482,5.9472,0.0,0.0,0.0,0.0,0.0,0.0,0.0,0.0,0.0,5.9946,5.9811,5.9803,0.0,0.0,5.9868,6.008,6.0588,6.096,6.096,0.0,0.0,0.0,6.3328,6.3734,6.3937,6.3971,6.3971,6.3971,6.3971,6.3971,6.3971,6.413,6.414,6.3758,6.3656,6.3734,6.3903,6.3971,6.3971,6.3971,6.3971,6.3937,5.7466,5.7322,5.6206,5.5699,5.5699,5.5699,5.5699,5.5733,5.6003,5.6147,5.6174,5.6918,5.7218,5.7278,5.8048,0.0,0.0,0.0,5.8121,5.8118,5.8567,5.9007,5.9462,6.0206,6.0588,6.0622,6.1153,6.1424,6.1458,6.1738,6.1873,6.1864,0.0,0.0,6.2618,6.3497,6.3927,6.3961,6.4367,6.4613,6.4613,6.4613,6.441,6.3961,6.3927,6.3386,6.2236,6.2168,6.1796,6.1028,6.0994,6.0858,0.0,0.0,0.0,0.0,0.0,0.0,0.0,0.0,0.0,0.0,0.0,5.9878,0.0,0.0,0.0,0.0,6.0092,5.9892,5.9861,5.9689,0.0,0.0,0.0,0.0,0.0,0.0,0.0,6.0248,6.0879,6.1167,6.0664,6.1086,6.1264,6.0655,6.0825,6.1129,6.139,0.0,6.2618,6.2618,6.3352,6.3927,6.3961,6.4299,6.4613,6.4613,6.4613,6.4613,6.4613,6.4613,6.4613,6.4613,6.4816,6.5019,6.503,6.5246,6.5246,6.4715,6.4613,6.4613,6.4613,6.4613,6.4613,6.0216,5.9945,5.7187,5.6071,5.6037,5.6037,5.608,5.6105,5.679,5.707,5.7103,5.778,5.806,5.8127,5.8786,0.0,0.0,5.9877,6.0157,6.0216,6.0317,6.0351,6.0419,6.1197,6.1569,6.1603,6.2946,6.3589,6.3622,6.4241,6.4613,6.4647,6.3328,6.3304,6.4546,6.4637,6.4681,6.4681,6.4749,6.4783,6.4783,6.4772,6.4749,6.4691,6.4681,6.4343,6.3622,6.3589,6.325,6.2526,6.2492,6.2144,6.1424,0.0,0.0,0.0,0.0,0.0,0.0,0.0,0.0,0.0,0.0,0.0,0.0,0.0,0.0,0.0,5.9675,0.0,5.9097,5.9824,0.0,0.0,0.0,6.2139,6.1457,6.1404,6.1118,6.0455,0.0,0.0,0.0,0.0,6.3081,6.1738,6.2154,6.2821,6.3487,6.4106,6.4613,6.4488,6.4613,6.4681,6.4681,6.4816,6.4918,6.4918,6.4749,6.485,6.4884,6.485,6.4816,6.4884,6.5324,6.5774,6.5764,6.6305,6.6362,6.5087,6.485,6.4816,6.4884,6.4918,6.4918,6.1028,6.0892,5.9607,5.9056,5.9056,5.9056,5.9066,5.909,5.9235,5.9312,5.9327,5.9505,5.9573,5.9573,5.9776,5.9844,5.9868,6.0646,6.1028,6.1095,6.2168,6.2699,6.2743,6.3463,6.3792,6.3835,6.4174,6.4333,6.4333,6.4512,6.4894,6.5402,6.5097,6.4827,6.4647,6.5165,6.5436,6.5446,6.6,6.6261,6.6261,6.6294,6.599,6.5436,6.5436,6.5097,6.4377,6.4333,6.4005,6.3284,6.325,6.2878,6.2188,6.1603,0.0,0.0,0.0,0.0,0.0,0.0,0.0,0.0,0.0,6.0605,6.1196,0.0,6.0551,0.0,6.0359,5.9849,5.9829,6.0025,0.0,0.0,6.0597,6.0882,6.1263,6.1337,6.165,6.2603,6.2844,6.3183,6.3768,6.4106,6.4208,6.3869,6.3981,6.414,6.4343,6.4478,6.4613,6.4681,6.5097,6.5436,6.5469,6.5933,6.6227,6.6294,6.6261,6.6261,6.6261,6.6305,6.6305,6.6294,6.6406,6.6542,6.6565,6.669,6.6734,6.6362,6.6261,6.6294,6.6294,6.6261,6.6261,6.2777,6.2753,6.2279,6.211,6.1999,6.0655,6.008,6.0114,6.0486,6.0622,6.0655,6.0994,6.1129,6.1139,6.1467,6.1603,6.1661,6.2415,6.2753,6.2821,6.3589,6.3994,6.4028,6.4749,6.5087,6.5087,6.5415,6.5584,6.5584,6.5584,6.5797,6.6214,6.6203,6.617,6.6068,6.617,6.617,6.6203,6.6565,6.6802,6.6802,6.6802,6.6599,6.6203,6.6203,6.5865,6.5121,6.5097,6.4749,6.4038,6.3994,6.3792,6.3396,6.2685,6.2269,0.0,0.0,0.0,0.0,0.0,0.0,0.0,0.0,0.0,0.0,0.0,6.0363,0.0,0.0,0.0,6.0622,6.0655,6.0892,6.1559,6.1627,6.1897,6.2685,6.2753,6.3081,6.3893,6.3994,6.413,6.4546,6.4884,6.5087,6.5087,6.5347,6.5459,6.5189,6.5358,6.5595,6.5584,6.5922,6.6203,6.617,6.6531,6.6802,6.6802,6.6802,6.6903,6.7208,6.7275,6.7377,6.7749,6.7817,6.7817,6.7817,6.7817,6.7817,6.7817,6.7817,6.7681,6.7387,6.759,6.7817,6.4739,6.4715,6.4637,6.4613,6.441,6.1772,6.068,6.0723,6.1434,6.1738,6.1772,6.2391,6.2695,6.2729,6.3362,6.3646,6.369,6.441,6.4749,6.4739,6.485,6.4884,6.4918,6.5537,6.5842,6.5876,6.6609,6.6937,6.6937,6.7039,6.7106,6.7096,6.7106,6.7411,6.7996,6.7411,6.7096,6.7106,6.7106,6.7039,6.6937,6.6937,6.6893,6.6802,6.6802,6.6497,6.5876,6.5842,6.5493,6.4783,6.4749,6.4681,6.458,6.3994,6.3646,0.0,6.3057,0.0,0.0,0.0,0.0,0.0,0.0,0.0,0.0,6.0317,6.0419,6.052,6.0554,6.0858,6.167,6.1738,6.2245,6.3477,6.3656,6.3893,6.4512,6.4613,6.4613,6.4725,6.4749,6.4749,6.4952,6.5469,6.5842,6.6045,6.6508,6.6745,6.6349,6.6609,6.6869,6.6937,6.7028,6.7184,6.7174,6.714,6.7174,6.714,6.7197,6.7309,6.7952,6.8064,6.8267,6.8876,6.8977,6.9011,6.9079,6.9045,6.9045,6.8977,6.918,6.9068,6.8335,6.8504,6.9079,6.5514,6.5436,6.485,6.4613,6.4546,6.4005,6.3734,6.3768,6.3893,6.3971,6.4005,6.414,6.4208,6.4208,6.4343,6.44,6.441,6.5165,6.5503,6.5503,6.6102,6.6396,6.6396,6.6531,6.6599,6.6633,6.7354,6.7692,6.7726,6.8368,6.8662,6.8662,6.8673,6.873,0.0,0.0,0.0,0.0,6.8662,6.8324,6.7726,6.7681,6.7411,6.6836,6.6802,0.0,6.6599,6.6599,6.6237,6.5537,6.5503,0.0,0.0,0.0,0.0,0.0,0.0,0.0,0.0,0.0,0.0,0.0,6.3666,6.3024,6.1255,6.1603,6.2212,6.2767,6.2868,6.3183,6.3903,6.3971,6.4106,6.4333,6.44,6.4478,6.458,6.4613,6.4816,6.5436,6.5503,6.573,6.6305,6.6531,6.6846,6.7354,6.759,6.7895,6.8335,6.7963,6.7692,6.7726,6.8155,6.8605,6.8673,6.8605,6.8527,6.8662,6.8673,6.8696,6.8842,6.891,6.8921,6.9214,6.9079,6.918,6.918,6.9079,6.9282,6.9113,7.0083,7.0489,6.9169,6.9011,6.9079,6.6237,0.0,6.5821,6.5696,0.0,6.5686,6.5696,6.5652,6.53,6.5324,6.5696,6.5686,6.5686,6.5686,6.5686,6.5686,6.5686,6.6058,6.644,6.6823,6.7184,6.7546,6.7952,6.7952,6.7918,6.7952,6.8301,6.8504,6.8504,6.891,6.9079,6.9079,6.9079,6.9282,6.9654,6.9992,6.9846,6.9113,6.9079,6.891,6.8504,6.8504,6.8335,6.7952,0.0,0.0,0.0,0.0,0.0,0.0,0.0,0.0,0.0,0.0,0.0,6.5121,6.4783,6.4613,6.4613,6.4613,6.4613,6.4613,6.4613,6.414,6.3024,6.326,6.3642,6.3994,6.4028,6.4197,6.4546,6.4613,6.4759,6.5097,6.5165,6.5256,6.5584,6.5686,6.599,6.6654,6.6789,6.7094,6.785,6.7918,6.8098,6.8436,6.8504,6.8673,6.8977,6.8774,6.8504,6.8504,6.8808,6.9079,6.9079,6.9079,6.9113,6.9113,6.9417,6.9755,7.0117,7.0489,7.0838,7.1187,7.1289,7.1289,7.1278,7.1278,7.1255,7.1312,7.1853,7.2191,7.1413,7.1255,7.1278,6.7208,6.7208,6.7208,6.7208,6.7208,6.7197,6.7208,6.714,0.0,0.0,0.0,6.6802,6.6869,6.7005,6.7005,6.7072,6.7208,6.7197,6.7523,6.8098,6.8142,6.847,6.9079,6.9079,6.9079,6.9113,6.935,6.9474,6.9508,6.9755,6.9902,6.9857,6.9857,7.0172,7.0781,7.1379,7.1109,6.9925,6.962,6.9406,6.9282,6.9316,6.9214,6.9113,6.9079,6.8808,6.8132,6.8098,6.7827,6.7242,6.7072,6.7005,6.6971,6.6305,6.5909,6.5876,6.5324,6.4986,6.4986,6.4975,6.4986,6.4986,6.4986,6.4884,6.4647,6.4613,6.4637,6.4783,6.4793,6.485,6.4986,6.4986,6.5222,6.5842,6.6011,6.6349,6.6903,6.7129,6.7444,6.7996,6.8075,6.8335,6.891,6.9011,6.9214,6.9451,6.9553,6.9643,6.9789,6.9744,6.9609,6.9789,7.0094,7.0026,6.9925,7.0026,6.9891,7.0128,7.0511,7.0984,7.1582,7.2191,7.2812,7.315,7.3454,7.3387,7.3421,7.3285,7.3488,7.3488,7.3612,7.3691,7.3691,7.3793,7.3691,6.8774,6.8774,6.8764,6.8774,6.8774,6.8774,6.8774,6.8628,6.7275,6.67,6.6802,6.6802,6.714,6.7726,6.776,6.8121,6.8774,6.8774,6.8842,0.0,6.891,6.8977,6.9079,6.9079,6.9079,6.918,7.0387,7.0985,7.1131,7.2259,7.2879,7.2845,7.2879,7.2879,7.3015,7.315,7.3082,7.2845,7.165,7.0669,7.0071,7.0037,6.9733,6.9147,6.9113,6.9045,6.8933,6.8944,6.8876,6.8774,6.8132,6.776,6.7726,6.7049,6.6633,6.6633,6.6531,6.6497,6.6487,6.6497,6.6497,6.6497,6.6497,6.5956,6.4749,6.4613,6.485,6.548,6.5571,6.5808,6.6362,6.6464,6.6531,6.6667,6.7218,6.7669,6.776,6.8301,6.873,6.891,6.8944,6.8967,6.9248,6.9282,6.9823,7.0692,7.1007,7.1368,7.2124,7.1785,7.1368,7.1842,7.2462,7.2812,7.2575,7.2812,7.2609,7.2879,7.2823,7.2913,7.3037,7.3285,7.3522,7.3556,7.3725,7.3691,7.3691,7.3488,7.3759,7.3894,7.4266,7.4593,7.4661,7.5033,7.5011,6.9079,6.9079,6.9079,6.9079,6.9079,6.9079,6.9079,6.9045,6.8368,6.8053,6.8053,6.8053,6.8222,6.8538,6.8538,6.8741,6.9079,6.9079,6.9519,7.0252,7.0319,7.0737,7.1458,7.1492,7.1481,7.156,7.2157,7.2496,7.2563,7.3184,7.3488,7.3488,7.3488,7.3488,7.3488,7.3488,7.3488,7.3488,7.2845,7.2338,7.2,7.2011,7.183,7.1492,7.1109,7.0692,7.0286,6.9925,6.9519,6.9102,6.8741,6.8538,6.8538,6.8222,6.8064,6.8053,6.8053,6.8019,6.8064,6.8053,6.8053,6.8053,6.8053,6.7783,6.7117,6.6271,6.5922,6.6305,6.6643,6.7026,6.7377,6.7793,6.8064,6.8064,6.8358,6.8538,6.8571,6.8842,6.9248,6.9665,7.006,7.0432,7.0838,7.1244,7.1661,7.2394,7.2496,7.28,7.3454,7.3308,7.3025,7.3037,7.3285,7.3454,7.3522,7.3488,7.3488,7.3488,7.3849,7.4052,7.4153,7.4368,7.4842,7.5236,7.5315,7.5506,7.5755,7.5924,7.5958,7.5958,7.6161,7.642,7.6487,7.6724,7.6533,7.0094,7.0094,7.0094,7.0094,7.0094,7.0094,7.0094,7.0094,7.0128,7.0094,7.0026,6.9417,6.9282,6.9586,6.9609,6.9789,7.006,7.0105,7.0703,7.1706,7.1808,7.2428,7.3387,7.3488,7.3488,7.3522,7.3657,7.3759,7.3759,7.3928,7.4097,7.4266,7.4436,7.4515,7.4515,7.4503,7.4503,7.4515,7.4503,7.421,7.3522,7.3488,7.3488,7.3454,7.2947,7.236,7.1808,7.1255,7.0612,6.9891,6.9677,6.9553,6.935,6.918,6.9079,6.9079,6.9079,6.9079,6.9079,6.9079,6.9079,6.9079,6.9079,6.9079,6.9011,6.8019,6.7309,6.7377,6.7827,6.8166,6.8233,6.8673,6.9079,6.9113,6.9406,6.962,6.962,6.9857,7.0308,7.0917,7.1447,7.2022,7.2563,7.315,7.3454,7.3624,7.3894,7.4063,7.4266,7.4796,7.483,7.4639,7.4233,7.4199,7.4199,7.4334,7.4469,7.4436,7.5033,7.5439,7.5574,7.5912,7.6352,7.6893,7.7063,7.7164,7.7819,7.7887,7.7819,7.7684,7.7684,7.7853,7.7785,7.8022,7.7942,7.3048,7.3082,7.2981,7.3094,7.2981,7.3015,7.2947,7.2981,7.3048,7.3082,7.2676,7.0297,6.9925,7.0985,7.1097,7.1785,7.2913,7.3082,7.3116,7.3251,7.3285,7.3387,7.359,7.3567,7.3488,7.3691,7.4255,7.4649,7.4649,7.5202,7.5845,7.6589,7.7244,7.7481,7.7515,7.7515,7.7515,7.7582,7.7582,7.6263,7.3657,7.3488,7.3488,7.3488,7.3454,7.3353,7.3251,7.3251,7.2834,7.2124,7.1436,7.0793,7.0172,6.9519,6.9147,6.918,6.9147,6.9079,6.9147,6.9079,6.9214,6.9079,6.9248,6.9248,6.9248,6.9045,6.891,6.8977,6.9,6.9045,6.8977,6.918,6.9417,6.9553,7.0432,7.1097,7.1233,7.2293,7.3128,7.3184,7.3082,7.3308,7.3387,7.3624,7.3916,7.4695,7.5202,7.5709,7.6217,7.642,7.6758,7.7007,7.6432,7.5879,7.6251,7.6555,7.6589,7.7176,7.7515,7.7435,7.7345,7.7447,7.7853,7.7773,7.7887,7.7988,7.809,7.8022,7.809,7.8327,7.8293,7.8124,7.8124,7.8686,7.8855,7.3488,7.3488,7.3488,7.3488,7.3488,7.3488,7.3488,7.3488,7.3488,7.3488,7.3353,7.2203,7.2067,7.2597,7.2609,7.2947,7.3488,7.3488,7.3725,7.4119,7.4153,7.4627,7.5451,7.5518,7.5721,7.6161,7.6466,7.6601,7.6657,7.6927,7.7244,7.7548,7.7853,7.8022,7.8022,7.8022,7.8022,7.8022,7.8022,7.7379,7.6263,7.5721,7.5281,7.4808,7.439,7.4153,7.4119,7.3759,7.3353,7.3048,7.2732,7.2462,7.2169,7.1864,7.1695,7.1695,7.1684,7.1695,7.1695,7.1695,7.1695,7.1695,7.1684,7.1695,7.1684,7.1695,7.1695,7.1627,7.0906,7.0556,7.1007,7.1413,7.1695,7.1763,7.227,7.2597,7.2597,7.3116,7.3488,7.3534,7.3883,7.4187,7.4289,7.4965,7.5743,7.642,7.6872,7.713,7.7502,7.7548,7.7684,7.7853,7.7413,7.7244,7.7502,7.7548,7.7718,7.7921,7.8022,7.8022,7.8056,7.8022,7.8124,7.8585,7.8754,7.8957,7.9308,7.9308,7.9308,7.9342,7.9748,7.9951,7.9951,8.0547,8.0771,7.4097,7.4097,7.4109,7.4097,7.4097,7.4097,7.4233,7.4436,7.4436,7.4537,7.4752,7.474,7.474,7.4639,7.4097,7.3996,7.4402,7.4436,7.4842,7.5473,7.5528,7.6137,7.713,7.721,7.7468,7.7921,7.7954,7.7988,7.8022,7.8259,7.8314,7.8314,7.8496,7.8597,7.8597,7.8631,7.8597,7.8597,7.8597,7.8517,7.8259,7.7773,7.713,7.6352,7.5811,7.5427,7.5224,7.4706,7.4233,7.3827,7.3793,7.3691,7.3522,7.3488,7.3488,7.3488,7.3488,7.3488,7.3488,7.3488,7.3488,7.3488,7.3488,7.3488,7.3488,7.3488,7.359,7.368,7.3003,7.2687,7.2665,7.3184,7.3454,7.3522,7.3657,7.386,7.4063,7.4266,7.4605,7.474,7.5417,7.554,7.5676,7.6487,7.7299,7.7751,7.7921,7.8124,7.8259,7.8327,7.8394,7.8551,7.8631,7.853,7.836,7.828,7.8327,7.8597,7.8699,7.8733,7.8665,7.8733,7.8969,7.9883,7.987,8.0128,8.0648,8.0784,8.0716,8.0885,8.119,8.1507,8.1405,8.2056,8.2246,7.5608,7.562,7.5608,7.562,7.5608,7.562,7.6014,7.6589,7.669,7.7075,7.7548,7.7616,7.7751,7.7481,7.554,7.5371,7.6555,7.6623,7.6973,7.7616,7.7718,7.7853,7.7967,7.7954,7.7988,7.8191,7.8225,7.8157,7.8145,7.872,7.9046,7.908,7.9667,8.004,7.9972,7.9938,8.0073,7.9951,7.9938,7.9735,7.9147,7.9012,7.8606,7.7988,7.7819,7.7379,7.686,7.6758,7.6082,7.4649,7.4649,7.4322,7.3657,7.3567,7.359,7.359,7.3556,7.3556,7.359,7.3635,7.3635,7.3624,7.3759,7.3624,7.3928,7.3928,7.4199,7.4547,7.5134,7.4909,7.3906,7.4007,7.3906,7.386,7.4289,7.4897,7.554,7.6149,7.6995,7.7413,7.7481,7.7515,7.7705,7.7887,7.8022,7.8124,7.809,7.8314,7.8923,7.9046,7.9397,7.9837,8.0006,7.9904,7.9283,7.9228,7.9498,7.9735,7.9938,8.0107,8.0357,8.0593,8.0898,8.1202,8.146,8.1752,8.2124,8.2225,8.2056,8.209,8.2124,8.2327,8.234,8.2335,8.2375,7.7176,7.7164,7.7176,7.7176,7.7176,7.7176,7.7345,7.7582,7.7616,7.7751,7.7954,7.8022,7.8022,7.7954,7.7176,7.7075,7.7582,7.7616,7.7751,7.7988,7.8022,7.8259,7.8686,7.872,7.8991,7.9363,7.9397,7.9397,7.9443,7.9701,7.9803,7.9837,8.004,8.0209,8.0209,8.0209,8.0209,8.0209,8.0209,8.0073,7.987,7.9803,7.9667,7.9375,7.8496,7.7887,7.7604,7.7616,7.7345,7.6792,7.677,7.6432,7.5721,7.518,7.4897,7.4909,7.4897,7.4909,7.4909,7.4909,7.5146,7.5608,7.5676,7.5823,7.6263,7.6398,7.6499,7.6724,7.6973,7.6838,7.6601,7.6364,7.6398,7.6432,7.6601,7.6792,7.7096,7.7447,7.7718,7.7954,7.8022,7.8157,7.8585,7.872,7.8889,7.9295,7.9397,7.9566,7.9803,8.0175,8.0593,8.0885,8.1291,8.1528,8.1325,8.0784,8.0661,8.0919,8.1156,8.1426,8.1663,8.1697,8.1934,8.1968,8.2395,8.2467,8.2469,8.2032,8.2159,8.2165,8.2305,8.2369,8.3118,8.2274,8.2119,7.8022,7.8022,7.8022,7.8022,7.8022,7.8022,7.8124,7.8327,7.836,7.8462,7.8665,7.8733,7.8733,7.8699,7.8699,7.8699,7.8665,7.8496,7.8483,7.8699,7.8733,7.8991,7.9397,7.9452,7.9837,8.0513,8.0818,8.0919,8.0919,8.0919,8.0919,8.0906,8.0919,8.0919,8.0906,8.0906,8.0885,8.0919,8.0919,8.0906,8.0919,8.0919,8.0906,8.075,7.9714,7.88,7.8394,7.8348,7.8225,7.8056,7.8022,7.7785,7.7278,7.6736,7.6466,7.6466,7.642,7.6466,7.6432,7.6432,7.6669,7.7198,7.7266,7.7502,7.7954,7.8022,7.8022,7.8022,7.8259,7.8348,7.8428,7.853,7.853,7.8157,7.8022,7.809,7.8314,7.8327,7.8483,7.872,7.8834,7.8991,7.935,7.9655,8.004,8.0526,8.0716,8.0885,8.0987,8.1291,8.1642,8.1663,8.2002,8.2225,8.2192,8.1934,8.1663,8.1866,8.1934,8.2327,8.2579,8.2626,8.2628,8.2714,8.2724,8.2714,8.2442,8.1931,8.1708,8.168,8.1456,8.1359,8.1633,8.1645,8.129,7.809,7.8124,7.8022,7.8191,7.8225,7.8225,7.8483,7.9046,7.9147,7.9566,8.0018,8.0175,8.0209,8.0209,8.0209,8.0209,8.0107,7.9634,7.9634,8.0086,8.0175,8.0209,8.031,8.0344,8.0648,8.1291,8.2002,8.2293,8.2192,8.2158,8.2192,8.2293,8.2192,8.2124,8.2327,8.2192,8.2259,8.2225,8.2158,8.2259,8.2395,8.2225,8.2192,8.2158,8.1507,8.056,7.9283,7.9147,7.8822,7.8225,7.8157,7.8056,7.8022,7.7853,7.7921,7.7819,7.7887,7.7921,7.7887,7.7819,7.7785,7.8022,7.8034,7.8056,7.8259,7.8259,7.8259,7.836,7.8754,7.9114,7.9283,7.9735,7.96,7.836,7.836,7.8653,7.9012,7.9181,7.9418,8.004,8.0209,8.0209,8.0378,8.0784,8.1202,8.1372,8.1765,8.209,8.2056,8.2225,8.2395,8.2428,8.2665,8.2936,8.297,8.2949,8.28,8.2699,8.2699,8.2855,8.2927,8.2996,8.2778,8.2765,8.238,8.2273,8.1567,8.1049,8.0568,8.0457,8.0322,8.0319,8.0488,8.0505,7.9935,7.9532,7.9498,7.9498,7.9511,7.9498,7.9498,7.9667,7.9904,8.0378,8.075,8.1033,8.1494,8.1718,8.1718,8.1731,8.1684,8.1684,8.1447,8.1224,8.1088,8.146,8.165,8.1697,8.1684,8.1832,8.2069,8.2259,8.2395,8.2428,8.2428,8.2395,8.2395,8.2428,8.2395,8.2462,8.2395,8.2395,8.2395,8.2395,8.2395,8.2395,8.2428,8.2428,8.2361,8.2171,8.1799,8.1359,8.0412,7.9769,7.9498,7.9511,7.9295,7.8788,7.8247,7.8022,7.8022,7.8022,7.8022,7.8022,7.8056,7.8293,7.8619,7.8754,7.9025,7.9431,7.9498,7.9498,7.9498,7.9735,8.004,8.0513,8.0784,8.0526,7.9612,7.9938,8.0255,8.0513,8.0987,8.1447,8.165,8.1731,8.1697,8.1731,8.2002,8.2035,8.2069,8.2327,8.2496,8.2496,8.2936,8.3152,8.3186,8.3477,8.3714,8.3748,8.3681,8.3534,8.3346,8.3279,8.3066,8.314,8.2945,8.2792,8.2259,8.1923,8.1323,8.0662,7.997,7.9312,7.942,7.9525,7.9571,7.9635,7.9142,7.8392,8.0615,8.0627,8.0919,8.1021,8.1021,8.1021,8.1021,8.1088,8.1494,8.171,8.1832,8.2192,8.2395,8.2395,8.2395,8.2395,8.2428,8.2665,8.2543,8.2137,8.2238,8.2395,8.2462,8.2699,8.28,8.2868,8.3071,8.3206,8.324,8.3206,8.324,8.324,8.3206,8.324,8.324,8.3206,8.324,8.3206,8.324,8.3206,8.324,8.324,8.3206,8.3206,8.2936,8.28,8.2712,8.1617,8.0885,8.0615,8.0378,7.9972,7.952,7.9092,7.8834,7.8834,7.8834,7.8834,7.8822,7.8889,7.9003,7.9418,7.9532,7.9837,8.0412,8.0627,8.0682,8.0987,8.1054,8.1236,8.1596,8.1697,8.146,8.1088,8.1359,8.1663,8.1765,8.2103,8.2327,8.2327,8.2327,8.2395,8.2395,8.2712,8.278,8.2813,8.3037,8.3206,8.3308,8.3646,8.3781,8.393,8.412,8.4309,8.4478,8.4405,8.4244,8.4049,8.3867,8.3448,8.3202,8.2685,8.2336,8.097,8.0268,7.9464,7.8753,7.7947,7.7319,7.7931,7.8297,7.7643,7.7157,7.6994,7.645,8.1372,8.1439,8.2103,8.2293,8.2293,8.2259,8.2225,8.2327,8.2428,8.2462,8.2462,8.2665,8.2665,8.2598,8.2767,8.2767,8.2678,8.3253,8.3558,8.3321,8.3003,8.2733,8.2834,8.3321,8.3558,8.3659,8.4153,8.4458,8.4356,8.4343,8.458,8.4411,8.439,8.4559,8.439,8.4546,8.4411,8.4377,8.4458,8.4444,8.4444,8.4492,8.4478,8.4411,8.3883,8.3558,8.3456,8.2767,8.2035,8.1405,8.0784,8.0513,8.0378,8.031,8.031,8.031,8.031,8.031,8.031,8.031,8.0344,8.0399,8.0479,8.0581,8.1236,8.1372,8.1575,8.2056,8.2192,8.2293,8.2395,8.2462,8.2428,8.2496,8.2496,8.2496,8.2543,8.2631,8.28,8.2733,8.2564,8.2564,8.2767,8.3253,8.349,8.3659,8.4052,8.4255,8.4323,8.4309,8.4512,8.4479,8.4312,8.3886,8.3715,8.2872,8.2675,8.2501,8.2557,8.2444,8.2097,8.1531,8.051,7.9265,7.8534,7.7692,7.6996,7.6365,7.5863,7.608,7.5812,7.5057,7.5027,7.5337,7.5455,8.209,8.2124,8.234,8.2395,8.2395,8.2395,8.2428,8.2496,8.3016,8.3219,8.3321,8.3768,8.3937,8.4005,8.3971,8.4018,8.4018,8.4187,8.4323,8.4289,8.4153,8.4052,8.4018,8.4187,8.4289,8.4323,8.4458,8.458,8.458,8.458,8.458,8.458,8.458,8.458,8.458,8.458,8.458,8.458,8.458,8.458,8.458,8.458,8.458,8.458,8.439,8.4289,8.4255,8.3612,8.2881,8.2192,8.1968,8.182,8.1731,8.1731,8.1684,8.1684,8.1752,8.1799,8.1752,8.1752,8.1786,8.182,8.165,8.19,8.2069,8.2103,8.2225,8.2395,8.2395,8.2665,8.3084,8.3219,8.3422,8.3849,8.3511,8.3389,8.3781,8.4018,8.4005,8.4018,8.395,8.3917,8.395,8.4052,8.4255,8.4289,8.4424,8.458,8.458,8.4325,8.4184,8.4021,8.3736,8.3124,8.2458,8.1505,8.0885,8.0602,8.0543,8.0498,7.9969,7.9327,7.7916,7.6384,7.6665,7.6133,7.5762,7.5282,7.4937,7.4886,7.4886,7.4886,7.4886,7.5061,7.5095,8.2847,8.2915,8.3172,8.3342,8.3308,8.3342,8.3308,8.3409,8.3748,8.395,8.4052,8.4377,8.458,8.458,8.458,8.458,8.458,8.458,8.458,8.458,8.4546,8.4546,8.458,8.458,8.458,8.458,8.458,8.458,8.458,8.458,8.458,8.458,8.458,8.458,8.458,8.458,8.458,8.458,8.458,8.458,8.458,8.458,8.458,8.458,8.458,8.458,8.4512,8.4187,8.3612,8.297,8.2598,8.2395,8.2395,8.2395,8.2395,8.2395,8.2395,8.2395,8.2395,8.2395,8.2395,8.2395,8.2395,8.2577,8.278,8.2868,8.2902,8.3342,8.3295,8.3545,8.3849,8.395,8.4153,8.4377,8.4221,8.4153,8.458,8.4512,8.458,8.458,8.458,8.458,8.458,8.458,8.458,8.458,8.4559,8.458,8.4553,8.4089,8.3564,8.3166,8.243,8.1531,8.1106,8.0333,7.9328,7.8972,7.836,7.836,7.825,7.7547,7.645,7.5354,7.5044,7.4886,7.4886,7.4886,7.4886,7.4886,7.4886,7.4886,7.4886,7.4886,7.4886,8.3592,8.3693,8.4323,8.458,8.4512,8.458,8.4458,8.4546,8.4512,8.4512,8.4546,8.458,8.458,8.458,8.458,8.458,8.458,8.458,8.458,8.458,8.458,8.458,8.458,8.458,8.458,8.458,8.458,8.458,8.458,8.458,8.458,8.458,8.458,8.458,8.458,8.458,8.458,8.458,8.458,8.458,8.458,8.458,8.458,8.458,8.458,8.458,8.458,8.4478,8.4255,8.3646,8.2983,8.28,8.2733,8.2699,8.2699,8.2767,8.2868,8.2834,8.2699,8.2834,8.2733,8.28,8.2767,8.2868,8.3456,8.3612,8.3815,8.4289,8.458,8.4444,8.4478,8.4546,8.4546,8.458,8.4546,8.458,8.458,8.458,8.458,8.458,8.458,8.458,8.458,8.458,8.458,8.45,8.4325,8.3784,8.3393,8.2656,8.223,8.1882,8.0885,7.9664,7.9404,7.9189,7.8139,7.7321,7.6417,7.6199,7.6747,7.6233,7.5489,7.4886,7.4886,7.4886,7.4886,7.4886,7.4886,7.4886,7.4886,7.4886,7.4886,7.4886,7.4886,8.4356,8.4377,8.4546,8.458,8.458,8.458,8.458,8.458,8.458,8.458,8.458,8.458,8.458,8.458,8.458,8.458,8.458,8.458,8.458,8.458,8.458,8.458,8.458,8.458,8.458,8.458,8.458,8.458,8.458,8.458,8.458,8.458,8.458,8.458,8.458,8.458,8.458,8.458,8.458,8.458,8.458,8.458,8.458,8.458,8.458,8.458,8.458,8.458,8.4512,8.4343,8.4174,8.3937,8.395,8.4018,8.3971,8.3937,8.4005,8.4052,8.4086,8.4018,8.412,8.3984,8.3937,8.4174,8.4289,8.4323,8.439,8.458,8.458,8.458,8.458,8.458,8.458,8.458,8.458,8.458,8.458,8.458,8.458,8.458,8.458,8.458,8.458,8.446,8.4433,8.4406,8.3701,8.2886,8.2069,8.1253,8.0722,8.0286,7.9033,7.7884,7.774,7.7547,7.6896,7.6252,7.5472,7.4937,7.5422,7.5557,7.5074,7.4886,7.4886,7.4886,7.4886,7.4886,7.4886,7.4886,7.4886,7.4886,7.4886,7.4886,7.4886,8.458,8.458,8.458,8.458,8.458,8.458,8.458,8.458,8.458,8.458,8.458,8.458,8.458,8.458,8.458,8.458,8.458,8.458,8.458,8.458,8.458,8.458,8.458,8.458,8.458,8.458,8.458,8.458,8.458,8.458,8.458,8.458,8.458,8.458,8.458,8.458,8.458,8.458,8.458,8.458,8.458,8.458,8.458,8.458,8.458,8.458,8.458,8.458,8.458,8.458,8.458,8.458,8.458,8.458,8.458,8.458,8.458,8.458,8.458,8.458,8.4546,8.458,8.458,8.458,8.458,8.458,8.458,8.458,8.458,8.458,8.458,8.458,8.458,8.458,8.458,8.458,8.458,8.458,8.458,8.458,8.458,8.458,8.4526,8.4089,8.3489,8.3124,8.1853,8.1047,8.0615,7.9802,7.9018,7.8266,7.7076,7.6249,7.6066,7.5863,7.559,7.5333,7.5163,7.4886,7.5078,7.5061,7.492,7.4886,7.4886,7.4886,7.4886,7.4886,7.4886,7.4886,7.4886,7.4886,7.4886,7.4886,7.4886,8.458,8.458,8.458,8.458,8.458,8.458,8.458,8.458,8.458,8.458,8.458,8.458,8.458,8.458,8.458,8.458,8.458,8.458,8.458,8.458,8.458,8.458,8.458,8.458,8.458,8.458,8.458,8.458,8.458,8.458,8.458,8.458,8.458,8.458,8.458,8.458,8.458,8.458,8.458,8.458,8.458,8.458,8.458,8.458,8.458,8.458,8.458,8.458,8.458,8.458,8.458,8.458,8.458,8.458,8.458,8.458,8.458,8.458,8.458,8.458,8.458,8.458,8.458,8.458,8.458,8.458,8.458,8.458,8.458,8.458,8.458,8.458,8.458,8.458,8.458,8.458,8.454,8.446,8.4143,8.458,8.4526,8.4486,8.3825,8.3213,8.2501,8.1665,8.0333,7.9328,7.8941,7.8297,7.7466,7.6978,7.5949,7.5574,7.5405,7.5354,7.4954,7.4886,7.4886,7.4886,7.4886,7.4886,7.4886,7.4886,7.4886,7.4886,7.4886,7.4886,7.4886,7.4886,7.4886,7.4886,7.4886,7.4886,7.4886,8.458,8.458,8.458,8.458,8.458,8.458,8.458,8.458,8.458,8.458,8.458,8.458,8.458,8.458,8.458,8.458,8.458,8.458,8.458,8.458,8.458,8.458,8.458,8.458,8.458,8.458,8.458,8.458,8.458,8.458,8.458,8.458,8.458,8.458,8.458,8.458,8.458,8.458,8.458,8.458,8.458,8.458,8.458,8.458,8.458,8.458,8.458,8.458,8.458,8.458,8.458,8.458,8.458,8.458,8.458,8.458,8.458,8.458,8.458,8.458,8.458,8.458,8.458,8.458,8.458,8.458,8.458,8.458,8.458,8.458,8.458,8.458,8.458,8.458,8.4446,8.4433,8.4211,8.3503,8.3082,8.3682,8.4008,8.4076,8.3185,8.2069,8.0971,7.9969,7.8706,7.79,7.7547,7.6716,7.5779,7.5438,7.5146,7.504,7.4988,7.5023,7.4886,7.4886,7.4886,7.4886,7.4886,7.4886,7.4886,7.4886,7.4886,7.4886,7.4886,7.4886,7.4886,7.4886,7.4886,7.4886,7.4886,7.4886,7.4886,8.458,8.458,8.458,8.458,8.458,8.458,8.458,8.458,8.458,8.458,8.458,8.458,8.458,8.458,8.458,8.458,8.458,8.458,8.458,8.458,8.458,8.458,8.458,8.458,8.458,8.458,8.458,8.458,8.458,8.458,8.458,8.458,8.458,8.458,8.458,8.458,8.458,8.458,8.458,8.458,8.458,8.458,8.458,8.458,8.458,8.458,8.458,8.458,8.458,8.458,8.458,8.458,8.458,8.458,8.458,8.458,8.458,8.458,8.458,8.458,8.458,8.458,8.458,8.458,8.458,8.458,8.458,8.458,8.458,8.458,8.458,8.4553,8.458,8.4433,8.3893,8.3407,8.3012,8.1839,8.1867,8.2183,8.1705,8.1752,8.2302,8.1062,7.9588,7.8266,7.7029,7.6552,7.6252,7.5661,7.4886,7.4886,7.4903,7.4903,7.4886,7.4886,7.4886,7.4886,7.4886,7.4886,7.4886,7.4886,7.4886,7.4886,7.4886,7.4886,7.4886,7.4886,7.4886,7.4886,7.4886,7.4886,7.4886,7.4886,7.4886,8.458,8.458,8.458,8.458,8.458,8.458,8.458,8.458,8.458,8.458,8.458,8.458,8.458,8.458,8.458,8.458,8.458,8.458,8.458,8.458,8.458,8.458,8.458,8.458,8.458,8.458,8.458,8.458,8.458,8.458,8.458,8.458,8.458,8.458,8.458,8.458,8.458,8.458,8.458,8.458,8.458,8.458,8.458,8.458,8.458,8.458,8.458,8.458,8.458,8.458,8.458,8.458,8.458,8.458,8.458,8.458,8.458,8.458,8.458,8.458,8.458,8.458,8.458,8.458,8.458,8.458,8.458,8.458,8.458,8.458,8.454,8.4238,8.4076,8.3701,8.2656,8.165,8.1268,8.0587,7.994,7.9802,7.9235,7.9342,7.9954,7.9771,7.8218,7.711,7.5946,7.5762,7.5506,7.5354,7.4886,7.4886,7.4886,7.4886,7.4886,7.4886,7.4886,7.4886,7.4886,7.4886,7.4886,7.4886,7.4886,7.4886,7.4886,7.4886,7.4886,7.4886,7.4886,7.4886,7.4886,7.4886,7.4886,7.4886,7.4886,8.458,8.458,8.458,8.458,8.458,8.458,8.458,8.458,8.458,8.458,8.458,8.458,8.458,8.458,8.458,8.458,8.458,8.458,8.458,8.458,8.458,8.458,8.458,8.458,8.458,8.458,8.458,8.458,8.458,8.458,8.458,8.458,8.458,8.458,8.458,8.458,8.458,8.458,8.458,8.458,8.458,8.458,8.458,8.458,8.458,8.458,8.458,8.458,8.458,8.458,8.458,8.458,8.458,8.458,8.458,8.458,8.458,8.458,8.458,8.458,8.458,8.458,8.458,8.458,8.458,8.458,8.458,8.458,8.458,8.4419,8.4116,8.331,8.2741,8.1954,8.1062,8.0303,7.9818,7.8706,7.8107,7.7979,7.7563,7.7402,7.7612,7.7338,7.6898,7.5863,7.5057,7.4954,7.4886,7.4886,7.4886,7.4886,7.4886,7.4886,7.4886,7.4886,7.4886,7.4886,7.4886,7.4886,7.4886,7.4886,7.4886,7.4886,7.4886,7.4886,7.4886,7.4886,7.4886,7.4886,7.4886,7.4886,7.4886,7.4886,7.4886,8.458,8.458,8.458,8.458,8.458,8.458,8.458,8.458,8.458,8.458,8.458,8.458,8.458,8.458,8.458,8.458,8.458,8.458,8.458,8.4486,8.4486,8.4526,8.458,8.458,8.458,8.4379,8.458,8.458,8.458,8.4553,8.458,8.458,8.458,8.458,8.458,8.458,8.458,8.458,8.458,8.458,8.458,8.458,8.458,8.458,8.458,8.458,8.458,8.458,8.458,8.458,8.458,8.458,8.458,8.458,8.458,8.458,8.458,8.458,8.458,8.458,8.458,8.458,8.458,8.458,8.458,8.458,8.458,8.458,8.458,8.4224,8.3476,8.2628,8.1781,8.0764,7.9358,7.8769,7.8059,7.6814,7.6049,7.6013,7.6047,7.6083,7.6099,7.6033,7.5999,7.554,7.4988,7.4937,7.4886,7.4886,7.4886,7.4886,7.4886,7.4886,7.4886,7.4886,7.4886,7.4886,7.4886,7.4886,7.4886,7.4886,7.4886,7.4886,7.4886,7.4886,7.4886,7.4886,7.4886,7.4886,7.4886,7.4886,7.4886,7.4886,7.4886,8.458,8.458,8.458,8.458,8.458,8.458,8.458,8.458,8.458,8.458,8.458,8.458,8.458,8.458,8.454,8.4366,8.3981,8.4406,8.3967,8.3756,8.3743,8.3633,8.3351,8.3434,8.3627,8.3503,8.4278,8.4197,8.4089,8.4318,8.458,8.458,8.458,8.458,8.458,8.458,8.458,8.458,8.458,8.458,8.458,8.458,8.458,8.458,8.458,8.458,8.458,8.458,8.458,8.458,8.458,8.458,8.458,8.458,8.458,8.458,8.458,8.458,8.458,8.458,8.458,8.458,8.458,8.458,8.458,8.458,8.458,8.458,8.3967,8.331,8.2401,8.1589,8.018,7.8956,7.7724,7.7159,7.6601,7.5829,7.5299,7.5384,7.5388,7.5231,7.5197,7.5074,7.5006,7.4954,7.4886,7.4886,7.4886,7.4886,7.4886,7.4886,7.4886,7.4886,7.4886,7.4886,7.4886,7.4886,7.4886,7.4886,7.4886,7.4886,7.4886,7.4886,7.4886,7.4886,7.4886,7.4886,7.4886,7.4886,7.4886,7.4886,7.4886,7.4886,7.4886,8.458,8.458,8.458,8.458,8.458,8.458,8.458,8.458,8.458,8.4526,8.4366,8.45,8.4392,8.4406,8.4035,8.3462,8.2529,8.392,8.2699,8.1636,8.1461,8.1578,8.1458,8.1636,8.181,8.118,8.2557,8.3138,8.3068,8.3811,8.4265,8.458,8.458,8.458,8.458,8.458,8.458,8.458,8.458,8.458,8.458,8.458,8.458,8.458,8.458,8.458,8.458,8.458,8.458,8.458,8.458,8.458,8.458,8.458,8.458,8.458,8.458,8.4486,8.4278,8.446,8.458,8.458,8.458,8.458,8.458,8.4526,8.4526,8.4157,8.311,8.2198,8.1092,7.9832,7.8455,7.7338,7.6469,7.5999,7.5644,7.5455,7.5006,7.492,7.4886,7.4886,7.4886,7.4886,7.4886,7.4886,7.4886,7.4886,7.4886,7.4886,7.4886,7.4886,7.4886,7.4886,7.4886,7.4886,7.4886,7.4886,7.4886,7.4886,7.4886,7.4886,7.4886,7.4886,7.4886,7.4886,7.4886,7.4886,7.4886,7.4886,7.4886,7.4886,7.4886,7.4886,7.4886,8.458,8.458,8.458,8.458,8.458,8.458,8.458,8.458,8.458,8.3994,8.3152,8.311,8.311,8.2914,8.204,8.1968,8.2044,8.1592,8.0781,8.0378,8.0303,8.0273,8.0152,8.0122,8.0408,8.0046,8.118,8.2183,8.243,8.2844,8.3784,8.4224,8.4433,8.458,8.458,8.458,8.458,8.458,8.458,8.458,8.458,8.458,8.458,8.458,8.458,8.458,8.458,8.458,8.458,8.458,8.458,8.454,8.4433,8.4446,8.4392,8.4305,8.4265,8.3893,8.3503,8.3906,8.4566,8.458,8.458,8.4526,8.4305,8.3743,8.3254,8.2614,8.1661,8.0585,7.8987,7.806,7.7191,7.6086,7.5422,7.504,7.4886,7.4886,7.4886,7.4886,7.4886,7.4886,7.4886,7.4886,7.4886,7.4886,7.4886,7.4886,7.4886,7.4886,7.4886,7.4886,7.4886,7.4886,7.4886,7.4886,7.4886,7.4886,7.4886,7.4886,7.4886,7.4886,7.4886,7.4886,7.4886,7.4886,7.4886,7.4886,7.4886,7.4886,7.4886,7.4886,7.4886,7.4886,7.4886,8.458,8.458,8.458,8.458,8.458,8.458,8.458,8.458,8.458,8.3715,8.2169,8.1795,8.1458,8.1121,8.0528,7.9925,8.0376,8.0059,7.922,7.8769,7.8612,7.8691,7.8644,7.8644,7.8691,7.8722,7.9589,8.0453,8.0391,8.115,8.233,8.3324,8.3906,8.3974,8.458,8.458,8.458,8.458,8.458,8.458,8.458,8.458,8.458,8.458,8.458,8.458,8.458,8.458,8.458,8.458,8.4526,8.4278,8.4028,8.3811,8.3599,8.3379,8.3082,8.2581,8.224,8.2872,8.3825,8.3688,8.3729,8.3756,8.3503,8.2458,8.1578,8.1341,8.0029,7.8534,7.7176,7.68,7.6219,7.5269,7.5197,7.4886,7.4886,7.4886,7.4886,7.4886,7.4886,7.4886,7.4886,7.4886,7.4886,7.4886,7.4886,7.4886,7.4886,7.4886,7.4886,7.4886,7.4886,7.4886,7.4886,7.4886,7.4886,7.4886,7.4886,7.4886,7.4886,7.4886,7.4886,7.4886,7.4886,7.4886,7.4886,7.4886,7.4886,7.4886,7.4886,7.4886,7.4886,7.4886,7.4886,8.458,8.458,8.458,8.458,8.458,8.458,8.458,8.454,8.4406,8.3476,8.1824,8.0558,7.9834,7.9742,7.9266,7.8722,7.8376,7.8862,7.8138,7.6448,7.6864,7.6434,7.6318,7.65,7.6929,7.6216,7.74,7.8392,7.7885,7.9203,8.0707,8.181,8.2345,8.3068,8.4419,8.458,8.458,8.458,8.458,8.4553,8.4292,8.4406,8.4566,8.4197,8.4513,8.4566,8.458,8.4197,8.4116,8.4116,8.3825,8.3235,8.2368,8.2255,8.1708,8.0617,8.0391,8.0135,7.9952,8.1385,8.1939,8.2216,8.2259,8.2259,8.1925,8.09,7.9849,7.971,7.8329,7.7467,7.6683,7.6002,7.532,7.5006,7.492,7.4886,7.4886,7.4886,7.4886,7.4886,7.4886,7.4886,7.4886,7.4886,7.4886,7.4886,7.4886,7.4886,7.4886,7.4886,7.4886,7.4886,7.4886,7.4886,7.4886,7.4886,7.4886,7.4886,7.4886,7.4886,7.4886,7.4886,7.4886,7.4886,7.4886,7.4886,7.4886,7.4886,7.4886,7.4886,7.4886,7.4886,7.4886,7.4886,7.4886,8.458,8.458,8.458,8.458,8.458,8.458,8.458,8.4406,8.3448,8.2097,8.0495,7.8862,7.8155,7.7884,7.7207,7.688,7.729,7.6166,7.5316,7.5231,7.5628,7.5388,7.5265,7.5371,7.5489,7.5316,7.6332,7.7256,7.7451,7.7964,7.9033,8.021,8.0944,8.2155,8.3879,8.458,8.458,8.458,8.45,8.4184,8.3263,8.3838,8.4008,8.311,8.3852,8.4265,8.417,8.3476,8.304,8.2872,8.2444,8.137,8.0722,8.0617,8.0271,7.9742,7.9681,7.9188,7.8596,7.8862,7.9511,8.0107,8.0587,8.0602,8.0436,7.9064,7.8376,7.7884,7.6798,7.6066,7.5422,7.5303,7.4937,7.4937,7.4886,7.4886,7.4886,7.4886,7.4886,7.4886,7.4886,7.4886,7.4886,7.4886,7.4886,7.4886,7.4886,7.4886,7.4886,7.4886,7.4886,7.4886,7.4886,7.4886,7.4886,7.4886,7.4886,7.4886,7.4886,7.4886,7.4886,7.4886,7.4886,7.4886,7.4886,7.4886,7.4886,7.4886,7.4886,7.4886,7.4886,7.4886,7.4886,7.4886,7.4886,8.4103,8.4513,8.4008,8.4116,8.454,8.458,8.4339,8.3462,8.1516,7.9861,7.8737,7.724,7.6453,7.6166,7.5607,7.5248,7.6335,7.5523,7.4937,7.4886,7.4903,7.4937,7.492,7.4886,7.504,7.4886,7.4988,7.5557,7.6268,7.6403,7.7418,7.8659,7.9511,8.0885,8.2297,8.2656,8.267,8.2586,8.2411,8.2198,8.1839,8.2026,8.2283,8.1896,8.2155,8.2769,8.2586,8.2054,8.1374,8.1003,8.0391,7.9404,7.9189,7.8909,7.8643,7.8345,7.7979,7.7418,7.6765,7.6533,7.7191,7.7788,7.8502,7.8893,7.8643,7.7402,7.6733,7.6133,7.5371,7.5146,7.4954,7.4886,7.4886,7.4886,7.4886,7.4886,7.4886,7.4886,7.4886,7.4886,7.4886,7.4886,7.4886,7.4886,7.4886,7.4886,7.4886,7.4886,7.4886,7.4886,7.4886,7.4886,7.4886,7.4886,7.4886,7.4886,7.4886,7.4886,7.4886,7.4886,7.4886,7.4886,7.4886,7.4886,7.4886,7.4886,7.4886,7.4886,7.4886,7.4886,7.4886,7.4886,7.4886,7.4886,7.4886,8.3193,8.4238,8.2928,8.3193,8.4305,8.3988,8.3207,8.1867,7.8799,7.75,7.7274,7.5829,7.5214,7.5057,7.4886,7.5006,7.5129,7.4971,7.492,7.4886,7.4886,7.4886,7.4886,7.4886,7.4886,7.4886,7.4937,7.5006,7.504,7.5316,7.6133,7.7175,7.8281,7.9096,7.9513,7.965,7.9954,8.0466,8.0751,8.0438,8.0029,8.015,8.024,8.009,8.0286,8.0602,8.0438,8.0016,7.9773,7.9573,7.9404,7.8471,7.7804,7.7288,7.6235,7.551,7.5265,7.5265,7.5282,7.5299,7.5265,7.598,7.6618,7.7045,7.6898,7.6116,7.5644,7.5388,7.5023,7.4971,7.4886,7.4886,7.4886,7.4886,7.4886,7.4886,7.4886,7.4886,7.4886,7.4886,7.4886,7.4886,7.4886,7.4886,7.4886,7.4886,7.4886,7.4886,7.4886,7.4886,7.4886,7.4886,7.4886,7.4886,7.4886,7.4886,7.4886,7.4886,7.4886,7.4886,7.4886,7.4886,7.4886,7.4886,7.4886,7.4886,7.4886,7.4886,7.4886,7.4886,7.4886,7.4886,7.4886,7.4886,7.4886,8.4184,8.4526,8.4103,8.3531,8.2572,8.0403,7.9771,8.0107,7.8171,7.729,7.7193,7.5594,7.492,7.4886,7.4886,7.4886,7.4886,7.4886,7.4886,7.4886,7.4886,7.4886,7.4886,7.4886,7.4886,7.4886,7.4886,7.4886,7.492,7.4886,7.4954,7.5712,7.6483,7.6599,7.6599,7.6382,7.7836,7.8941,7.9312,7.8831,7.8628,7.8893,7.8675,7.8424,7.894,7.922,7.9251,7.8424,7.8155,7.8012,7.6913,7.5946,7.5779,7.5607,7.5146,7.5044,7.4954,7.492,7.4886,7.4886,7.4886,7.4886,7.5472,7.5455,7.5422,7.5282,7.4886,7.4886,7.4886,7.4886,7.4886,7.4886,7.4886,7.4886,7.4886,7.4886,7.4886,7.4886,7.4886,7.4886,7.4886,7.4886,7.4886,7.4886,7.4886,7.4886,7.4886,7.4886,7.4886,7.4886,7.4886,7.4886,7.4886,7.4886,7.4886,7.4886,7.4886,7.4886,7.4886,7.4886,7.4886,7.4886,7.4886,7.4886,7.4886,7.4886,7.4886,7.4886,7.4886,7.4886,7.4886,7.4886,7.4886,7.4886,7.4886,8.4001,8.4473,8.3879,8.2746,8.0944,7.8439,7.7628,7.7675,7.6765,7.6351,7.6235,7.535,7.4886,7.4886,7.4886,7.4886,7.4886,7.4886,7.4886,7.4886,7.4886,7.4886,7.4886,7.4886,7.4886,7.4886,7.4886,7.4886,7.4886,7.4886,7.4937,7.4988,7.4886,7.4886,7.5074,7.5384,7.603,7.7059,7.7563,7.7191,7.7272,7.7434,7.6914,7.6898,7.7707,7.79,7.7947,7.6765,7.6502,7.6384,7.5146,7.4937,7.492,7.4937,7.4937,7.4886,7.4886,7.4886,7.4886,7.4886,7.4886,7.4886,7.4886,7.4954,7.4988,7.4971,7.4886,7.4886,7.4886,7.4886,7.4886,7.4886,7.4886,7.4886,7.4886,7.4886,7.4886,7.4886,7.4886,7.4886,7.4886,7.4886,7.4886,7.4886,7.4886,7.4886,7.4886,7.4886,7.4886,7.4886,7.4886,7.4886,7.4886,7.4886,7.4886,7.4886,7.4886,7.4886,7.4886,7.4886,7.4886,7.4886,7.4886,7.4886,7.4886,7.4886,7.4886,7.4886,7.4886,7.4886,7.4886,7.4886,7.4886,7.4886,7.4886,8.3138,8.4446,8.276,8.1224,7.9666,7.7836,7.6285,7.4988,7.5061,7.4937,7.4988,7.492,7.4886,7.4886,7.4886,7.4886,7.4886,7.4886,7.4886,7.4886,7.4886,7.4886,7.4886,7.4886,7.4886,7.4886,7.4886,7.4886,7.4886,7.4886,7.4886,7.4886,7.4886,7.4886,7.4886,7.4886,7.5316,7.559,7.5762,7.5489,7.5316,7.5061,7.4886,7.5057,7.518,7.5197,7.5129,7.4971,7.4886,7.492,7.492,7.4886,7.4886,7.4886,7.4886,7.4886,7.4886,7.4886,7.4886,7.4886,7.4886,7.4886,7.4886,7.4886,7.4886,7.4886,7.4886,7.4886,7.4886,7.4886,7.4886,7.4886,7.4886,7.4886,7.4886,7.4886,7.4886,7.4886,7.4886,7.4886,7.4886,7.4886,7.4886,7.4886,7.4886,7.4886,7.4886,7.4886,7.4886,7.4886,7.4886,7.4886,7.4886,7.4886,7.4886,7.4886,7.4886,7.4886,7.4886,7.4886,7.4886,7.4886,7.4886,7.4886,7.4886,7.4886,7.4886,7.4886,7.4886,7.4886,7.4886,7.4886,7.4886,7.4886,7.4886,8.3124,8.4312,8.156,8.0137,7.942,7.6698,7.5316,7.4886,7.4886,7.4886,7.4886,7.4886,7.4886,7.4886,7.4886,7.4886,7.4886,7.4886,7.4886,7.4886,7.4886,7.4886,7.4886,7.4886,7.4886,7.4886,7.4886,7.4886,7.4886,7.4886,7.4886,7.4886,7.4886,7.4886,7.4886,7.4886,7.4886,7.4886,7.4886,7.4886,7.4886,7.4886,7.4886,7.4886,7.4886,7.4886,7.4886,7.4886,7.4886,7.4903,7.4886,7.4886,7.4886,7.4886,7.4886,7.4886,7.4886,7.4886,7.4886,7.4886,7.4886,7.4886,7.4886,7.4886,7.4886,7.4886,7.4886,7.4886,7.4886,7.4886,7.4886,7.4886,7.4886,7.4886,7.4886,7.4886,7.4886,7.4886,7.4886,7.4886,7.4886,7.4886,7.4886,7.4886,7.4886,7.4886,7.4886,7.4886,7.4886,7.4886,7.4886,7.4886,7.4886,7.4886,7.4886,7.4886,7.4886,7.4886,7.4886,7.4886,7.4886,7.4886,7.4886,7.4886,7.4886,7.4886,7.4886,7.4886,7.4886,7.4886,7.4886,7.4886,7.4886,7.4886,7.4886,8.3124,8.4116,8.115,7.9803,7.9204,7.6299,7.4886,7.4886,7.4886,7.4886,7.4886,7.4886,7.4886,7.4886,7.4886,7.4886,7.4886,7.4886,7.4886,7.4886,7.4886,7.4886,7.4886,7.4886,7.4886,7.4886,7.4886,7.4886,7.4886,7.4886,7.4886,7.4886,7.4886,7.4886,7.4886,7.4886,7.4886,7.4886,7.4886,7.4886,7.4886,7.4886,7.4886,7.4886,7.4886,7.4886,7.4886,7.4886,7.4886,7.4886,7.4886,7.4886,7.4886,7.4886,7.4886,7.4886,7.4886,7.4886,7.4886,7.4886,7.4886,7.4886,7.4886,7.4886,7.4886,7.4886,7.4886,7.4886,7.4886,7.4886,7.4886,7.4886,7.4886,7.4886,7.4886,7.4886,7.4886,7.4886,7.4886,7.4886,7.4886,7.4886,7.4886,7.4886,7.4886,7.4886,7.4886,7.4886,7.4886,7.4886,7.4886,7.4886,7.4886,7.4886,7.4886,7.4886,7.4886,7.4886,7.4886,7.4886,7.4886,7.4886,7.4886,7.4886,7.4886,7.4886,7.4886,7.4886,7.4886,7.4886,7.4886,7.4886,7.4886,7.4886,7.4886,8.2998,8.377,8.1047,7.9635,7.9034,7.6216,7.4886,7.4886,7.4886,7.4886,7.4886,7.4886,7.4886,7.4886,7.4886,7.4886,7.4886,7.4886,7.4886,7.4886,7.4886,7.4886,7.4886,7.4886,7.4886,7.4886,7.4886,7.4886,7.4886,7.4886,7.4886,7.4886,7.4886,7.4886,7.4886,7.4886,7.4886,7.4886,7.4886,7.4886,7.4886,7.4886,7.4886,7.4886,7.4886,7.4886,7.4886,7.4886,7.4886,7.4886,7.4886,7.4886,7.4886,7.4886,7.4886,7.4886,7.4886,7.4886,7.4886,7.4886,7.4886,7.4886,7.4886,7.4886,7.4886,7.4886,7.4886,7.4886,7.4886,7.4886,7.4886,7.4886,7.4886,7.4886,7.4886,7.4886,7.4886,7.4886,7.4886,7.4886,7.4886,7.4886,7.4886,7.4886,7.4886,7.4886,7.4886,7.4886,7.4886,7.4886,7.4886,7.4886,7.4886,7.4886,7.4886,7.4886,7.4886,7.4886,7.4886,7.4886,7.4886,7.4886,7.4886,7.4886,7.4886,7.4886,7.4886,7.4886,7.4886,7.4886,7.4886,7.4886,7.4886,7.4886,7.4886,8.2373,8.2487,8.0555,7.9049,7.7612,7.5695,7.4886,7.4886,7.4886,7.4886,7.4886,7.4886,7.4886,7.4886,7.4886,7.4886,7.4886,7.4886,7.4886,7.4886,7.4886,7.4886,7.4886,7.4886,7.4886,7.4886,7.4886,7.4886,7.4886,7.4886,7.4886,7.4886,7.4886,7.4886,7.4886,7.4886,7.4886,7.4886,7.4886,7.4886,7.4886,7.4886,7.4886,7.4886,7.4886,7.4886,7.4886,7.4886,7.4886,7.4886,7.4886,7.4886,7.4886,7.4886,7.4886,7.4886,7.4886,7.4886,7.4886,7.4886,7.4886,7.4886,7.4886,7.4886,7.4886,7.4886,7.4886,7.4886,7.4886,7.4886,7.4886,7.4886,7.4886,7.4886,7.4886,7.4886,7.4886,7.4886,7.4886,7.4886,7.4886,7.4886,7.4886,7.4886,7.4886,7.4886,7.4886,7.4886,7.4886,7.4886,7.4886,7.4886,7.4886,7.4886,7.4886,7.4886,7.4886,7.4886,7.4886,7.4886,7.4886,7.4886,7.4886,7.4886,7.4886,7.4886,7.4886,7.4886,7.4886,7.4886,7.4886,7.4886,7.4886,7.4886,7.4886]},{"header":{"parameterUnit":"m.s-1","parameterCategory":1,"la1":31.0,"la2":29.5877,"lo1":-88.7671,"lo2":-86.6584,"dx":0.0162,"dy":0.0185,"nx":115,"ny":88,"refTime":"2023-01-31T06:00:00:Z","depth":0,"parameterNumber":3,"parameterNumberName":"V-component_of_WINDS"},"data":[0.0,0.0,0.0,0.0,0.0,0.0,0.0,0.0,0.0,0.0,0.0,0.0,0.0,0.0,0.0,0.0,0.0,0.0,0.0,0.0,0.0,0.0,0.0,0.0,0.0,0.0,0.0,0.0,0.0,0.0,0.0,0.0,0.0,0.0,0.0,0.0,0.0,0.0,0.0,0.0,0.0,0.0,0.0,0.0,0.0,0.0,0.0,0.0,0.0,0.0,0.0,0.0,0.0,0.0,0.0,0.0,0.0,0.0,0.0,0.0,0.0,0.0,0.0,0.0,0.0,0.0,0.0,0.0,0.0,0.0,0.0,0.0,0.0,0.0,0.0,0.0,0.0,0.0,0.0,0.0,0.0,0.0,0.0,0.0,0.0,0.0,0.0,0.0,0.0,0.0,0.0,0.0,0.0,0.0,0.0,0.0,0.0,0.0,0.0,0.0,0.0,0.0,0.0,0.0,0.0,0.0,0.0,0.0,0.0,0.0,0.0,0.0,0.0,0.0,0.0,0.0,0.0,0.0,0.0,0.0,0.0,0.0,0.0,0.0,0.0,0.0,0.0,0.0,0.0,0.0,0.0,0.0,0.0,0.0,0.0,0.0,0.0,0.0,0.0,0.0,0.0,0.0,0.0,0.0,0.0,0.0,0.0,0.0,0.0,0.0,0.0,0.0,0.0,0.0,0.0,0.0,0.0,0.0,0.0,0.0,0.0,0.0,0.0,0.0,0.0,0.0,0.0,0.0,0.0,0.0,0.0,0.0,0.0,0.0,0.0,0.0,0.0,0.0,0.0,0.0,0.0,0.0,0.0,0.0,0.0,0.0,0.0,0.0,0.0,0.0,0.0,0.0,0.0,0.0,0.0,0.0,0.0,0.0,0.0,0.0,0.0,0.0,0.0,0.0,0.0,0.0,0.0,0.0,0.0,0.0,0.0,0.0,0.0,0.0,0.0,0.0,0.0,0.0,0.0,0.0,0.0,0.0,0.0,0.0,0.0,0.0,0.0,0.0,0.0,0.0,0.0,0.0,0.0,0.0,0.0,0.0,0.0,0.0,0.0,0.0,0.0,0.0,0.0,0.0,0.0,0.0,0.0,0.0,0.0,0.0,0.0,0.0,0.0,0.0,0.0,0.0,0.0,0.0,0.0,0.0,0.0,0.0,0.0,0.0,0.0,0.0,0.0,0.0,0.0,0.0,0.0,0.0,0.0,0.0,0.0,0.0,0.0,0.0,0.0,0.0,0.0,0.0,0.0,0.0,0.0,0.0,0.0,0.0,0.0,0.0,0.0,0.0,0.0,0.0,0.0,0.0,0.0,0.0,0.0,0.0,0.0,0.0,0.0,0.0,0.0,0.0,0.0,0.0,0.0,0.0,0.0,0.0,0.0,0.0,0.0,0.0,0.0,0.0,0.0,0.0,0.0,0.0,0.0,0.0,0.0,0.0,0.0,0.0,0.0,0.0,0.0,0.0,0.0,0.0,0.0,0.0,0.0,0.0,0.0,0.0,0.0,0.0,0.0,0.0,0.0,0.0,0.0,0.0,0.0,0.0,0.0,0.0,0.0,0.0,0.0,0.0,0.0,0.0,0.0,0.0,0.0,0.0,0.0,0.0,0.0,0.0,0.0,0.0,0.0,0.0,0.0,0.0,0.0,0.0,0.0,0.0,0.0,0.0,0.0,0.0,0.0,0.0,0.0,0.0,0.0,0.0,0.0,0.0,0.0,0.0,0.0,0.0,0.0,0.0,0.0,0.0,0.0,0.0,0.0,0.0,0.0,0.0,0.0,0.0,0.0,0.0,0.0,0.0,0.0,0.0,0.0,0.0,0.0,0.0,0.0,0.0,0.0,0.0,0.0,0.0,0.0,0.0,0.0,0.0,0.0,0.0,0.0,0.0,0.0,0.0,0.0,0.0,0.0,0.0,0.0,0.0,0.0,0.0,0.0,0.0,0.0,0.0,0.0,0.0,0.0,0.0,0.0,0.0,0.0,0.0,0.0,0.0,0.0,0.0,0.0,0.0,0.0,0.0,0.0,0.0,0.0,0.0,0.0,0.0,0.0,0.0,0.0,0.0,0.0,0.0,0.0,0.0,0.0,0.0,0.0,0.0,0.0,0.0,0.0,0.0,0.0,0.0,0.0,0.0,0.0,0.0,0.0,0.0,0.0,0.0,0.0,0.0,0.0,0.0,0.0,0.0,0.0,0.0,0.0,0.0,0.0,0.0,0.0,0.0,0.0,0.0,0.0,0.0,0.0,0.0,0.0,0.0,0.0,0.0,0.0,0.0,0.0,0.0,0.0,0.0,0.0,0.0,0.0,0.0,0.0,0.0,0.0,0.0,0.0,0.0,0.0,0.0,0.0,0.0,0.0,0.0,0.0,0.0,0.0,0.0,0.0,0.0,0.0,0.0,0.0,0.0,0.0,0.0,0.0,0.0,0.0,0.0,0.0,0.0,0.0,0.0,0.0,0.0,0.0,0.0,0.0,0.0,0.0,0.0,0.0,0.0,0.0,0.0,0.0,0.0,0.0,0.0,0.0,0.0,0.0,0.0,0.0,0.0,0.0,0.0,0.0,0.0,0.0,0.0,0.0,0.0,0.0,0.0,0.0,0.0,0.0,0.0,0.0,0.0,0.0,0.0,0.0,0.0,0.0,0.0,0.0,0.0,0.0,0.0,0.0,0.0,0.0,0.0,0.0,0.0,0.0,0.0,0.0,0.0,0.0,0.0,0.0,0.0,0.0,0.0,0.0,0.0,0.0,0.0,0.0,0.0,0.0,0.0,0.0,0.0,0.0,0.0,0.0,0.0,0.0,0.0,0.0,0.0,0.0,0.0,0.0,0.0,0.0,0.0,0.0,0.0,0.0,0.0,0.0,0.0,0.0,0.0,0.0,0.0,0.0,0.0,0.0,0.0,0.0,0.0,0.0,0.0,0.0,0.0,0.0,0.0,0.0,0.0,0.0,0.0,0.0,0.0,0.0,0.0,0.0,0.0,0.0,0.0,0.0,0.0,0.0,0.0,0.0,0.0,0.0,0.0,0.0,0.0,0.0,0.0,0.0,0.0,0.0,0.0,0.0,0.0,0.0,0.0,0.0,0.0,0.0,0.0,0.0,0.0,0.0,0.0,0.0,0.0,0.0,0.0,0.0,0.0,0.0,0.0,0.0,0.0,0.0,0.0,0.0,0.0,0.0,0.0,0.0,0.0,0.0,0.0,0.0,0.0,0.0,0.0,0.0,0.0,0.0,0.0,0.0,0.0,0.0,0.0,0.0,0.0,0.0,0.0,0.0,0.0,0.0,0.0,0.0,0.0,0.0,0.0,0.0,0.0,0.0,0.0,0.0,0.0,0.0,0.0,0.0,0.0,0.0,0.0,0.0,0.0,0.0,0.0,0.0,0.0,0.0,0.0,0.0,0.0,0.0,0.0,0.0,0.0,0.0,0.0,0.0,0.0,0.0,0.0,0.0,0.0,0.0,0.0,0.0,0.0,0.0,0.0,0.0,0.0,0.0,0.0,0.0,0.0,0.0,0.0,0.0,0.0,0.0,0.0,0.0,0.0,0.0,0.0,0.0,0.0,0.0,0.0,0.0,0.0,0.0,0.0,0.0,0.0,0.0,0.0,0.0,0.0,0.0,0.0,0.0,0.0,0.0,0.0,0.0,0.0,0.0,0.0,0.0,0.0,0.0,0.0,0.0,0.0,0.0,0.0,0.0,0.0,0.0,0.0,0.0,0.0,0.0,0.0,0.0,0.0,0.0,0.0,0.0,0.0,0.0,0.0,0.0,0.0,0.0,0.0,0.0,0.0,0.0,0.0,0.0,0.0,0.0,0.0,0.0,0.0,0.0,0.0,0.0,0.0,0.0,0.0,0.0,0.0,0.0,0.0,0.0,0.0,0.0,0.0,0.0,0.0,0.0,0.0,0.0,0.0,0.0,0.0,0.0,0.0,0.0,0.0,0.0,0.0,0.0,0.0,0.0,0.0,0.0,0.0,0.0,0.0,0.0,0.0,0.0,0.0,0.0,0.0,0.0,0.0,0.0,0.0,0.0,0.0,0.0,0.0,0.0,0.0,0.0,0.0,0.0,0.0,0.0,0.0,0.0,0.0,0.0,0.0,0.0,0.0,0.0,0.0,0.0,0.0,0.0,0.0,0.0,0.0,0.0,0.0,0.0,0.0,0.0,0.0,0.0,0.0,0.0,0.0,0.0,0.0,0.0,0.0,0.0,0.0,0.0,0.0,0.0,0.0,0.0,0.0,0.0,0.0,0.0,0.0,1.9416,0.0,0.0,0.0,0.0,0.0,0.0,0.0,0.0,0.0,0.0,0.0,0.0,0.0,0.0,0.0,0.0,0.0,0.0,0.0,0.0,0.0,0.0,0.0,0.0,0.0,0.0,0.0,0.0,0.0,0.0,0.0,0.0,0.0,0.0,0.0,0.0,0.0,0.0,0.0,0.0,0.0,0.0,0.0,0.0,0.0,0.0,0.0,0.0,0.0,0.0,0.0,0.0,0.0,0.0,0.0,0.0,0.0,0.0,0.0,0.0,0.0,0.0,0.0,0.0,0.0,0.0,0.0,0.0,0.0,0.0,0.0,0.0,0.0,0.0,0.0,0.0,0.0,0.0,0.0,0.0,0.0,0.0,0.0,0.0,0.0,0.0,0.0,0.0,0.0,0.0,0.0,0.0,0.0,0.0,0.0,0.0,0.0,0.0,0.0,0.0,0.0,0.0,0.0,0.0,0.0,0.0,0.0,0.0,0.0,0.0,1.9416,1.9416,1.9416,1.9416,1.9416,0.0,0.0,0.0,0.0,0.0,0.0,0.0,0.0,0.0,0.0,0.0,0.0,0.0,0.0,0.0,0.0,0.0,0.0,0.0,0.0,0.0,0.0,0.0,0.0,0.0,0.0,0.0,0.0,0.0,0.0,0.0,0.0,0.0,0.0,0.0,0.0,0.0,0.0,0.0,0.0,0.0,0.0,0.0,0.0,0.0,0.0,0.0,0.0,0.0,0.0,0.0,0.0,0.0,0.0,0.0,0.0,0.0,0.0,0.0,0.0,0.0,0.0,0.0,0.0,0.0,0.0,0.0,0.0,0.0,0.0,0.0,0.0,0.0,0.0,0.0,0.0,0.0,0.0,0.0,0.0,0.0,0.0,0.0,0.0,0.0,0.0,0.0,0.0,0.0,0.0,0.0,0.0,0.0,0.0,0.0,0.0,0.0,0.0,0.0,0.0,0.0,0.0,0.0,0.0,0.0,0.0,0.0,0.0,0.0,0.0,0.0,0.0,1.9587,1.9547,1.9495,0.0,0.0,0.0,0.0,0.0,0.0,0.0,0.0,0.0,0.0,0.0,0.0,0.0,0.0,0.0,0.0,0.0,0.0,0.0,0.0,0.0,0.0,0.0,0.0,0.0,0.0,0.0,0.0,0.0,0.0,0.0,0.0,0.0,0.0,0.0,0.0,0.0,0.0,0.0,0.0,0.0,0.0,0.0,0.0,0.0,0.0,0.0,0.0,0.0,0.0,0.0,0.0,0.0,0.0,0.0,0.0,0.0,0.0,0.0,0.0,0.0,0.0,0.0,0.0,0.0,0.0,0.0,0.0,0.0,0.0,0.0,0.0,0.0,0.0,0.0,0.0,0.0,0.0,0.0,0.0,0.0,0.0,0.0,0.0,0.0,0.0,0.0,0.0,0.0,0.0,0.0,0.0,0.0,0.0,0.0,0.0,0.0,0.0,0.0,0.0,0.0,0.0,0.0,0.0,0.0,0.0,0.0,0.0,0.0,0.0,1.988,2.0117,2.0117,0.0,1.9758,0.0,0.0,0.0,0.0,0.0,0.0,0.0,0.0,0.0,0.0,0.0,0.0,0.0,0.0,0.0,0.0,0.0,0.0,0.0,0.0,0.0,0.0,0.0,0.0,0.0,0.0,0.0,0.0,0.0,0.0,0.0,0.0,0.0,0.0,0.0,0.0,0.0,0.0,0.0,0.0,0.0,0.0,0.0,0.0,0.0,0.0,0.0,0.0,0.0,0.0,0.0,0.0,0.0,0.0,0.0,0.0,0.0,0.0,0.0,0.0,0.0,0.0,0.0,0.0,0.0,0.0,0.0,0.0,0.0,0.0,0.0,0.0,0.0,0.0,0.0,0.0,0.0,0.0,0.0,0.0,0.0,0.0,0.0,0.0,0.0,0.0,0.0,0.0,0.0,0.0,0.0,0.0,0.0,0.0,0.0,0.0,0.0,0.0,0.0,0.0,0.0,0.0,0.0,0.0,0.0,0.0,0.0,0.0,0.0,0.0,2.0092,2.0197,2.021,2.0144,0.0,0.0,0.0,0.0,0.0,0.0,0.0,0.0,0.0,0.0,0.0,0.0,0.0,0.0,0.0,0.0,0.0,0.0,0.0,0.0,0.0,0.0,0.0,0.0,0.0,0.0,0.0,0.0,0.0,0.0,0.0,0.0,0.0,0.0,0.0,0.0,0.0,0.0,0.0,0.0,0.0,0.0,0.0,0.0,0.0,0.0,0.0,0.0,0.0,0.0,0.0,0.0,0.0,0.0,0.0,0.0,0.0,0.0,0.0,0.0,0.0,0.0,0.0,0.0,0.0,0.0,0.0,0.0,0.0,0.0,0.0,0.0,0.0,0.0,0.0,0.0,0.0,0.0,0.0,0.0,0.0,0.0,0.0,0.0,0.0,0.0,0.0,0.0,0.0,0.0,0.0,0.0,0.0,0.0,0.0,0.0,0.0,0.0,0.0,0.0,0.0,0.0,0.0,0.0,0.0,0.0,0.0,0.0,0.0,0.0,2.0346,2.0372,2.0452,2.037,2.0346,2.0332,0.0,0.0,0.0,0.0,0.0,0.0,0.0,0.0,0.0,0.0,0.0,0.0,0.0,0.0,0.0,0.0,0.0,0.0,0.0,0.0,0.0,0.0,0.0,0.0,0.0,0.0,0.0,0.0,0.0,0.0,0.0,0.0,0.0,0.0,0.0,0.0,0.0,0.0,0.0,0.0,0.0,0.0,0.0,0.0,0.0,0.0,0.0,0.0,0.0,0.0,0.0,0.0,0.0,0.0,0.0,0.0,0.0,0.0,0.0,0.0,0.0,0.0,0.0,0.0,0.0,0.0,0.0,0.0,0.0,0.0,0.0,0.0,0.0,0.0,0.0,0.0,0.0,0.0,0.0,0.0,0.0,0.0,0.0,0.0,0.0,0.0,0.0,0.0,0.0,0.0,0.0,0.0,0.0,0.0,0.0,0.0,0.0,0.0,0.0,0.0,0.0,0.0,0.0,0.0,0.0,0.0,0.0,0.0,2.0672,2.067,2.0804,2.1026,2.0817,2.0686,0.0,0.0,0.0,0.0,0.0,0.0,0.0,0.0,0.0,0.0,0.0,0.0,0.0,0.0,0.0,0.0,0.0,0.0,0.0,0.0,0.0,0.0,0.0,0.0,0.0,0.0,0.0,0.0,0.0,0.0,0.0,0.0,0.0,0.0,0.0,0.0,0.0,0.0,0.0,0.0,0.0,0.0,0.0,0.0,0.0,0.0,0.0,0.0,0.0,0.0,0.0,0.0,0.0,0.0,0.0,0.0,0.0,0.0,0.0,0.0,0.0,0.0,0.0,0.0,0.0,0.0,0.0,0.0,0.0,0.0,0.0,0.0,0.0,0.0,0.0,0.0,0.0,0.0,0.0,0.0,0.0,0.0,0.0,0.0,0.0,0.0,0.0,0.0,0.0,0.0,0.0,0.0,0.0,0.0,0.0,0.0,0.0,0.0,0.0,0.0,0.0,0.0,0.0,0.0,0.0,0.0,0.0,0.0,0.0,2.0949,2.0949,2.1002,2.108,2.1002,2.0949,0.0,0.0,0.0,0.0,0.0,0.0,0.0,0.0,0.0,0.0,0.0,0.0,0.0,0.0,0.0,0.0,0.0,0.0,0.0,0.0,0.0,0.0,0.0,0.0,0.0,0.0,0.0,0.0,0.0,0.0,0.0,0.0,0.0,0.0,0.0,0.0,0.0,0.0,0.0,0.0,0.0,0.0,0.0,0.0,0.0,0.0,0.0,0.0,0.0,0.0,0.0,0.0,0.0,0.0,0.0,0.0,0.0,0.0,0.0,0.0,0.0,0.0,0.0,0.0,0.0,0.0,0.0,0.0,0.0,0.0,0.0,0.0,0.0,0.0,0.0,0.0,0.0,0.0,0.0,0.0,0.0,0.0,0.0,0.0,0.0,0.0,0.0,0.0,0.0,0.0,0.0,0.0,0.0,0.0,0.0,0.0,0.0,0.0,0.0,0.0,0.0,0.0,0.0,0.0,0.0,0.0,0.0,0.0,0.0,2.1093,0.0,2.1093,2.1093,2.1093,2.1093,0.0,0.0,0.0,0.0,0.0,0.0,0.0,0.0,0.0,0.0,0.0,0.0,0.0,0.0,0.0,0.0,0.0,0.0,0.0,0.0,0.0,0.0,0.0,0.0,0.0,0.0,0.0,0.0,0.0,0.0,0.0,0.0,0.0,0.0,0.0,0.0,0.0,0.0,0.0,0.0,0.0,0.0,0.0,0.0,0.0,0.0,0.0,0.0,0.0,0.0,0.0,0.0,0.0,0.0,0.0,0.0,0.0,0.0,0.0,0.0,0.0,0.0,0.0,0.0,0.0,0.0,0.0,0.0,0.0,0.0,0.0,0.0,0.0,0.0,0.0,0.0,0.0,0.0,0.0,0.0,0.0,0.0,0.0,0.0,0.0,0.0,0.0,0.0,0.0,0.0,0.0,0.0,0.0,0.0,0.0,0.0,0.0,0.0,0.0,0.0,0.0,0.0,0.0,0.0,0.0,0.0,0.0,0.0,2.1093,2.1093,2.1093,2.1093,2.1093,2.1093,2.1093,0.0,0.0,0.0,0.0,0.0,0.0,0.0,0.0,0.0,0.0,0.0,0.0,0.0,0.0,0.0,0.0,0.0,0.0,0.0,0.0,0.0,0.0,0.0,0.0,0.0,0.0,0.0,0.0,0.0,0.0,0.0,0.0,0.0,0.0,0.0,0.0,0.0,0.0,0.0,0.0,0.0,0.0,0.0,0.0,0.0,0.0,0.0,0.0,0.0,0.0,0.0,0.0,0.0,0.0,0.0,0.0,0.0,0.0,0.0,0.0,0.0,0.0,0.0,0.0,0.0,0.0,0.0,0.0,0.0,0.0,0.0,0.0,0.0,0.0,0.0,0.0,0.0,0.0,0.0,0.0,0.0,0.0,0.0,0.0,0.0,0.0,0.0,0.0,0.0,0.0,0.0,0.0,0.0,0.0,0.0,0.0,0.0,0.0,0.0,0.0,0.0,0.0,0.0,0.0,0.0,0.0,0.0,0.0,0.0,2.1093,2.1093,2.1093,2.1093,2.1093,2.1093,0.0,0.0,0.0,0.0,0.0,0.0,0.0,0.0,0.0,0.0,0.0,0.0,0.0,0.0,0.0,0.0,0.0,0.0,0.0,0.0,0.0,0.0,0.0,0.0,0.0,0.0,0.0,0.0,0.0,0.0,0.0,0.0,0.0,0.0,0.0,0.0,0.0,0.0,0.0,0.0,0.0,0.0,0.0,0.0,0.0,0.0,0.0,0.0,0.0,0.0,0.0,0.0,0.0,0.0,0.0,0.0,0.0,0.0,0.0,0.0,0.0,0.0,0.0,0.0,0.0,0.0,0.0,0.0,0.0,0.0,0.0,0.0,0.0,0.0,0.0,0.0,0.0,0.0,0.0,0.0,0.0,0.0,0.0,0.0,0.0,0.0,0.0,0.0,0.0,0.0,0.0,0.0,0.0,0.0,0.0,0.0,0.0,0.0,0.0,0.0,0.0,0.0,0.0,0.0,0.0,0.0,0.0,0.0,0.0,2.1093,2.1093,2.1093,2.1093,2.1093,2.1093,2.1093,0.0,0.0,0.0,0.0,0.0,0.0,0.0,0.0,0.0,0.0,0.0,0.0,0.0,0.0,0.0,0.0,0.0,0.0,0.0,0.0,0.0,0.0,0.0,0.0,0.0,0.0,0.0,0.0,0.0,0.0,0.0,0.0,0.0,0.0,0.0,0.0,0.0,0.0,0.0,0.0,0.0,0.0,0.0,0.0,0.0,0.0,0.0,0.0,0.0,0.0,0.0,0.0,0.0,0.0,0.0,0.0,0.0,0.0,0.0,0.0,0.0,0.0,0.0,0.0,0.0,0.0,0.0,0.0,0.0,0.0,0.0,0.0,0.0,0.0,0.0,0.0,0.0,0.0,0.0,0.0,0.0,0.0,0.0,0.0,0.0,0.0,0.0,0.0,0.0,0.0,0.0,0.0,0.0,0.0,0.0,0.0,0.0,0.0,0.0,0.0,0.0,0.0,0.0,0.0,0.0,0.0,0.0,0.0,2.1093,2.1093,2.1093,2.1093,2.1093,2.1093,0.0,0.0,0.0,0.0,0.0,0.0,0.0,0.0,0.0,0.0,0.0,0.0,0.0,0.0,0.0,0.0,0.0,0.0,0.0,0.0,0.0,0.0,0.0,0.0,0.0,0.0,0.0,0.0,0.0,0.0,0.0,0.0,0.0,0.0,0.0,0.0,0.0,0.0,0.0,0.0,0.0,0.0,0.0,0.0,0.0,0.0,0.0,0.0,0.0,0.0,0.0,0.0,0.0,0.0,0.0,0.0,0.0,0.0,0.0,0.0,0.0,0.0,0.0,0.0,0.0,0.0,0.0,0.0,0.0,0.0,0.0,0.0,0.0,0.0,0.0,0.0,0.0,0.0,0.0,0.0,0.0,0.0,0.0,0.0,0.0,0.0,0.0,0.0,0.0,0.0,0.0,0.0,0.0,0.0,0.0,0.0,0.0,0.0,0.0,0.0,0.0,0.0,0.0,0.0,0.0,0.0,0.0,0.0,0.0,2.1093,2.1093,2.1093,2.1093,2.1093,2.1093,0.0,0.0,0.0,0.0,0.0,0.0,0.0,0.0,0.0,0.0,0.0,0.0,0.0,0.0,0.0,0.0,0.0,0.0,0.0,0.0,0.0,0.0,0.0,0.0,0.0,0.0,0.0,0.0,0.0,0.0,0.0,0.0,0.0,0.0,0.0,0.0,0.0,0.0,0.0,0.0,0.0,0.0,0.0,0.0,0.0,0.0,0.0,0.0,0.0,0.0,0.0,0.0,0.0,0.0,0.0,0.0,0.0,0.0,0.0,0.0,0.0,0.0,0.0,0.0,0.0,0.0,0.0,0.0,0.0,0.0,0.0,0.0,0.0,0.0,0.0,0.0,0.0,0.0,0.0,0.0,0.0,0.0,0.0,0.0,0.0,0.0,0.0,0.0,0.0,0.0,0.0,0.0,0.0,0.0,0.0,0.0,0.0,0.0,0.0,0.0,0.0,0.0,0.0,0.0,0.0,0.0,0.0,0.0,2.1093,2.1093,2.1093,2.1093,2.1093,2.1093,2.1093,0.0,0.0,0.0,0.0,0.0,0.0,0.0,0.0,0.0,0.0,0.0,0.0,0.0,0.0,0.0,0.0,0.0,0.0,0.0,0.0,0.0,0.0,0.0,0.0,0.0,0.0,0.0,0.0,0.0,0.0,0.0,0.0,0.0,0.0,0.0,0.0,0.0,0.0,0.0,0.0,0.0,0.0,0.0,0.0,0.0,0.0,0.0,0.0,0.0,0.0,0.0,0.0,0.0,0.0,0.0,0.0,0.0,0.0,0.0,0.0,0.0,0.0,0.0,0.0,0.0,0.0,0.0,0.0,0.0,0.0,0.0,0.0,0.0,0.0,0.0,0.0,0.0,0.0,0.0,0.0,0.0,0.0,0.0,0.0,0.0,0.0,0.0,0.0,0.0,0.0,0.0,0.0,0.0,0.0,0.0,0.0,0.0,0.0,0.0,0.0,0.0,0.0,0.0,0.0,0.0,0.0,0.0,0.0,2.1093,2.1093,2.1093,2.1093,2.1093,2.1093,2.1093,0.0,0.0,0.0,0.0,0.0,0.0,0.0,0.0,0.0,0.0,0.0,0.0,0.0,0.0,0.0,0.0,0.0,0.0,0.0,0.0,0.0,0.0,0.0,0.0,0.0,0.0,0.0,0.0,0.0,0.0,0.0,0.0,0.0,0.0,0.0,0.0,0.0,0.0,0.0,0.0,0.0,0.0,0.0,0.0,0.0,0.0,0.0,0.0,0.0,0.0,0.0,0.0,0.0,0.0,0.0,0.0,0.0,0.0,0.0,0.0,0.0,0.0,0.0,0.0,0.0,0.0,0.0,0.0,0.0,0.0,0.0,0.0,0.0,0.0,0.0,0.0,0.0,0.0,0.0,0.0,0.0,0.0,0.0,0.0,0.0,0.0,0.0,0.0,0.0,0.0,0.0,0.0,0.0,0.0,0.0,0.0,0.0,0.0,0.0,0.0,0.0,0.0,0.0,0.0,0.0,0.0,0.0,0.0,2.1093,2.1093,2.1093,2.1093,2.1093,2.1093,2.1093,0.0,0.0,0.0,0.0,0.0,0.0,0.0,0.0,0.0,0.0,0.0,0.0,0.0,0.0,0.0,0.0,0.0,0.0,0.0,0.0,0.0,0.0,0.0,0.0,0.0,0.0,0.0,0.0,0.0,0.0,0.0,0.0,0.0,0.0,0.0,0.0,0.0,0.0,0.0,0.0,0.0,0.0,0.0,0.0,0.0,0.0,0.0,0.0,2.1093,0.0,0.0,0.0,0.0,0.0,0.0,0.0,0.0,0.0,0.0,0.0,0.0,0.0,0.0,0.0,0.0,0.0,0.0,0.0,0.0,0.0,0.0,0.0,0.0,0.0,0.0,0.0,0.0,0.0,0.0,0.0,0.0,0.0,0.0,0.0,0.0,0.0,0.0,0.0,0.0,0.0,0.0,0.0,0.0,0.0,0.0,0.0,0.0,0.0,0.0,0.0,0.0,0.0,0.0,0.0,0.0,0.0,0.0,0.0,2.1093,2.1093,2.1093,2.1093,2.1093,2.1093,2.1093,0.0,0.0,0.0,0.0,0.0,0.0,0.0,0.0,0.0,0.0,0.0,0.0,0.0,0.0,0.0,0.0,0.0,0.0,0.0,0.0,0.0,0.0,0.0,0.0,0.0,0.0,0.0,0.0,0.0,0.0,0.0,0.0,0.0,0.0,0.0,0.0,0.0,0.0,0.0,0.0,0.0,0.0,0.0,0.0,0.0,0.0,0.0,0.0,0.0,0.0,0.0,0.0,0.0,0.0,0.0,0.0,0.0,0.0,0.0,0.0,0.0,0.0,0.0,0.0,0.0,0.0,0.0,0.0,0.0,0.0,0.0,0.0,0.0,0.0,0.0,0.0,0.0,0.0,0.0,0.0,0.0,0.0,0.0,0.0,0.0,0.0,0.0,0.0,0.0,0.0,0.0,0.0,0.0,0.0,0.0,0.0,0.0,0.0,0.0,0.0,0.0,0.0,0.0,0.0,0.0,0.0,0.0,2.1093,2.1093,2.1093,2.1093,2.1093,2.1093,2.1093,2.1093,2.1093,0.0,0.0,0.0,0.0,0.0,0.0,0.0,0.0,0.0,0.0,0.0,0.0,0.0,0.0,0.0,0.0,0.0,0.0,0.0,0.0,0.0,0.0,0.0,0.0,0.0,0.0,0.0,0.0,0.0,0.0,0.0,0.0,0.0,0.0,0.0,0.0,0.0,0.0,2.1093,2.1093,0.0,0.0,0.0,0.0,0.0,0.0,0.0,0.0,2.1093,0.0,0.0,0.0,0.0,0.0,0.0,0.0,0.0,0.0,0.0,0.0,0.0,0.0,0.0,0.0,0.0,0.0,0.0,0.0,0.0,0.0,0.0,0.0,0.0,0.0,0.0,0.0,0.0,0.0,0.0,0.0,0.0,0.0,0.0,0.0,0.0,0.0,0.0,0.0,0.0,0.0,0.0,0.0,0.0,0.0,0.0,0.0,0.0,0.0,0.0,0.0,0.0,0.0,0.0,0.0,0.0,2.1093,2.1093,2.1093,2.1093,2.1093,2.1093,2.1093,2.1093,2.1093,2.1093,0.0,0.0,0.0,0.0,0.0,0.0,0.0,0.0,0.0,0.0,0.0,0.0,0.0,0.0,0.0,0.0,0.0,0.0,0.0,0.0,0.0,0.0,0.0,0.0,0.0,0.0,0.0,0.0,0.0,0.0,0.0,0.0,0.0,0.0,0.0,0.0,0.0,0.0,0.0,2.1093,2.1093,0.0,0.0,0.0,0.0,0.0,0.0,0.0,0.0,2.1093,0.0,0.0,0.0,0.0,0.0,0.0,0.0,0.0,0.0,0.0,0.0,0.0,0.0,0.0,0.0,0.0,0.0,0.0,0.0,0.0,0.0,0.0,0.0,0.0,0.0,0.0,0.0,0.0,0.0,0.0,0.0,0.0,0.0,0.0,0.0,0.0,0.0,0.0,0.0,0.0,0.0,0.0,0.0,0.0,0.0,0.0,0.0,0.0,0.0,0.0,0.0,0.0,0.0,0.0,0.0,2.1093,2.1093,2.1093,2.1093,2.1093,2.1093,2.1109,2.1947,2.201,0.0,0.0,0.0,0.0,0.0,0.0,0.0,0.0,0.0,0.0,0.0,0.0,0.0,0.0,0.0,0.0,0.0,0.0,0.0,0.0,0.0,0.0,0.0,0.0,0.0,0.0,0.0,0.0,0.0,0.0,0.0,0.0,0.0,0.0,0.0,0.0,0.0,0.0,0.0,0.0,2.1093,2.1093,2.1093,0.0,0.0,0.0,0.0,0.0,0.0,2.1093,2.1093,0.0,0.0,0.0,0.0,0.0,0.0,0.0,0.0,0.0,0.0,0.0,0.0,0.0,0.0,0.0,0.0,0.0,0.0,0.0,0.0,0.0,0.0,0.0,0.0,0.0,0.0,0.0,0.0,0.0,0.0,0.0,0.0,0.0,0.0,0.0,0.0,0.0,0.0,0.0,0.0,0.0,0.0,0.0,0.0,0.0,0.0,0.0,0.0,0.0,0.0,0.0,0.0,0.0,0.0,0.0,2.1093,2.1093,2.1326,2.1699,2.173,2.1755,2.1826,2.3365,2.3273,0.0,0.0,0.0,0.0,0.0,0.0,0.0,0.0,0.0,0.0,0.0,0.0,0.0,0.0,0.0,0.0,0.0,0.0,0.0,0.0,0.0,0.0,0.0,0.0,0.0,0.0,0.0,0.0,0.0,0.0,0.0,0.0,0.0,0.0,0.0,0.0,0.0,0.0,0.0,0.0,0.0,2.1093,2.1093,2.1093,0.0,0.0,0.0,0.0,2.1093,2.1093,0.0,0.0,0.0,0.0,0.0,0.0,0.0,0.0,0.0,0.0,0.0,0.0,0.0,0.0,0.0,0.0,0.0,0.0,0.0,0.0,0.0,0.0,0.0,0.0,0.0,0.0,0.0,0.0,0.0,0.0,0.0,0.0,0.0,0.0,0.0,0.0,0.0,0.0,0.0,0.0,0.0,0.0,0.0,0.0,0.0,0.0,0.0,0.0,0.0,0.0,0.0,0.0,0.0,0.0,0.0,0.0,2.1093,2.1093,2.1993,2.374,2.385,2.3967,2.4218,2.5533,2.4765,0.0,0.0,0.0,0.0,0.0,0.0,0.0,0.0,0.0,0.0,0.0,0.0,0.0,0.0,0.0,0.0,0.0,0.0,0.0,0.0,0.0,0.0,0.0,0.0,0.0,0.0,0.0,0.0,0.0,0.0,0.0,0.0,0.0,0.0,0.0,0.0,0.0,0.0,0.0,0.0,0.0,2.1093,2.1093,2.1093,2.1093,0.0,0.0,2.1093,2.1093,2.1093,0.0,0.0,0.0,0.0,0.0,0.0,0.0,0.0,0.0,0.0,0.0,0.0,0.0,0.0,0.0,0.0,0.0,0.0,0.0,0.0,0.0,0.0,0.0,0.0,0.0,0.0,0.0,0.0,0.0,0.0,0.0,0.0,0.0,0.0,0.0,0.0,0.0,0.0,0.0,0.0,0.0,0.0,0.0,0.0,0.0,0.0,0.0,0.0,0.0,0.0,0.0,0.0,0.0,0.0,0.0,2.3075,2.3123,2.4096,2.506,2.5929,2.5945,2.6009,2.6136,2.7584,2.7249,0.0,0.0,0.0,0.0,0.0,0.0,0.0,0.0,0.0,0.0,0.0,0.0,0.0,0.0,0.0,0.0,0.0,0.0,0.0,0.0,0.0,0.0,0.0,0.0,0.0,0.0,0.0,0.0,0.0,0.0,0.0,0.0,0.0,0.0,0.0,0.0,0.0,0.0,0.0,0.0,0.0,0.0,2.2372,2.1727,0.0,0.0,0.0,2.2123,2.4288,0.0,0.0,0.0,0.0,0.0,0.0,0.0,0.0,0.0,0.0,0.0,0.0,0.0,0.0,0.0,0.0,0.0,0.0,0.0,0.0,0.0,0.0,0.0,0.0,0.0,0.0,0.0,0.0,0.0,0.0,0.0,0.0,0.0,0.0,0.0,0.0,0.0,0.0,0.0,0.0,0.0,0.0,0.0,0.0,0.0,0.0,0.0,0.0,0.0,0.0,0.0,0.0,0.0,0.0,0.0,0.0,0.0,2.4627,2.6375,2.7568,2.8063,2.8063,2.8114,2.82,2.9657,0.0,0.0,0.0,0.0,0.0,0.0,0.0,0.0,0.0,0.0,0.0,0.0,0.0,0.0,0.0,0.0,0.0,0.0,0.0,0.0,0.0,0.0,0.0,0.0,0.0,0.0,0.0,2.1093,0.0,0.0,0.0,0.0,0.0,0.0,0.0,0.0,0.0,0.0,0.0,0.0,0.0,0.0,2.2486,2.413,2.3392,2.3651,0.0,0.0,2.402,2.6851,2.6168,2.5561,0.0,0.0,0.0,0.0,0.0,0.0,0.0,0.0,0.0,0.0,0.0,0.0,0.0,0.0,0.0,0.0,0.0,0.0,0.0,0.0,0.0,0.0,0.0,0.0,0.0,0.0,0.0,0.0,0.0,0.0,0.0,0.0,0.0,0.0,0.0,0.0,0.0,0.0,0.0,0.0,0.0,0.0,0.0,0.0,0.0,0.0,0.0,0.0,0.0,0.0,0.0,0.0,0.0,0.0,0.0,2.466,2.6391,2.8287,3.0108,3.0205,3.0304,3.0584,3.1895,3.1061,0.0,0.0,0.0,0.0,0.0,0.0,0.0,0.0,0.0,0.0,0.0,0.0,0.0,0.0,0.0,0.0,0.0,0.0,0.0,0.0,0.0,0.0,0.0,0.0,0.0,0.0,0.0,0.0,0.0,0.0,0.0,0.0,0.0,0.0,0.0,0.0,0.0,0.0,0.0,0.0,0.0,2.4575,2.6187,2.6684,2.6961,0.0,0.0,2.701,2.728,2.7234,2.6614,2.5063,0.0,0.0,0.0,0.0,0.0,0.0,0.0,0.0,0.0,0.0,0.0,0.0,0.0,0.0,0.0,0.0,0.0,0.0,0.0,0.0,0.0,0.0,0.0,0.0,0.0,0.0,0.0,0.0,0.0,0.0,0.0,0.0,0.0,0.0,0.0,0.0,0.0,0.0,0.0,0.0,0.0,0.0,0.0,0.0,0.0,0.0,0.0,0.0,0.0,0.0,0.0,0.0,0.0,2.6822,2.6855,2.9621,3.1428,3.2213,3.2264,3.2289,3.2394,3.2896,3.2548,0.0,0.0,0.0,0.0,0.0,0.0,0.0,0.0,0.0,0.0,0.0,0.0,0.0,0.0,0.0,0.0,0.0,0.0,0.0,0.0,0.0,0.0,0.0,0.0,0.0,0.0,0.0,0.0,2.1093,2.1093,2.1093,0.0,0.0,0.0,0.0,0.0,0.0,0.0,0.0,0.0,0.0,2.6687,2.8282,2.7809,0.0,0.0,2.8903,2.8369,3.0717,3.0163,2.957,2.9954,3.0127,0.0,0.0,0.0,0.0,0.0,0.0,0.0,0.0,0.0,0.0,0.0,0.0,0.0,0.0,0.0,0.0,0.0,0.0,0.0,0.0,0.0,0.0,0.0,0.0,0.0,0.0,0.0,0.0,0.0,0.0,0.0,0.0,0.0,0.0,0.0,0.0,0.0,0.0,0.0,0.0,0.0,0.0,0.0,0.0,0.0,0.0,0.0,0.0,0.0,0.0,0.0,0.0,2.8984,2.8984,3.1899,3.3386,3.3386,3.3386,3.3386,3.3386,3.3386,3.3386,0.0,0.0,0.0,0.0,0.0,0.0,0.0,0.0,0.0,0.0,0.0,0.0,0.0,0.0,0.0,0.0,0.0,0.0,0.0,0.0,0.0,0.0,0.0,0.0,0.0,0.0,0.0,0.0,2.1189,2.1285,2.1363,0.0,0.0,0.0,0.0,0.0,0.0,0.0,0.0,0.0,0.0,2.8808,3.0389,2.9762,3.0036,3.2618,3.0948,3.0389,3.3186,3.2586,3.2075,3.2869,0.0,0.0,0.0,0.0,0.0,0.0,0.0,0.0,0.0,0.0,0.0,0.0,0.0,0.0,0.0,0.0,0.0,0.0,0.0,0.0,0.0,0.0,0.0,0.0,0.0,0.0,0.0,0.0,0.0,0.0,0.0,0.0,0.0,0.0,0.0,0.0,0.0,0.0,0.0,0.0,0.0,0.0,0.0,0.0,0.0,0.0,0.0,0.0,0.0,0.0,0.0,0.0,0.0,3.0741,3.0755,3.2514,3.3422,3.3422,3.3386,3.3422,3.3425,3.3422,3.3422,3.3406,0.0,0.0,0.0,0.0,0.0,0.0,0.0,0.0,0.0,0.0,0.0,0.0,0.0,0.0,0.0,0.0,0.0,0.0,0.0,0.0,0.0,0.0,0.0,0.0,0.0,0.0,2.1107,2.1408,2.1676,0.0,0.0,0.0,0.0,0.0,0.0,0.0,0.0,0.0,0.0,3.0017,3.0919,3.2479,3.3015,3.3189,3.3383,3.3292,3.3447,3.4004,3.4046,3.3613,0.0,0.0,0.0,0.0,0.0,0.0,0.0,0.0,0.0,0.0,0.0,0.0,0.0,0.0,0.0,0.0,0.0,0.0,0.0,0.0,0.0,0.0,0.0,0.0,0.0,0.0,0.0,2.467,2.5039,0.0,0.0,0.0,0.0,0.0,0.0,0.0,0.0,0.0,0.0,0.0,2.7176,2.947,0.0,0.0,0.0,0.0,0.0,0.0,0.0,0.0,0.0,0.0,0.0,0.0,3.1666,3.1748,3.3378,3.4277,3.4261,3.4277,3.4277,3.4277,3.4277,3.4141,3.3867,0.0,0.0,0.0,0.0,0.0,0.0,0.0,0.0,0.0,0.0,0.0,0.0,0.0,0.0,0.0,0.0,0.0,0.0,0.0,0.0,0.0,0.0,0.0,0.0,0.0,2.1713,0.0,0.0,0.0,0.0,0.0,0.0,0.0,0.0,0.0,0.0,0.0,2.8889,3.0027,3.1448,3.2602,3.3125,3.3574,3.3864,0.0,0.0,0.0,0.0,0.0,0.0,0.0,0.0,0.0,0.0,0.0,0.0,0.0,0.0,3.4122,3.3683,3.3587,3.3444,3.3012,0.0,0.0,0.0,0.0,0.0,0.0,0.0,0.0,0.0,0.0,0.0,0.0,0.0,0.0,0.0,0.0,2.5543,0.0,0.0,0.0,0.0,0.0,0.0,0.0,0.0,2.9551,2.9967,2.9299,3.154,3.2053,0.0,3.2523,3.2719,0.0,0.0,0.0,0.0,0.0,0.0,0.0,0.0,3.2999,3.3049,3.4129,3.4687,3.4687,3.4687,3.4687,3.4687,3.4687,3.4587,3.4333,3.4313,3.4176,0.0,0.0,0.0,0.0,0.0,0.0,0.0,0.0,0.0,0.0,0.0,0.0,0.0,0.0,0.0,0.0,0.0,0.0,0.0,0.0,0.0,0.0,0.0,2.2958,0.0,0.0,0.0,0.0,0.0,0.0,0.0,0.0,0.0,2.6793,2.8939,3.0813,3.1599,3.2839,3.3691,3.3848,0.0,0.0,0.0,0.0,0.0,0.0,0.0,3.498,3.5137,3.514,3.5156,3.5156,3.5156,3.514,3.5156,0.0,0.0,3.5,3.4941,3.4964,3.512,3.4941,3.4841,3.5098,3.4941,3.4824,0.0,0.0,0.0,0.0,0.0,0.0,0.0,0.0,2.7322,2.7737,0.0,2.7881,0.0,0.0,0.0,0.0,0.0,0.0,0.0,0.0,3.1818,3.2832,3.2824,3.3214,3.3441,3.348,3.3887,3.4082,3.4046,3.364,0.0,0.0,0.0,0.0,0.0,0.0,3.4746,3.4736,3.4808,3.4785,3.4824,3.4805,3.4785,3.4802,3.4785,3.4766,3.4726,3.4726,3.4723,3.4687,3.4671,0.0,0.0,0.0,0.0,0.0,0.0,0.0,0.0,0.0,0.0,0.0,0.0,0.0,0.0,0.0,0.0,0.0,0.0,0.0,0.0,2.4754,0.0,0.0,0.0,0.0,0.0,0.0,0.0,0.0,0.0,0.0,3.0897,3.0956,3.1697,3.3814,0.0,0.0,0.0,0.0,3.4726,3.4726,3.4746,3.4941,3.5371,3.5466,3.5605,3.5996,0.0,0.0,3.6021,3.6038,3.6055,3.6038,3.6387,3.6443,3.5642,3.5508,3.5605,3.5959,3.6018,3.6038,3.6038,3.6035,3.6018,3.1827,0.0,0.0,0.0,0.0,3.113,3.1111,3.1099,3.0754,3.0872,3.1211,2.9686,0.0,0.0,0.0,0.0,0.0,0.0,3.0476,3.1933,3.2828,3.3398,3.3743,3.4141,3.4336,3.4336,3.4453,3.4528,3.4528,3.4378,3.4394,3.4547,0.0,0.0,0.0,0.0,3.613,3.613,3.6406,3.6562,3.6562,3.6543,3.6423,3.6147,3.613,3.5837,3.5215,3.5195,3.5039,3.4726,3.4687,0.0,0.0,0.0,0.0,0.0,0.0,0.0,0.0,0.0,0.0,0.0,0.0,0.0,0.0,0.0,0.0,0.0,0.0,0.0,2.7017,2.8272,2.8566,0.0,0.0,0.0,0.0,0.0,0.0,0.0,0.0,0.0,3.3421,3.3582,3.3835,0.0,0.0,3.4587,3.4687,3.498,3.5195,3.5195,0.0,0.0,0.0,3.6562,3.6797,3.6914,3.6934,3.6934,3.6934,3.6934,3.6934,3.6934,3.7049,3.7031,3.6834,3.6775,3.6797,3.6894,3.6934,3.6934,3.6934,3.6934,3.6914,3.3199,3.3137,3.2492,3.2198,3.2198,3.2198,3.2198,3.2218,3.2374,3.2437,3.2391,3.155,3.1168,3.114,3.0359,0.0,0.0,0.0,3.2362,3.3555,3.3793,3.4046,3.4352,3.4782,3.498,3.5,3.5329,3.5485,3.5505,3.5644,3.5723,3.5739,0.0,0.0,3.6152,3.666,3.6931,3.6951,3.7185,3.7305,3.7305,3.7305,3.7187,3.6951,3.6931,3.6619,3.5954,3.5915,3.57,3.5234,3.5215,3.5137,0.0,0.0,0.0,0.0,0.0,0.0,0.0,0.0,0.0,0.0,0.0,2.559,0.0,0.0,0.0,0.0,2.6951,2.8227,3.0336,3.0845,0.0,0.0,0.0,0.0,0.0,0.0,0.0,3.2627,3.3184,3.3796,3.4848,3.529,3.5371,3.5019,3.5117,3.5293,3.5466,0.0,3.6152,3.6152,3.6599,3.6931,3.6951,3.7146,3.7305,3.7305,3.7305,3.7305,3.7305,3.7305,3.7305,3.7305,3.7422,3.7539,3.7521,3.7693,3.7693,3.7363,3.7305,3.7305,3.7305,3.7305,3.7305,3.4766,3.4609,3.3058,3.2413,3.2394,3.2394,3.2398,3.2433,3.2808,3.2949,3.2969,3.3359,3.35,3.3539,3.3961,0.0,0.0,3.457,3.471,3.4766,3.4824,3.4844,3.4883,3.5332,3.5547,3.5566,3.6365,3.6736,3.6756,3.709,3.7305,3.7324,3.6562,3.6526,3.7266,3.7342,3.7344,3.7344,3.7383,3.7402,3.7402,3.742,3.7383,3.7326,3.7344,3.7148,3.6756,3.6736,3.6541,3.6077,3.6057,3.5879,3.5485,0.0,0.0,0.0,0.0,0.0,0.0,0.0,0.0,0.0,0.0,0.0,0.0,0.0,0.0,0.0,3.0099,0.0,3.3969,3.2672,0.0,0.0,0.0,3.0496,3.2185,3.237,3.299,3.4662,0.0,0.0,0.0,0.0,3.6443,3.5644,3.5862,3.6269,3.6677,3.7012,3.7305,3.7209,3.7305,3.7344,3.7344,3.7422,3.748,3.748,3.7383,3.7441,3.7461,3.7441,3.7422,3.7461,3.7715,3.7951,3.7969,3.8281,3.8338,3.7578,3.7441,3.7422,3.7461,3.748,3.748,3.5234,3.5156,3.4414,3.4118,3.4118,3.4118,3.4101,3.4137,3.4199,3.4222,3.4274,3.4355,3.4394,3.4394,3.4512,3.4551,3.4587,3.5036,3.5234,3.5273,3.5915,3.6245,3.6247,3.6641,3.6853,3.6855,3.7051,3.7166,3.7166,3.7246,3.7443,3.7736,3.756,3.7404,3.7324,3.7599,3.7756,3.7738,3.8105,3.828,3.828,3.8299,3.8123,3.7756,3.7756,3.756,3.7168,3.7166,3.6953,3.656,3.6541,3.6326,3.5881,3.5566,0.0,0.0,0.0,0.0,0.0,0.0,0.0,0.0,0.0,3.0072,2.876,0.0,3.079,0.0,3.2751,3.399,3.4499,3.4155,0.0,0.0,3.3697,3.3747,3.4507,3.4614,3.5013,3.6099,3.6306,3.6502,3.6816,3.7012,3.707,3.6875,3.6916,3.7031,3.7148,3.7226,3.7305,3.7344,3.756,3.7756,3.7775,3.8066,3.826,3.8299,3.828,3.828,3.828,3.8281,3.8281,3.8299,3.834,3.8418,3.8456,3.8552,3.8553,3.8338,3.828,3.8299,3.8299,3.828,3.828,3.6267,3.623,3.5957,3.5859,3.5818,3.5019,3.4687,3.4707,3.4922,3.5,3.5019,3.5215,3.5293,3.5276,3.5488,3.5566,3.5622,3.6035,3.623,3.6269,3.6736,3.697,3.699,3.7383,3.7578,3.7578,3.7791,3.7889,3.7889,3.7889,3.7988,3.8205,3.8223,3.8203,3.8144,3.8203,3.8203,3.8223,3.8456,3.8592,3.8592,3.8592,3.8475,3.8223,3.8223,3.8027,3.7598,3.756,3.7383,3.6973,3.697,3.6853,3.6601,3.6191,3.5974,0.0,0.0,0.0,0.0,0.0,0.0,0.0,0.0,0.0,0.0,0.0,3.2988,0.0,0.0,0.0,3.5,3.5019,3.5156,3.5564,3.5603,3.5759,3.6191,3.623,3.6443,3.6912,3.697,3.7049,3.7266,3.7461,3.7578,3.7578,3.7752,3.7793,3.7637,3.7734,3.7871,3.7889,3.8084,3.8223,3.8203,3.8436,3.8592,3.8592,3.8592,3.8651,3.8827,3.8866,3.8925,3.9139,3.9179,3.9179,3.9179,3.9179,3.9179,3.9179,3.9179,3.91,3.8906,3.9023,3.9179,3.74,3.7363,3.7342,3.7305,3.7187,3.5664,3.5056,3.5059,3.5469,3.5644,3.5664,3.5999,3.6174,3.6194,3.6582,3.6792,3.6795,3.7187,3.7383,3.74,3.7441,3.7461,3.748,3.7814,3.799,3.8009,3.8457,3.8671,3.8671,3.8729,3.8768,3.8787,3.8768,3.8944,3.9258,3.8944,3.8787,3.8768,3.8768,3.8729,3.8671,3.8671,3.8669,3.8592,3.8592,3.8416,3.8009,3.799,3.7812,3.7402,3.7383,3.7344,3.7285,3.697,3.6792,0.0,3.6406,0.0,0.0,0.0,0.0,0.0,0.0,0.0,0.0,3.4824,3.4883,3.4941,3.4961,3.5137,3.5605,3.5644,3.5937,3.6695,3.6775,3.6912,3.7246,3.7305,3.7305,3.7346,3.7383,3.7383,3.75,3.7775,3.799,3.8107,3.8398,3.8535,3.8283,3.8457,3.8631,3.8671,3.8747,3.8789,3.8807,3.8788,3.8807,3.8788,3.8845,3.8885,3.9257,3.9297,3.9414,3.9766,3.9824,3.9844,3.9883,3.9863,3.9863,3.9824,3.9941,3.9902,3.9453,3.9551,3.9883,3.7777,3.7756,3.7441,3.7305,3.7266,3.6953,3.6797,3.6816,3.6912,3.6934,3.6953,3.7031,3.707,3.707,3.7148,3.7205,3.7187,3.7599,3.7795,3.7795,3.8164,3.8358,3.8358,3.8436,3.8475,3.8495,3.8887,3.9082,3.9101,3.9473,3.9667,3.9667,3.9648,3.9706,0.0,0.0,0.0,0.0,3.9667,3.9472,3.9101,3.91,3.8944,3.8612,3.8592,0.0,3.8475,3.8475,3.8242,3.7814,3.7795,0.0,0.0,0.0,0.0,0.0,0.0,0.0,0.0,0.0,0.0,0.0,3.6758,3.6387,3.5388,3.5566,3.5918,3.6284,3.6343,3.6502,3.6894,3.6934,3.7012,3.7166,3.7205,3.7226,3.7285,3.7305,3.7422,3.7756,3.7795,3.7949,3.8281,3.8436,3.8594,3.8887,3.9023,3.9199,3.9453,3.9238,3.9082,3.9101,3.9374,3.9609,3.9648,3.9609,3.9589,3.9667,3.9648,3.9687,3.9746,3.9785,3.9766,3.9961,3.9883,3.9941,3.9941,3.9883,4.0,3.9902,4.0488,4.0722,3.996,3.9844,3.9883,3.8242,0.0,3.8026,3.793,0.0,3.7948,3.793,3.7928,3.7677,3.7715,3.793,3.7948,3.7948,3.7948,3.7948,3.7948,3.7948,3.8162,3.8359,3.8556,3.8789,3.9022,3.9257,3.9257,3.9237,3.9257,3.9434,3.9551,3.9551,3.9785,3.9883,3.9883,3.9883,4.0,4.0215,4.041,4.0351,3.9902,3.9883,3.9785,3.9551,3.9551,3.9453,3.9257,0.0,0.0,0.0,0.0,0.0,0.0,0.0,0.0,0.0,0.0,0.0,3.7598,3.7402,3.7305,3.7305,3.7305,3.7305,3.7305,3.7305,3.7031,3.6387,3.6523,3.6721,3.697,3.699,3.7088,3.7266,3.7305,3.7365,3.756,3.7599,3.7676,3.7889,3.7948,3.8123,3.8458,3.8536,3.8712,3.9198,3.9237,3.9316,3.9512,3.9551,3.9648,3.9824,3.9707,3.9551,3.9551,3.9726,3.9883,3.9883,3.9883,3.9902,3.9902,4.0078,4.0273,4.0507,4.0722,4.0898,4.1074,4.1133,4.1133,4.1152,4.1152,4.1113,4.1172,4.1484,4.168,4.123,4.1113,4.1152,3.8827,3.8827,3.8827,3.8827,3.8827,3.8845,3.8827,3.8788,0.0,0.0,0.0,3.8592,3.8631,3.871,3.871,3.8749,3.8827,3.8845,3.8984,3.9316,3.9317,3.9531,3.9883,3.9883,3.9883,3.9902,4.0039,4.0136,4.0156,4.0273,4.0332,4.0332,4.0332,4.0489,4.084,4.1211,4.1055,4.0371,4.0195,4.0097,4.0,4.0019,3.9961,3.9902,3.9883,3.9726,3.9336,3.9316,3.916,3.8846,3.8749,3.871,3.869,3.8281,3.8029,3.8009,3.7715,3.7519,3.7519,3.7537,3.7519,3.7519,3.7519,3.7461,3.7324,3.7305,3.7342,3.7402,3.7385,3.7441,3.7519,3.7519,3.7656,3.799,3.8087,3.8283,3.8651,3.8806,3.8964,3.9258,3.9278,3.9453,3.9785,3.9844,3.9961,4.0098,4.0156,4.0234,4.0293,4.0292,4.0214,4.0293,4.0469,4.043,4.0371,4.043,4.0351,4.0488,4.0684,4.0957,4.1328,4.168,4.2011,4.2207,4.2382,4.2343,4.2363,4.2285,4.2402,4.2402,4.25,4.2519,4.2519,4.2577,4.2519,3.9707,3.9707,3.9726,3.9707,3.9707,3.9707,3.9707,3.9648,3.8866,3.8534,3.8592,3.8592,3.8788,3.9101,3.9121,3.9354,3.9707,3.9707,3.9746,0.0,3.9785,3.9824,3.9883,3.9883,3.9883,3.9941,4.0664,4.1035,4.1094,4.1719,4.205,4.2031,4.205,4.205,4.2128,4.2207,4.2167,4.2031,4.1367,4.0801,4.043,4.041,4.0235,3.9922,3.9902,3.9863,3.9823,3.9805,3.9766,3.9707,3.9336,3.9121,3.9101,3.8711,3.8495,3.8495,3.8436,3.8416,3.8435,3.8416,3.8416,3.8416,3.8416,3.8104,3.7383,3.7305,3.7441,3.7757,3.7834,3.797,3.8338,3.8397,3.8436,3.8514,3.8809,3.9044,3.9121,3.9434,3.9706,3.9785,3.9805,3.9843,3.998,4.0,4.0312,4.0839,4.0996,4.123,4.1641,4.1445,4.123,4.1504,4.1836,4.2011,4.1875,4.2011,4.1894,4.205,4.1991,4.207,4.2168,4.2285,4.2421,4.2441,4.2538,4.2519,4.2519,4.2402,4.2558,4.2636,4.2851,4.3066,4.3105,4.332,4.328,3.9883,3.9883,3.9883,3.9883,3.9883,3.9883,3.9883,3.9863,3.9473,3.9315,3.9315,3.9315,3.9413,3.957,3.957,3.9687,3.9883,3.9883,4.0137,4.0585,4.0625,4.084,4.123,4.125,4.1269,4.1289,4.166,4.1855,4.1894,4.2226,4.2402,4.2402,4.2402,4.2402,4.2402,4.2402,4.2402,4.2402,4.2031,4.1738,4.1543,4.1523,4.1445,4.125,4.1055,4.0839,4.0605,4.0371,4.0137,3.9921,3.9687,3.957,3.957,3.9413,3.9297,3.9315,3.9315,3.9296,3.9297,3.9315,3.9315,3.9315,3.9315,3.9159,3.875,3.8262,3.8084,3.8281,3.8476,3.8673,3.8925,3.9141,3.9297,3.9297,3.9491,3.957,3.959,3.9746,3.998,4.0196,4.0449,4.0664,4.0898,4.1133,4.1348,4.1797,4.1855,4.2031,4.2382,4.2324,4.2188,4.2168,4.2285,4.2382,4.2421,4.2402,4.2402,4.2402,4.2637,4.2754,4.2812,4.2909,4.3183,4.3437,4.3456,4.3594,4.371,4.3807,4.3827,4.3827,4.3944,4.4121,4.416,4.4297,4.4159,4.0469,4.0469,4.0469,4.0469,4.0469,4.0469,4.0469,4.0469,4.0488,4.0469,4.043,4.0078,4.0,4.0176,4.0214,4.0293,4.0449,4.045,4.082,4.1426,4.1484,4.1816,4.2343,4.2402,4.2402,4.2421,4.2499,4.2558,4.2558,4.2656,4.2753,4.2851,4.2948,4.2967,4.2967,4.2987,4.2987,4.2967,4.2987,4.2791,4.2421,4.2402,4.2402,4.2382,4.2089,4.1777,4.1484,4.1113,4.0742,4.0351,4.0253,4.0156,4.0039,3.9941,3.9883,3.9883,3.9883,3.9883,3.9883,3.9883,3.9883,3.9883,3.9883,3.9883,3.9844,3.9296,3.8885,3.8925,3.916,3.9355,3.9394,3.9648,3.9883,3.9902,4.0097,4.0195,4.0195,4.0332,4.0567,4.0918,4.125,4.1582,4.1894,4.2207,4.2382,4.248,4.2636,4.2734,4.2851,4.3183,4.3203,4.3065,4.2831,4.2812,4.2812,4.289,4.2968,4.2948,4.332,4.3555,4.3633,4.3828,4.4082,4.4394,4.4492,4.4551,4.4901,4.494,4.4901,4.4822,4.4822,4.492,4.4881,4.5018,4.5,4.2148,4.2167,4.2109,4.2148,4.2109,4.2128,4.2089,4.2109,4.2148,4.2167,4.1933,4.0586,4.0371,4.1035,4.1074,4.1445,4.207,4.2167,4.2187,4.2265,4.2285,4.2343,4.246,4.2421,4.2402,4.2519,4.2871,4.3126,4.3126,4.3418,4.3789,4.4219,4.4569,4.4705,4.4725,4.4725,4.4725,4.4764,4.4764,4.4003,4.2499,4.2402,4.2402,4.2402,4.2382,4.2324,4.2265,4.2265,4.2051,4.1641,4.1269,4.0898,4.0489,4.0137,3.9922,3.9941,3.9922,3.9883,3.9922,3.9883,3.9961,3.9883,3.998,3.998,3.998,3.9863,3.9785,3.9824,3.9862,3.9863,3.9824,3.9941,4.0078,4.0156,4.0664,4.1074,4.1152,4.1738,4.2167,4.2226,4.2167,4.2324,4.2343,4.248,4.2676,4.3125,4.3418,4.3711,4.4004,4.4121,4.4316,4.4432,4.41,4.3808,4.4023,4.4199,4.4219,4.453,4.4725,4.4707,4.4627,4.4686,4.492,4.4902,4.494,4.4998,4.5057,4.5018,4.5057,4.5193,4.5174,4.5076,4.5076,4.543,4.5527,4.2402,4.2402,4.2402,4.2402,4.2402,4.2402,4.2402,4.2402,4.2402,4.2402,4.2324,4.166,4.1582,4.1914,4.1894,4.2089,4.2402,4.2402,4.2538,4.2793,4.2812,4.3086,4.3534,4.3573,4.369,4.3944,4.412,4.4198,4.4258,4.4414,4.4569,4.4744,4.492,4.5018,4.5018,4.5018,4.5018,4.5018,4.5018,4.4647,4.4003,4.369,4.3436,4.3163,4.2949,4.2812,4.2793,4.2558,4.2324,4.2148,4.1992,4.1836,4.164,4.1465,4.1367,4.1367,4.1387,4.1367,4.1367,4.1367,4.1367,4.1367,4.1387,4.1367,4.1387,4.1367,4.1367,4.1328,4.0937,4.0761,4.0996,4.123,4.1367,4.1406,4.1699,4.1914,4.1914,4.2187,4.2402,4.2401,4.2656,4.2832,4.2891,4.3281,4.373,4.4121,4.4354,4.4531,4.4746,4.4744,4.4822,4.492,4.4666,4.4569,4.4746,4.4744,4.4842,4.4959,4.5018,4.5018,4.5037,4.5018,4.5076,4.5371,4.5469,4.5586,4.576,4.576,4.576,4.5779,4.6013,4.613,4.613,4.6504,4.6663,4.2753,4.2753,4.2733,4.2753,4.2753,4.2753,4.2831,4.2948,4.2948,4.3007,4.3104,4.3124,4.3124,4.3065,4.2753,4.2695,4.2929,4.2948,4.3183,4.3574,4.3634,4.3986,4.4531,4.4549,4.4726,4.4959,4.4979,4.4998,4.5018,4.5154,4.5215,4.5215,4.5291,4.535,4.535,4.5369,4.535,4.535,4.535,4.5332,4.5154,4.4902,4.4531,4.4082,4.3769,4.3575,4.3458,4.3105,4.2831,4.2597,4.2577,4.2519,4.2421,4.2402,4.2402,4.2402,4.2402,4.2402,4.2402,4.2402,4.2402,4.2402,4.2402,4.2402,4.2402,4.2402,4.246,4.2539,4.2148,4.1992,4.1953,4.2226,4.2382,4.2421,4.2499,4.2616,4.2734,4.2851,4.3046,4.3124,4.3514,4.3613,4.3691,4.416,4.4629,4.4862,4.4959,4.5076,4.5154,4.5193,4.5232,4.5351,4.5369,4.5311,4.5213,4.5195,4.5193,4.535,4.5408,4.5428,4.5389,4.5428,4.5564,4.6091,4.6113,4.6291,4.6562,4.6641,4.6601,4.6699,4.6875,4.7028,4.697,4.7405,4.7545,4.3652,4.3632,4.3652,4.3632,4.3652,4.3632,4.3887,4.4219,4.4277,4.4471,4.4744,4.4783,4.4862,4.4705,4.3613,4.3516,4.4199,4.4238,4.4413,4.4783,4.4842,4.492,4.4957,4.4979,4.4998,4.5115,4.5135,4.5096,4.5117,4.5449,4.5666,4.5686,4.5996,4.6211,4.6172,4.6152,4.623,4.613,4.6152,4.6035,4.5725,4.5646,4.5412,4.4998,4.4901,4.4647,4.4375,4.4316,4.3926,4.3126,4.3126,4.291,4.2499,4.2421,4.246,4.246,4.2441,4.2441,4.246,4.246,4.246,4.248,4.2558,4.248,4.2656,4.2656,4.2812,4.3067,4.3379,4.3222,4.2616,4.2674,4.2616,4.2616,4.2891,4.3242,4.3613,4.3965,4.4453,4.4666,4.4705,4.4725,4.4863,4.494,4.5018,4.5076,4.5057,4.5215,4.5566,4.5666,4.584,4.6094,4.6191,4.6133,4.5803,4.5742,4.5898,4.6035,4.6152,4.625,4.6365,4.6501,4.6677,4.6853,4.7031,4.7229,4.7444,4.7503,4.7405,4.7425,4.7444,4.7561,4.7539,4.7626,4.81,4.453,4.4551,4.453,4.453,4.453,4.453,4.4627,4.4764,4.4783,4.4862,4.4979,4.5018,4.5018,4.4979,4.453,4.4471,4.4764,4.4783,4.4862,4.4998,4.5018,4.5154,4.543,4.5449,4.5605,4.582,4.584,4.584,4.5838,4.6016,4.6074,4.6094,4.6211,4.6308,4.6308,4.6308,4.6308,4.6308,4.6308,4.623,4.6113,4.6074,4.5996,4.5799,4.5291,4.494,4.4805,4.4783,4.4627,4.4336,4.4295,4.41,4.369,4.3378,4.3242,4.3222,4.3242,4.3222,4.3222,4.3222,4.3358,4.3652,4.3691,4.3749,4.4003,4.4081,4.4139,4.4297,4.4413,4.4334,4.4198,4.4061,4.4081,4.41,4.4198,4.4336,4.4512,4.4686,4.4842,4.4979,4.5018,4.5096,4.5371,4.5449,4.5547,4.5781,4.584,4.5937,4.6074,4.6289,4.6501,4.6699,4.6933,4.707,4.6953,4.6641,4.654,4.6719,4.6855,4.7012,4.7148,4.7168,4.7305,4.7324,4.76,4.7943,4.8095,4.8683,4.8546,4.8459,4.8451,4.9035,4.7988,4.9496,5.0354,4.5018,4.5018,4.5018,4.5018,4.5018,4.5018,4.5076,4.5193,4.5213,4.5271,4.5389,4.5428,4.5428,4.5408,4.5408,4.5408,4.5389,4.5291,4.5312,4.5408,4.5428,4.5605,4.584,4.59,4.6094,4.6484,4.666,4.6719,4.6719,4.6719,4.6719,4.6741,4.6719,4.6719,4.6741,4.6741,4.6699,4.6719,4.6719,4.6741,4.6719,4.6719,4.6741,4.6621,4.5994,4.5467,4.5232,4.5234,4.5135,4.5037,4.5018,4.4881,4.4588,4.4276,4.412,4.412,4.4121,4.412,4.41,4.41,4.4237,4.457,4.4609,4.4746,4.4979,4.5018,4.5018,4.5018,4.5154,4.5234,4.5252,4.5311,4.5311,4.5096,4.5018,4.5057,4.5215,4.5193,4.5312,4.5449,4.5486,4.5605,4.5842,4.6018,4.6211,4.6462,4.6601,4.6699,4.6758,4.6933,4.7107,4.7148,4.7344,4.7503,4.7483,4.7305,4.7148,4.7266,4.7305,4.7561,4.7827,4.7824,4.7976,4.7906,4.8122,4.8449,4.8987,4.9687,4.9979,5.0023,5.1054,5.2081,5.1943,5.2359,5.298,4.5057,4.5076,4.5018,4.5115,4.5135,4.5135,4.5312,4.5666,4.5725,4.5937,4.6169,4.6289,4.6308,4.6308,4.6308,4.6308,4.625,4.5976,4.5976,4.6209,4.6289,4.6308,4.6367,4.6387,4.6562,4.6933,4.7344,4.7542,4.7483,4.7464,4.7483,4.7542,4.7483,4.7444,4.7561,4.7483,4.7522,4.7503,4.7464,4.7522,4.76,4.7503,4.7483,4.7464,4.7028,4.6482,4.5803,4.5725,4.5508,4.5135,4.5096,4.5037,4.5018,4.492,4.4959,4.4901,4.494,4.4959,4.494,4.4901,4.4881,4.5018,4.4996,4.5037,4.5154,4.5154,4.5154,4.5213,4.5469,4.5705,4.5803,4.6035,4.5957,4.5213,4.5213,4.541,4.5646,4.5744,4.5881,4.6211,4.6308,4.6308,4.6406,4.6641,4.6853,4.695,4.7207,4.7425,4.7405,4.7503,4.76,4.762,4.7757,4.7913,4.7933,4.7891,4.7835,4.7776,4.7776,4.7897,4.824,4.8432,4.9187,4.9362,5.0452,5.085,5.1901,5.2634,5.358,5.3887,5.4785,5.4719,5.461,5.4654,5.5485,4.5918,4.5898,4.5898,4.5877,4.5898,4.5898,4.5996,4.6133,4.6406,4.6621,4.6755,4.7051,4.721,4.721,4.7187,4.719,4.719,4.7053,4.6894,4.6816,4.7031,4.7171,4.7168,4.719,4.7246,4.7383,4.7522,4.76,4.762,4.762,4.76,4.76,4.762,4.76,4.764,4.76,4.76,4.76,4.76,4.76,4.76,4.762,4.762,4.7581,4.7441,4.7226,4.6973,4.6426,4.6055,4.5898,4.5877,4.5781,4.5488,4.5176,4.5018,4.5018,4.5018,4.5018,4.5018,4.5037,4.5174,4.5391,4.5469,4.5625,4.5859,4.5898,4.5898,4.5898,4.6035,4.6211,4.6484,4.6641,4.6462,4.5935,4.6152,4.6306,4.6484,4.6758,4.7053,4.7171,4.7187,4.7168,4.7187,4.7344,4.7363,4.7383,4.7561,4.7659,4.7659,4.7913,4.8008,4.8027,4.8226,4.8363,4.8382,4.8496,4.8594,4.8606,4.8567,4.8777,4.9035,4.9593,5.0301,5.1463,5.2505,5.3572,5.4632,5.5639,5.6573,5.6422,5.6138,5.6073,5.6118,5.6811,5.7842,4.6543,4.6521,4.6719,4.6777,4.6777,4.6777,4.6777,4.6816,4.7051,4.7146,4.7246,4.7483,4.76,4.76,4.76,4.76,4.762,4.7757,4.7656,4.7422,4.748,4.76,4.764,4.7776,4.7835,4.7874,4.7991,4.8069,4.8089,4.8069,4.8089,4.8089,4.8069,4.8089,4.8089,4.8069,4.8089,4.8069,4.8089,4.8069,4.8089,4.8089,4.8069,4.8069,4.7913,4.7835,4.7754,4.7151,4.6699,4.6543,4.6406,4.6172,4.594,4.5664,4.5486,4.5486,4.5486,4.5486,4.5508,4.5547,4.5584,4.5881,4.5918,4.6094,4.6426,4.6521,4.6582,4.6758,4.6797,4.6872,4.7109,4.7168,4.7031,4.6816,4.6973,4.7148,4.7207,4.7402,4.7561,4.7561,4.7561,4.76,4.76,4.7754,4.7793,4.7812,4.7972,4.8069,4.8128,4.8323,4.8402,4.8457,4.8597,4.8737,4.8835,4.9039,4.9315,4.9416,4.9494,4.9893,5.0302,5.1074,5.1856,5.3752,5.507,5.6225,5.7283,5.8505,5.9396,5.8526,5.8036,5.8908,5.9607,5.9817,6.0574,4.695,4.6989,4.7402,4.7542,4.7542,4.7522,4.7503,4.7561,4.762,4.764,4.764,4.7757,4.7757,4.7718,4.7815,4.7815,4.7734,4.8066,4.8242,4.8105,4.7952,4.7796,4.7855,4.8105,4.8242,4.8301,4.8617,4.8792,4.8734,4.8757,4.8894,4.8796,4.8753,4.8851,4.8753,4.8874,4.8796,4.8776,4.8792,4.8815,4.8815,4.8812,4.8835,4.8796,4.846,4.8242,4.8183,4.7815,4.7363,4.697,4.6641,4.6484,4.6406,4.6367,4.6367,4.6367,4.6367,4.6367,4.6367,4.6367,4.6387,4.6448,4.6465,4.6523,4.6872,4.695,4.7067,4.7405,4.7483,4.7542,4.76,4.764,4.762,4.7659,4.7659,4.7659,4.7656,4.7737,4.7835,4.7796,4.7698,4.7698,4.7815,4.8066,4.8203,4.8301,4.8558,4.8675,4.8714,4.8737,4.8855,4.8989,4.92,4.9845,5.0208,5.1439,5.1755,5.196,5.187,5.205,5.2522,5.3327,5.4785,5.6572,5.7583,5.8778,5.9751,6.0744,6.1432,6.1163,6.1494,6.2597,6.2572,6.2137,6.1993,4.7425,4.7444,4.7539,4.76,4.76,4.76,4.762,4.7659,4.793,4.8047,4.8105,4.8424,4.8522,4.8561,4.8542,4.8538,4.8538,4.8636,4.8714,4.8695,4.8617,4.8558,4.8538,4.8636,4.8695,4.8714,4.8792,4.8894,4.8894,4.8894,4.8894,4.8894,4.8894,4.8894,4.8894,4.8894,4.8894,4.8894,4.8894,4.8894,4.8894,4.8894,4.8894,4.8894,4.8753,4.8695,4.8675,4.8304,4.7851,4.7483,4.7324,4.7268,4.7187,4.7187,4.719,4.719,4.7229,4.7226,4.7229,4.7229,4.7249,4.7268,4.7171,4.7285,4.7383,4.7402,4.7503,4.76,4.76,4.7757,4.7969,4.8047,4.8164,4.8441,4.8245,4.8144,4.8402,4.8538,4.8561,4.8538,4.8499,4.848,4.8499,4.8558,4.8675,4.8695,4.8773,4.8894,4.8894,4.9331,4.9495,4.9771,5.0097,5.1032,5.2027,5.3437,5.4301,5.472,5.4807,5.4873,5.5573,5.6485,5.8481,6.0657,6.0302,6.1035,6.1556,6.2265,6.2741,6.2802,6.2802,6.2802,6.2802,6.2531,6.2491,4.7832,4.7871,4.805,4.8148,4.8128,4.8148,4.8128,4.8187,4.8382,4.8499,4.8558,4.8776,4.8894,4.8894,4.8894,4.8894,4.8894,4.8894,4.8894,4.8894,4.8874,4.8874,4.8894,4.8894,4.8894,4.8894,4.8894,4.8894,4.8894,4.8894,4.8894,4.8894,4.8894,4.8894,4.8894,4.8894,4.8894,4.8894,4.8894,4.8894,4.8894,4.8894,4.8894,4.8894,4.8894,4.8894,4.8855,4.8636,4.8304,4.7933,4.7718,4.76,4.76,4.76,4.76,4.76,4.76,4.76,4.76,4.76,4.76,4.76,4.76,4.7676,4.7793,4.7874,4.7894,4.8148,4.8151,4.8265,4.8441,4.8499,4.8617,4.8776,4.8656,4.8617,4.8894,4.8855,4.8894,4.8894,4.8894,4.8894,4.8894,4.8894,4.8894,4.8894,4.8851,4.8894,4.894,4.9656,5.0459,5.0964,5.2072,5.3327,5.397,5.5115,5.6551,5.7048,5.7885,5.795,5.8034,5.9035,6.0574,6.2117,6.2552,6.2802,6.2802,6.2802,6.2802,6.2802,6.2802,6.2802,6.2802,6.2802,6.2802,4.8262,4.832,4.8714,4.8894,4.8855,4.8894,4.8792,4.8874,4.8855,4.8855,4.8874,4.8894,4.8894,4.8894,4.8894,4.8894,4.8894,4.8894,4.8894,4.8894,4.8894,4.8894,4.8894,4.8894,4.8894,4.8894,4.8894,4.8894,4.8894,4.8894,4.8894,4.8894,4.8894,4.8894,4.8894,4.8894,4.8894,4.8894,4.8894,4.8894,4.8894,4.8894,4.8894,4.8894,4.8894,4.8894,4.8894,4.8835,4.8675,4.8323,4.791,4.7835,4.7796,4.7776,4.7776,4.7815,4.7874,4.7855,4.7776,4.7855,4.7796,4.7835,4.7815,4.7874,4.8183,4.8304,4.8421,4.8695,4.8894,4.8815,4.8835,4.8874,4.8874,4.8894,4.8874,4.8894,4.8894,4.8894,4.8894,4.8894,4.8894,4.8894,4.8894,4.8894,4.8894,4.9032,4.9331,5.0094,5.0666,5.1712,5.2387,5.2858,5.4301,5.6009,5.6377,5.6746,5.8183,5.933,6.0615,6.0952,6.0198,6.091,6.1952,6.2802,6.2802,6.2802,6.2802,6.2802,6.2802,6.2802,6.2802,6.2802,6.2802,6.2802,6.2802,4.8734,4.8776,4.8874,4.8894,4.8894,4.8894,4.8894,4.8894,4.8894,4.8894,4.8894,4.8894,4.8894,4.8894,4.8894,4.8894,4.8894,4.8894,4.8894,4.8894,4.8894,4.8894,4.8894,4.8894,4.8894,4.8894,4.8894,4.8894,4.8894,4.8894,4.8894,4.8894,4.8894,4.8894,4.8894,4.8894,4.8894,4.8894,4.8894,4.8894,4.8894,4.8894,4.8894,4.8894,4.8894,4.8894,4.8894,4.8894,4.8855,4.8757,4.8659,4.8522,4.8499,4.8538,4.8542,4.8522,4.8561,4.8558,4.8578,4.8538,4.8597,4.8519,4.8522,4.8659,4.8695,4.8714,4.8753,4.8894,4.8894,4.8894,4.8894,4.8894,4.8894,4.8894,4.8894,4.8894,4.8894,4.8894,4.8894,4.8894,4.8894,4.8894,4.8894,4.9101,4.9147,4.9193,5.0231,5.1417,5.2567,5.3748,5.4544,5.5114,5.6896,5.8524,5.8781,5.9035,5.9943,6.0823,6.1973,6.2741,6.2035,6.187,6.2577,6.2802,6.2802,6.2802,6.2802,6.2802,6.2802,6.2802,6.2802,6.2802,6.2802,6.2802,6.2802,4.8894,4.8894,4.8894,4.8894,4.8894,4.8894,4.8894,4.8894,4.8894,4.8894,4.8894,4.8894,4.8894,4.8894,4.8894,4.8894,4.8894,4.8894,4.8894,4.8894,4.8894,4.8894,4.8894,4.8894,4.8894,4.8894,4.8894,4.8894,4.8894,4.8894,4.8894,4.8894,4.8894,4.8894,4.8894,4.8894,4.8894,4.8894,4.8894,4.8894,4.8894,4.8894,4.8894,4.8894,4.8894,4.8894,4.8894,4.8894,4.8894,4.8894,4.8894,4.8894,4.8894,4.8894,4.8894,4.8894,4.8894,4.8894,4.8894,4.8894,4.8874,4.8894,4.8894,4.8894,4.8894,4.8894,4.8894,4.8894,4.8894,4.8894,4.8894,4.8894,4.8894,4.8894,4.8894,4.8894,4.8894,4.8894,4.8894,4.8894,4.8894,4.8894,4.8986,4.9656,5.0507,5.1032,5.2902,5.4058,5.4632,5.5813,5.6917,5.7947,5.9712,6.0889,6.1118,6.1432,6.1829,6.2203,6.2409,6.2802,6.2511,6.2531,6.2761,6.2802,6.2802,6.2802,6.2802,6.2802,6.2802,6.2802,6.2802,6.2802,6.2802,6.2802,6.2802,4.8894,4.8894,4.8894,4.8894,4.8894,4.8894,4.8894,4.8894,4.8894,4.8894,4.8894,4.8894,4.8894,4.8894,4.8894,4.8894,4.8894,4.8894,4.8894,4.8894,4.8894,4.8894,4.8894,4.8894,4.8894,4.8894,4.8894,4.8894,4.8894,4.8894,4.8894,4.8894,4.8894,4.8894,4.8894,4.8894,4.8894,4.8894,4.8894,4.8894,4.8894,4.8894,4.8894,4.8894,4.8894,4.8894,4.8894,4.8894,4.8894,4.8894,4.8894,4.8894,4.8894,4.8894,4.8894,4.8894,4.8894,4.8894,4.8894,4.8894,4.8894,4.8894,4.8894,4.8894,4.8894,4.8894,4.8894,4.8894,4.8894,4.8894,4.8894,4.8894,4.8894,4.8894,4.8894,4.8894,4.8963,4.9101,4.9564,4.8894,4.8986,4.9055,5.0025,5.0962,5.196,5.3192,5.5115,5.6551,5.7091,5.797,5.914,5.9838,6.1263,6.1849,6.2055,6.2117,6.272,6.2802,6.2802,6.2802,6.2802,6.2802,6.2802,6.2802,6.2802,6.2802,6.2802,6.2802,6.2802,6.2802,6.2802,6.2802,6.2802,6.2802,6.2802,4.8894,4.8894,4.8894,4.8894,4.8894,4.8894,4.8894,4.8894,4.8894,4.8894,4.8894,4.8894,4.8894,4.8894,4.8894,4.8894,4.8894,4.8894,4.8894,4.8894,4.8894,4.8894,4.8894,4.8894,4.8894,4.8894,4.8894,4.8894,4.8894,4.8894,4.8894,4.8894,4.8894,4.8894,4.8894,4.8894,4.8894,4.8894,4.8894,4.8894,4.8894,4.8894,4.8894,4.8894,4.8894,4.8894,4.8894,4.8894,4.8894,4.8894,4.8894,4.8894,4.8894,4.8894,4.8894,4.8894,4.8894,4.8894,4.8894,4.8894,4.8894,4.8894,4.8894,4.8894,4.8894,4.8894,4.8894,4.8894,4.8894,4.8894,4.8894,4.8894,4.8894,4.8894,4.9124,4.9147,4.9449,5.0484,5.11,5.0188,4.9793,4.9679,5.1007,5.2567,5.4103,5.5573,5.7413,5.8502,5.9035,6.0173,6.1536,6.2014,6.2429,6.2618,6.2679,6.2638,6.2802,6.2802,6.2802,6.2802,6.2802,6.2802,6.2802,6.2802,6.2802,6.2802,6.2802,6.2802,6.2802,6.2802,6.2802,6.2802,6.2802,6.2802,6.2802,4.8894,4.8894,4.8894,4.8894,4.8894,4.8894,4.8894,4.8894,4.8894,4.8894,4.8894,4.8894,4.8894,4.8894,4.8894,4.8894,4.8894,4.8894,4.8894,4.8894,4.8894,4.8894,4.8894,4.8894,4.8894,4.8894,4.8894,4.8894,4.8894,4.8894,4.8894,4.8894,4.8894,4.8894,4.8894,4.8894,4.8894,4.8894,4.8894,4.8894,4.8894,4.8894,4.8894,4.8894,4.8894,4.8894,4.8894,4.8894,4.8894,4.8894,4.8894,4.8894,4.8894,4.8894,4.8894,4.8894,4.8894,4.8894,4.8894,4.8894,4.8894,4.8894,4.8894,4.8894,4.8894,4.8894,4.8894,4.8894,4.8894,4.8894,4.8894,4.894,4.8894,4.9147,4.9911,5.0644,5.1213,5.2925,5.288,5.2388,5.306,5.3059,5.2274,5.4036,5.6117,5.7947,5.9709,6.0382,6.0823,6.168,6.2802,6.2802,6.2781,6.2781,6.2802,6.2802,6.2802,6.2802,6.2802,6.2802,6.2802,6.2802,6.2802,6.2802,6.2802,6.2802,6.2802,6.2802,6.2802,6.2802,6.2802,6.2802,6.2802,6.2802,6.2802,4.8894,4.8894,4.8894,4.8894,4.8894,4.8894,4.8894,4.8894,4.8894,4.8894,4.8894,4.8894,4.8894,4.8894,4.8894,4.8894,4.8894,4.8894,4.8894,4.8894,4.8894,4.8894,4.8894,4.8894,4.8894,4.8894,4.8894,4.8894,4.8894,4.8894,4.8894,4.8894,4.8894,4.8894,4.8894,4.8894,4.8894,4.8894,4.8894,4.8894,4.8894,4.8894,4.8894,4.8894,4.8894,4.8894,4.8894,4.8894,4.8894,4.8894,4.8894,4.8894,4.8894,4.8894,4.8894,4.8894,4.8894,4.8894,4.8894,4.8894,4.8894,4.8894,4.8894,4.8894,4.8894,4.8894,4.8894,4.8894,4.8894,4.8894,4.8963,4.9403,4.9679,5.0231,5.1712,5.3215,5.3726,5.4742,5.5683,5.5813,5.6681,5.6464,5.5595,5.5856,5.8011,5.9604,6.1329,6.1556,6.1932,6.2117,6.2802,6.2802,6.2802,6.2802,6.2802,6.2802,6.2802,6.2802,6.2802,6.2802,6.2802,6.2802,6.2802,6.2802,6.2802,6.2802,6.2802,6.2802,6.2802,6.2802,6.2802,6.2802,6.2802,6.2802,6.2802,4.8894,4.8894,4.8894,4.8894,4.8894,4.8894,4.8894,4.8894,4.8894,4.8894,4.8894,4.8894,4.8894,4.8894,4.8894,4.8894,4.8894,4.8894,4.8894,4.8894,4.8894,4.8894,4.8894,4.8894,4.8894,4.8894,4.8894,4.8894,4.8894,4.8894,4.8894,4.8894,4.8894,4.8894,4.8894,4.8894,4.8894,4.8894,4.8894,4.8894,4.8894,4.8894,4.8894,4.8894,4.8894,4.8894,4.8894,4.8894,4.8894,4.8894,4.8894,4.8894,4.8894,4.8894,4.8894,4.8894,4.8894,4.8894,4.8894,4.8894,4.8894,4.8894,4.8894,4.8894,4.8894,4.8894,4.8894,4.8894,4.8894,4.917,4.961,5.0803,5.1577,5.2746,5.4036,5.5158,5.5857,5.7413,5.8226,5.8462,5.9014,5.9225,5.8884,5.9243,5.9877,6.1432,6.2597,6.272,6.2802,6.2802,6.2802,6.2802,6.2802,6.2802,6.2802,6.2802,6.2802,6.2802,6.2802,6.2802,6.2802,6.2802,6.2802,6.2802,6.2802,6.2802,6.2802,6.2802,6.2802,6.2802,6.2802,6.2802,6.2802,6.2802,6.2802,4.8894,4.8894,4.8894,4.8894,4.8894,4.8894,4.8894,4.8894,4.8894,4.8894,4.8894,4.8894,4.8894,4.8894,4.8894,4.8894,4.8894,4.8894,4.8894,4.9055,4.9055,4.8986,4.8894,4.8894,4.8894,4.9239,4.8894,4.8894,4.8894,4.894,4.8894,4.8894,4.8894,4.8894,4.8894,4.8894,4.8894,4.8894,4.8894,4.8894,4.8894,4.8894,4.8894,4.8894,4.8894,4.8894,4.8894,4.8894,4.8894,4.8894,4.8894,4.8894,4.8894,4.8894,4.8894,4.8894,4.8894,4.8894,4.8894,4.8894,4.8894,4.8894,4.8894,4.8894,4.8894,4.8894,4.8894,4.8894,4.8894,4.9426,5.053,5.1757,5.3014,5.4412,5.6442,5.7262,5.829,6.0048,6.1139,6.1246,6.1204,6.1097,6.1076,6.1159,6.1201,6.1891,6.2679,6.2741,6.2802,6.2802,6.2802,6.2802,6.2802,6.2802,6.2802,6.2802,6.2802,6.2802,6.2802,6.2802,6.2802,6.2802,6.2802,6.2802,6.2802,6.2802,6.2802,6.2802,6.2802,6.2802,6.2802,6.2802,6.2802,6.2802,6.2802,4.8894,4.8894,4.8894,4.8894,4.8894,4.8894,4.8894,4.8894,4.8894,4.8894,4.8894,4.8894,4.8894,4.8894,4.8963,4.9262,4.9839,4.9193,4.9862,5.0139,5.0162,5.0345,5.0735,5.0598,5.0279,5.0484,4.9335,4.9472,4.9656,4.9266,4.8894,4.8894,4.8894,4.8894,4.8894,4.8894,4.8894,4.8894,4.8894,4.8894,4.8894,4.8894,4.8894,4.8894,4.8894,4.8894,4.8894,4.8894,4.8894,4.8894,4.8894,4.8894,4.8894,4.8894,4.8894,4.8894,4.8894,4.8894,4.8894,4.8894,4.8894,4.8894,4.8894,4.8894,4.8894,4.8894,4.8894,4.8894,4.9862,5.0803,5.2117,5.3238,5.5267,5.7003,5.8736,5.9541,6.032,6.1474,6.2244,6.2142,6.2076,6.2327,6.2368,6.2577,6.2659,6.272,6.2802,6.2802,6.2802,6.2802,6.2802,6.2802,6.2802,6.2802,6.2802,6.2802,6.2802,6.2802,6.2802,6.2802,6.2802,6.2802,6.2802,6.2802,6.2802,6.2802,6.2802,6.2802,6.2802,6.2802,6.2802,6.2802,6.2802,6.2802,6.2802,4.8894,4.8894,4.8894,4.8894,4.8894,4.8894,4.8894,4.8894,4.8894,4.8986,4.9262,4.9032,4.9216,4.9193,4.9748,5.0553,5.1915,4.9865,5.1644,5.3237,5.3504,5.3326,5.3438,5.3237,5.2969,5.3859,5.187,5.1009,5.1123,5.0048,4.9358,4.8894,4.8894,4.8894,4.8894,4.8894,4.8894,4.8894,4.8894,4.8894,4.8894,4.8894,4.8894,4.8894,4.8894,4.8894,4.8894,4.8894,4.8894,4.8894,4.8894,4.8894,4.8894,4.8894,4.8894,4.8894,4.8894,4.9055,4.9335,4.9101,4.8894,4.8894,4.8894,4.8894,4.8894,4.8986,4.8986,4.9541,5.1055,5.2366,5.3992,5.5769,5.769,5.9243,6.0487,6.1201,6.1701,6.1993,6.2659,6.2761,6.2802,6.2802,6.2802,6.2802,6.2802,6.2802,6.2802,6.2802,6.2802,6.2802,6.2802,6.2802,6.2802,6.2802,6.2802,6.2802,6.2802,6.2802,6.2802,6.2802,6.2802,6.2802,6.2802,6.2802,6.2802,6.2802,6.2802,6.2802,6.2802,6.2802,6.2802,6.2802,6.2802,6.2802,6.2802,4.8894,4.8894,4.8894,4.8894,4.8894,4.8894,4.8894,4.8894,4.8894,4.9816,5.0987,5.1055,5.1055,5.1372,5.2612,5.2724,5.2678,5.3304,5.4455,5.5049,5.5158,5.5202,5.5377,5.5421,5.5005,5.553,5.3859,5.2388,5.2072,5.1485,5.0094,4.9426,4.9147,4.8894,4.8894,4.8894,4.8894,4.8894,4.8894,4.8894,4.8894,4.8894,4.8894,4.8894,4.8894,4.8894,4.8894,4.8894,4.8894,4.8894,4.8894,4.8963,4.9147,4.9124,4.9216,4.9289,4.9358,4.9911,5.0484,4.9888,4.8917,4.8894,4.8894,4.8986,4.9289,5.0162,5.0894,5.178,5.3126,5.4676,5.696,5.8224,5.9499,6.1031,6.2035,6.2618,6.2802,6.2802,6.2802,6.2802,6.2802,6.2802,6.2802,6.2802,6.2802,6.2802,6.2802,6.2802,6.2802,6.2802,6.2802,6.2802,6.2802,6.2802,6.2802,6.2802,6.2802,6.2802,6.2802,6.2802,6.2802,6.2802,6.2802,6.2802,6.2802,6.2802,6.2802,6.2802,6.2802,6.2802,6.2802,6.2802,6.2802,6.2802,6.2802,4.8894,4.8894,4.8894,4.8894,4.8894,4.8894,4.8894,4.8894,4.8894,5.0208,5.241,5.2992,5.3438,5.3948,5.4829,5.5705,5.4983,5.5442,5.6703,5.7327,5.7542,5.7435,5.7499,5.7499,5.7435,5.7392,5.6183,5.4939,5.4961,5.3903,5.223,5.078,4.9888,4.9774,4.8894,4.8894,4.8894,4.8894,4.8894,4.8894,4.8894,4.8894,4.8894,4.8894,4.8894,4.8894,4.8894,4.8894,4.8894,4.8894,4.8986,4.9335,4.9682,5.0048,5.0325,5.0689,5.11,5.1759,5.2298,5.1439,5.0025,5.0254,5.0185,5.0139,5.0484,5.2027,5.3326,5.3615,5.5486,5.7583,5.9454,6.0003,6.0865,6.222,6.2368,6.2802,6.2802,6.2802,6.2802,6.2802,6.2802,6.2802,6.2802,6.2802,6.2802,6.2802,6.2802,6.2802,6.2802,6.2802,6.2802,6.2802,6.2802,6.2802,6.2802,6.2802,6.2802,6.2802,6.2802,6.2802,6.2802,6.2802,6.2802,6.2802,6.2802,6.2802,6.2802,6.2802,6.2802,6.2802,6.2802,6.2802,6.2802,6.2802,6.2802,4.8894,4.8894,4.8894,4.8894,4.8894,4.8894,4.8894,4.8963,4.9193,5.053,5.2947,5.4785,5.5835,5.5966,5.6638,5.7326,5.7797,5.7133,5.8249,6.0639,5.9985,6.0594,6.074,6.0511,5.9901,6.0931,5.9291,5.7842,5.8458,5.6658,5.4566,5.2969,5.2207,5.1123,4.917,4.8894,4.8894,4.8894,4.8894,4.894,4.9312,4.9193,4.8917,4.9472,4.9009,4.8917,4.8894,4.9472,4.961,4.961,5.0025,5.085,5.2096,5.2276,5.3125,5.4698,5.4961,5.5333,5.5529,5.3549,5.2768,5.2409,5.2342,5.2342,5.2791,5.4279,5.5813,5.5943,5.7861,5.9074,6.0215,6.1135,6.2158,6.2659,6.2761,6.2802,6.2802,6.2802,6.2802,6.2802,6.2802,6.2802,6.2802,6.2802,6.2802,6.2802,6.2802,6.2802,6.2802,6.2802,6.2802,6.2802,6.2802,6.2802,6.2802,6.2802,6.2802,6.2802,6.2802,6.2802,6.2802,6.2802,6.2802,6.2802,6.2802,6.2802,6.2802,6.2802,6.2802,6.2802,6.2802,6.2802,6.2802,6.2802,6.2802,4.8894,4.8894,4.8894,4.8894,4.8894,4.8894,4.8894,4.9193,5.0575,5.2522,5.4807,5.7133,5.8162,5.8524,5.9478,5.9964,5.9307,6.0993,6.2224,6.2327,6.1722,6.2076,6.2286,6.2096,6.1952,6.2224,6.0785,5.9415,5.9096,5.8417,5.6896,5.5224,5.4213,5.2433,4.9934,4.8894,4.8894,4.8894,4.9032,4.9495,5.0805,5.0002,4.9793,5.1055,4.9979,4.9358,4.9518,5.053,5.1168,5.1439,5.205,5.3571,5.4544,5.4698,5.5136,5.5966,5.6053,5.668,5.7498,5.7133,5.6226,5.5443,5.4742,5.472,5.4895,5.6853,5.7797,5.8524,6.0069,6.1118,6.2035,6.2178,6.2741,6.2741,6.2802,6.2802,6.2802,6.2802,6.2802,6.2802,6.2802,6.2802,6.2802,6.2802,6.2802,6.2802,6.2802,6.2802,6.2802,6.2802,6.2802,6.2802,6.2802,6.2802,6.2802,6.2802,6.2802,6.2802,6.2802,6.2802,6.2802,6.2802,6.2802,6.2802,6.2802,6.2802,6.2802,6.2802,6.2802,6.2802,6.2802,6.2802,6.2802,6.2802,6.2802,4.9633,4.9009,4.9793,4.961,4.8963,4.8894,4.9308,5.0553,5.3349,5.566,5.7304,5.9436,6.0508,6.0993,6.1808,6.2306,6.0719,6.1911,6.2741,6.2802,6.2781,6.2741,6.2761,6.2802,6.2618,6.2802,6.2679,6.187,6.0803,6.057,5.9204,5.7412,5.6226,5.4301,5.2209,5.1712,5.169,5.1825,5.2029,5.2366,5.2925,5.2634,5.2231,5.2835,5.2433,5.1532,5.1825,5.259,5.3637,5.4125,5.4961,5.6377,5.6746,5.7068,5.7433,5.7906,5.8462,5.9204,6.0111,6.0469,5.9499,5.8717,5.7692,5.709,5.7433,5.9225,6.0152,6.1035,6.2096,6.2429,6.272,6.2802,6.2802,6.2802,6.2802,6.2802,6.2802,6.2802,6.2802,6.2802,6.2802,6.2802,6.2802,6.2802,6.2802,6.2802,6.2802,6.2802,6.2802,6.2802,6.2802,6.2802,6.2802,6.2802,6.2802,6.2802,6.2802,6.2802,6.2802,6.2802,6.2802,6.2802,6.2802,6.2802,6.2802,6.2802,6.2802,6.2802,6.2802,6.2802,6.2802,6.2802,6.2802,6.2802,6.2802,5.0919,4.9403,5.1349,5.0919,4.9289,4.9751,5.0896,5.288,5.7153,5.9032,5.9328,6.1474,6.2347,6.2597,6.2802,6.2659,6.245,6.27,6.2761,6.2802,6.2802,6.2802,6.2802,6.2802,6.2802,6.2802,6.2741,6.2659,6.2618,6.2224,6.1035,5.952,5.7991,5.6875,5.6292,5.6096,5.5595,5.4851,5.45,5.4961,5.5486,5.5311,5.518,5.5399,5.5114,5.472,5.4961,5.5574,5.5922,5.6139,5.6377,5.7669,5.863,5.9372,6.0844,6.1866,6.2286,6.2286,6.2265,6.2244,6.2286,6.1287,6.0299,5.9688,5.9877,6.1056,6.1701,6.2076,6.2638,6.27,6.2802,6.2802,6.2802,6.2802,6.2802,6.2802,6.2802,6.2802,6.2802,6.2802,6.2802,6.2802,6.2802,6.2802,6.2802,6.2802,6.2802,6.2802,6.2802,6.2802,6.2802,6.2802,6.2802,6.2802,6.2802,6.2802,6.2802,6.2802,6.2802,6.2802,6.2802,6.2802,6.2802,6.2802,6.2802,6.2802,6.2802,6.2802,6.2802,6.2802,6.2802,6.2802,6.2802,6.2802,6.2802,4.9495,4.8986,4.9633,5.0439,5.1847,5.4873,5.5856,5.5443,5.8075,5.9307,5.9433,6.1763,6.2761,6.2802,6.2802,6.2802,6.2802,6.2802,6.2802,6.2802,6.2802,6.2802,6.2802,6.2802,6.2802,6.2802,6.2802,6.2802,6.2761,6.2802,6.272,6.1618,6.0532,6.0386,6.0386,6.0723,5.8653,5.7091,5.6573,5.7242,5.7521,5.709,5.739,5.7733,5.7025,5.6703,5.666,5.7799,5.8162,5.8354,5.9922,6.1329,6.1536,6.1808,6.2429,6.2552,6.272,6.2761,6.2802,6.2802,6.2802,6.2802,6.1973,6.1993,6.2035,6.2265,6.2802,6.2802,6.2802,6.2802,6.2802,6.2802,6.2802,6.2802,6.2802,6.2802,6.2802,6.2802,6.2802,6.2802,6.2802,6.2802,6.2802,6.2802,6.2802,6.2802,6.2802,6.2802,6.2802,6.2802,6.2802,6.2802,6.2802,6.2802,6.2802,6.2802,6.2802,6.2802,6.2802,6.2802,6.2802,6.2802,6.2802,6.2802,6.2802,6.2802,6.2802,6.2802,6.2802,6.2802,6.2802,6.2802,6.2802,6.2802,6.2802,4.9728,4.9078,4.9934,5.1643,5.4213,5.7712,5.8863,5.8865,6.0111,6.0699,6.0844,6.2183,6.2802,6.2802,6.2802,6.2802,6.2802,6.2802,6.2802,6.2802,6.2802,6.2802,6.2802,6.2802,6.2802,6.2802,6.2802,6.2802,6.2802,6.2802,6.2741,6.2679,6.2802,6.2802,6.2577,6.2142,6.1225,5.9733,5.9014,5.9499,5.9394,5.9183,5.9856,5.9877,5.8823,5.8568,5.8505,6.0111,6.0445,6.0657,6.2429,6.2741,6.2761,6.2741,6.2741,6.2802,6.2802,6.2802,6.2802,6.2802,6.2802,6.2802,6.2802,6.272,6.2679,6.27,6.2802,6.2802,6.2802,6.2802,6.2802,6.2802,6.2802,6.2802,6.2802,6.2802,6.2802,6.2802,6.2802,6.2802,6.2802,6.2802,6.2802,6.2802,6.2802,6.2802,6.2802,6.2802,6.2802,6.2802,6.2802,6.2802,6.2802,6.2802,6.2802,6.2802,6.2802,6.2802,6.2802,6.2802,6.2802,6.2802,6.2802,6.2802,6.2802,6.2802,6.2802,6.2802,6.2802,6.2802,6.2802,6.2802,6.2802,6.2802,6.2802,5.1009,4.9124,5.162,5.3793,5.6074,5.8587,6.0782,6.2679,6.2531,6.2741,6.2679,6.2761,6.2802,6.2802,6.2802,6.2802,6.2802,6.2802,6.2802,6.2802,6.2802,6.2802,6.2802,6.2802,6.2802,6.2802,6.2802,6.2802,6.2802,6.2802,6.2802,6.2802,6.2802,6.2802,6.2802,6.2802,6.2224,6.1829,6.1556,6.1952,6.2224,6.2531,6.2802,6.2597,6.2388,6.2368,6.245,6.27,6.2802,6.2761,6.2761,6.2802,6.2802,6.2802,6.2802,6.2802,6.2802,6.2802,6.2802,6.2802,6.2802,6.2802,6.2802,6.2802,6.2802,6.2802,6.2802,6.2802,6.2802,6.2802,6.2802,6.2802,6.2802,6.2802,6.2802,6.2802,6.2802,6.2802,6.2802,6.2802,6.2802,6.2802,6.2802,6.2802,6.2802,6.2802,6.2802,6.2802,6.2802,6.2802,6.2802,6.2802,6.2802,6.2802,6.2802,6.2802,6.2802,6.2802,6.2802,6.2802,6.2802,6.2802,6.2802,6.2802,6.2802,6.2802,6.2802,6.2802,6.2802,6.2802,6.2802,6.2802,6.2802,6.2802,6.2802,5.1032,4.9354,5.3282,5.5399,5.6422,6.026,6.2224,6.2802,6.2802,6.2802,6.2802,6.2802,6.2802,6.2802,6.2802,6.2802,6.2802,6.2802,6.2802,6.2802,6.2802,6.2802,6.2802,6.2802,6.2802,6.2802,6.2802,6.2802,6.2802,6.2802,6.2802,6.2802,6.2802,6.2802,6.2802,6.2802,6.2802,6.2802,6.2802,6.2802,6.2802,6.2802,6.2802,6.2802,6.2802,6.2802,6.2802,6.2802,6.2802,6.2781,6.2802,6.2802,6.2802,6.2802,6.2802,6.2802,6.2802,6.2802,6.2802,6.2802,6.2802,6.2802,6.2802,6.2802,6.2802,6.2802,6.2802,6.2802,6.2802,6.2802,6.2802,6.2802,6.2802,6.2802,6.2802,6.2802,6.2802,6.2802,6.2802,6.2802,6.2802,6.2802,6.2802,6.2802,6.2802,6.2802,6.2802,6.2802,6.2802,6.2802,6.2802,6.2802,6.2802,6.2802,6.2802,6.2802,6.2802,6.2802,6.2802,6.2802,6.2802,6.2802,6.2802,6.2802,6.2802,6.2802,6.2802,6.2802,6.2802,6.2802,6.2802,6.2802,6.2802,6.2802,6.2802,5.1032,4.961,5.3903,5.5879,5.6724,6.0827,6.2802,6.2802,6.2802,6.2802,6.2802,6.2802,6.2802,6.2802,6.2802,6.2802,6.2802,6.2802,6.2802,6.2802,6.2802,6.2802,6.2802,6.2802,6.2802,6.2802,6.2802,6.2802,6.2802,6.2802,6.2802,6.2802,6.2802,6.2802,6.2802,6.2802,6.2802,6.2802,6.2802,6.2802,6.2802,6.2802,6.2802,6.2802,6.2802,6.2802,6.2802,6.2802,6.2802,6.2802,6.2802,6.2802,6.2802,6.2802,6.2802,6.2802,6.2802,6.2802,6.2802,6.2802,6.2802,6.2802,6.2802,6.2802,6.2802,6.2802,6.2802,6.2802,6.2802,6.2802,6.2802,6.2802,6.2802,6.2802,6.2802,6.2802,6.2802,6.2802,6.2802,6.2802,6.2802,6.2802,6.2802,6.2802,6.2802,6.2802,6.2802,6.2802,6.2802,6.2802,6.2802,6.2802,6.2802,6.2802,6.2802,6.2802,6.2802,6.2802,6.2802,6.2802,6.2802,6.2802,6.2802,6.2802,6.2802,6.2802,6.2802,6.2802,6.2802,6.2802,6.2802,6.2802,6.2802,6.2802,6.2802,5.1236,5.0117,5.4058,5.6118,5.6962,6.0931,6.2802,6.2802,6.2802,6.2802,6.2802,6.2802,6.2802,6.2802,6.2802,6.2802,6.2802,6.2802,6.2802,6.2802,6.2802,6.2802,6.2802,6.2802,6.2802,6.2802,6.2802,6.2802,6.2802,6.2802,6.2802,6.2802,6.2802,6.2802,6.2802,6.2802,6.2802,6.2802,6.2802,6.2802,6.2802,6.2802,6.2802,6.2802,6.2802,6.2802,6.2802,6.2802,6.2802,6.2802,6.2802,6.2802,6.2802,6.2802,6.2802,6.2802,6.2802,6.2802,6.2802,6.2802,6.2802,6.2802,6.2802,6.2802,6.2802,6.2802,6.2802,6.2802,6.2802,6.2802,6.2802,6.2802,6.2802,6.2802,6.2802,6.2802,6.2802,6.2802,6.2802,6.2802,6.2802,6.2802,6.2802,6.2802,6.2802,6.2802,6.2802,6.2802,6.2802,6.2802,6.2802,6.2802,6.2802,6.2802,6.2802,6.2802,6.2802,6.2802,6.2802,6.2802,6.2802,6.2802,6.2802,6.2802,6.2802,6.2802,6.2802,6.2802,6.2802,6.2802,6.2802,6.2802,6.2802,6.2802,6.2802,5.2162,5.1982,5.472,5.6874,5.8884,6.1639,6.2802,6.2802,6.2802,6.2802,6.2802,6.2802,6.2802,6.2802,6.2802,6.2802,6.2802,6.2802,6.2802,6.2802,6.2802,6.2802,6.2802,6.2802,6.2802,6.2802,6.2802,6.2802,6.2802,6.2802,6.2802,6.2802,6.2802,6.2802,6.2802,6.2802,6.2802,6.2802,6.2802,6.2802,6.2802,6.2802,6.2802,6.2802,6.2802,6.2802,6.2802,6.2802,6.2802,6.2802,6.2802,6.2802,6.2802,6.2802,6.2802,6.2802,6.2802,6.2802,6.2802,6.2802,6.2802,6.2802,6.2802,6.2802,6.2802,6.2802,6.2802,6.2802,6.2802,6.2802,6.2802,6.2802,6.2802,6.2802,6.2802,6.2802,6.2802,6.2802,6.2802,6.2802,6.2802,6.2802,6.2802,6.2802,6.2802,6.2802,6.2802,6.2802,6.2802,6.2802,6.2802,6.2802,6.2802,6.2802,6.2802,6.2802,6.2802,6.2802,6.2802,6.2802,6.2802,6.2802,6.2802,6.2802,6.2802,6.2802,6.2802,6.2802,6.2802,6.2802,6.2802,6.2802,6.2802,6.2802,6.2802]}]]